     2.10           OBSERVATION DATA    G (GPS)             RINEX VERSION / TYPE
teqc 2005May6 SOPAC 20050707 00:24:19UTC                    PGM / RUN BY / DATE
Linux 2.4.20-8|Pentium IV|gcc|Linux|486/DX+                 COMMENT
BIT 2 OF LLI FLAGS DATA COLLECTED UNDER A/S CONDITION       COMMENT
CM 24 58                                                    MARKER NAME
2458                                                        MARKER NUMBER
Dave Goodman                                                OBSERVER / AGENCY
0220309504 TRIMBLE 5700 2.01                                REC # / TYPE / VERS
12422974 TRM41249.00 NONE                                   ANT # / TYPE
 -2538157.0000 -4043132.0000  4217929.0000                  APPROX POSITION XYZ
        2.0000        0.0000        0.0000                  ANTENNA: DELTA H/E/N
     1     1                                                WAVELENGTH FACT L1/2
     6    L1    L2    C1    P2    P1    D1                  # / TYPES OF OBSERV
    15.0000                                                 INTERVAL
Northern California Height Modernization 2004               COMMENT
                                                            COMMENT
SOPAC - Scripps Orbit and Permanent Array Center            COMMENT
IGPP - Institute of Geophysics and Planetary Physics        COMMENT
SIO - Scripps Institution of Oceanography                   COMMENT
UCSD - University of California, San Diego                  COMMENT
                                                            COMMENT
email: archive@gpsmail.ucsd.edu                             COMMENT
ftp://garner.ucsd.edu                                       COMMENT
http://sopac.ucsd.edu                                       COMMENT
                                                            COMMENT
                                                            COMMENT
Approximate Lat, Lon : 41.653, -122.119                     COMMENT
                                                            COMMENT
SNR is mapped to RINEX snr flag value [0-9]                 COMMENT
L1 & L2: 2-19 dBHz = 1, 20-27 dBHz = 2, 28-31 dBHz = 3      COMMENT
32-35 dBHz = 4, 36-38 dBHz = 5, 39-41 dBHz = 6              COMMENT
42-44 dBHz = 7, 45-48 dBHz = 8, >= 49 dBHz = 9              COMMENT
  2004     9     7    20    58   30.0000000     GPS         TIME OF FIRST OBS
                                                            END OF HEADER
 04  9  7 20 58 30.0000000  0  6G 3G 8G13G16G23G27
   -154199.32457   -119560.78152  23303824.6414   23303824.7464

   -385922.37157   -343011.60553  23264433.0704   23264433.3714

     66354.61759     46180.83257  20256972.5234   20256969.9884

    718721.60256    541600.61752  23642459.1484   23642457.4734

    627891.61359    471325.26655  21281605.8674   21281601.9064

   -183507.96959   -142625.30155  21670613.9534   21670612.5744

 04  9  7 20 58 45.0000000  0  6G 3G 8G13G16G23G27
   -166362.54347   -129038.59842  23301510.2344   23301510.9694
       810.8814
   -416332.59448   -366707.84843  23258646.6024   23258646.9384
      2027.3484
     71527.75449     50211.83247  20257957.0704   20257954.8204
      -344.8764
    776196.31347    586386.05942  23653396.2194   23653394.5594
     -3831.6474
    670421.27749    504465.23845  21289699.0164   21289695.1174
     -2835.3114
   -195381.31249   -151877.25845  21668354.4694   21668353.2974
       791.5564
 04  9  7 20 59  0.0000000  0  6G 3G 8G13G16G23G27
   -178411.57047   -138427.43042  23299216.8834   23299217.9774
       803.2684
   -446702.23048   -390372.48843  23252866.9774   23252867.8094
      2024.6424
     76808.40249     54326.61747  20258961.5944   20258959.1644
      -352.0434
    833736.56347    631222.57042  23664346.0864   23664343.7544
     -3836.0174
    713044.48049    537678.09845  21297809.9064   21297806.2584
     -2841.5474
   -207205.68449   -161091.03546  21666104.1804   21666103.2304
       788.2914
 04  9  7 20 59 15.0000000  0  6G 3G 8G13G16G23G27
   -190345.25847   -147726.37542  23296946.2274   23296946.7274
       795.5794
   -477030.27348   -414004.70743  23247096.1644   23247095.8484
      2021.8704
     82197.42249     58525.84847  20259987.3754   20259984.5944
      -359.2684
    891342.84447    676110.53542  23675307.7344   23675306.6454
     -3840.4194
    755762.24249    570964.63745  21305938.5554   21305934.5634
     -2847.8514
   -218980.04349   -170265.86346  21663863.7114   21663862.1564
       784.9574
 04  9  7 20 59 30.0000000  0  6G 3G 8G13G16G23G27
   -202163.18447   -156935.12542  23294697.4534   23294697.4414
       787.8624
   -507316.90648   -437604.66443  23241333.0164   23241332.9734
      2019.1094
     87695.20349     62809.82847  20261033.4224   20261030.9654
      -366.5194
    949014.94547    721049.82442  23686282.9534   23686281.2624
     -3844.8074
    798574.46949    604324.78146  21314085.7344   21314081.7234
     -2854.1484
   -230704.45749   -179401.76246  21661632.3284   21661630.9384
       781.6284
 04  9  7 20 59 45.0000000  0  6G 3G 8G13G16G23G27
   -213863.89147   -166052.52042  23292469.7974   23292471.5354
       780.0474
   -537560.78147   -461171.29743  23235576.9384   23235577.5664
      2016.2584
     93302.78549     67179.36347  20262100.3674   20262098.4344
      -373.8394
   1006753.73847    766041.05942  23697270.2114   23697268.6214
     -3849.2534
    841482.27749    637759.41446  21322250.9774   21322247.0784
     -2860.5214
   -242377.70749   -188497.79746  21659411.3444   21659409.6954
       778.2174
 04  9  7 21  0  0.0000000  0  6G 3G 8G13G16G23G27
   -225447.55947   -175078.75042  23290266.4224   23290266.9344
       772.2454
   -567761.99247   -484704.68443  23229830.4224   23229830.4264
      2013.4144
     99020.32049     71634.58647  20263188.2894   20263186.3444
      -381.1694
   1064558.46946    811083.68442  23708269.8444   23708268.4454
     -3853.6494
    884485.14149    671268.10946  21330434.2664   21330430.0944
     -2866.8584
   -254000.32449   -197554.37546  21657199.3984   21657198.0004
       774.8414
 04  9  7 21  0 15.0000000  0  6G 3G 8G13G16G23G27
   -236913.21547   -184012.99642  23288084.9064   23288084.5124
       764.3774
   -597919.82848   -508204.28543  23224091.5864   23224091.8874
      2010.5224
    104848.52349     76176.03947  20264297.3204   20264295.1764
      -388.5474
   1122429.52047    856177.96542  23719282.5164   23719280.0554
     -3858.0704
    927583.75849    704851.41846  21338635.1954   21338631.5554
     -2873.2414
   -265571.53149   -206570.89546  21654997.1724   21654996.1724
       771.4144
 04  9  7 21  0 30.0000000  0  6G 3G 8G13G16G23G27
   -248258.85548   -192853.71942  23285925.3674   23285925.1214
       756.3764
   -628032.48048   -531668.66443  23218361.5634   23218361.3874
      2007.5104
    110789.19149     80805.11347  20265428.1724   20265425.8674
      -396.0454
   1180368.23047    901325.00042  23730308.2424   23730306.3524
     -3862.5814
    970779.60549    738510.49245  21346855.5704   21346851.9574
     -2879.7234
   -277089.62149   -215546.02346  21652805.7814   21652804.3954
       767.8734
 04  9  7 21  0 45.0000000  0  6G 3G 8G13G16G23G27
   -259485.28947   -201601.59042  23283789.1254   23283789.0984
       748.4294
   -658101.25848   -555098.85543  23212639.0314   23212639.4454
      2004.5854
    116841.29349     85521.03947  20266579.6484   20266577.2974
      -403.4734
   1238373.22747    946523.67642  23741345.6174   23741344.5514
     -3867.0004
   1014071.56649    772244.46945  21355093.5864   21355090.0084
     -2886.1314
   -288555.67249   -224480.59845  21650623.9614   21650622.3634
       764.4034
 04  9  7 21  1  0.0000000  0  6G 3G 8G13G16G23G27
   -270594.02047   -210257.71142  23281675.0704   23281675.0704
       740.5824
   -688128.02348   -578496.31643  23206925.4224   23206925.3634
      2001.7844
    123003.31349     90322.59847  20267752.2584   20267750.0634
      -410.8014
   1296442.41046    991772.34042  23752396.0234   23752394.9414
     -3871.2794
   1057457.93049    806052.00445  21363349.8364   21363346.1174
     -2892.4244
   -299971.60949   -233376.12946  21648451.1254   21648449.7544
       761.0634
 04  9  7 21  1 15.0000000  0  6G 3G 8G13G16G23G27
   -281581.51247   -218819.37542  23279584.6724   23279584.3914
       732.4994
   -718109.28948   -601858.32843  23201220.0554   23201220.2464
      1998.7514
    129278.57449     95212.41447  20268946.5944   20268944.0784
      -418.3514
   1354578.71147   1037073.31642  23763459.7974   23763457.6024
     -3875.7534
   1100941.72749    839935.46545  21371624.3364   21371620.9494
     -2898.9204
   -311334.15649   -242230.05945  21646288.9774   21646287.4884
       757.5034
 04  9  7 21  1 30.0000000  0  6G 3G 8G13G16G23G27
   -292448.43748   -227287.08242  23277516.9384   23277517.1604
       724.4624
   -748045.87148   -625185.52043  23195523.7974   23195523.8594
      1995.7724
    135666.32849    100189.87947  20270162.2734   20270160.0744
      -425.8504
   1412780.87546   1082425.63342  23774534.5784   23774533.2894
     -3880.1444
   1144521.88349    873893.99245  21379917.5394   21379914.2504
     -2905.3444
   -322644.15249   -251043.03945  21644136.7974   21644135.4844
       754.0004
 04  9  7 21  1 45.0000000  0  6G 3G 8G13G16G23G27
   -303195.84448   -235661.67642  23275471.5474   23275471.6804
       716.4944
   -777939.20348   -648479.00443  23189835.1414   23189834.8984
      1992.8894
    142165.32049    105254.02047  20271398.7344   20271396.5474
      -433.2664
   1471047.18046   1127827.90642  23785622.5864   23785620.9104
     -3884.4204
   1188197.06349    907926.58645  21388228.8284   21388224.7234
     -2911.6794
   -333903.07449   -259816.22345  21641994.7034   21641993.2424
       750.5954
 04  9  7 21  2  0.0000000  0  6G 3G 8G13G16G23G27
   -313821.91448   -243941.72342  23273449.0474   23273449.3594
       708.4054
   -807787.72748   -671737.59043  23184155.2814   23184154.7854
      1989.9024
    148777.12149    110406.06647  20272657.1254   20272654.3954
      -440.7874
   1529378.74647   1173281.05142  23796723.0784   23796720.5634
     -3888.7714
   1231968.58649    942034.23845  21396557.8204   21396554.0164
     -2918.1024
   -345109.40249   -268548.41845  21639861.9144   21639860.5704
       747.0894
 04  9  7 21  2 15.0000000  0  6G 3G 8G13G16G23G27
   -324330.02748   -252129.84042  23271450.1884   23271450.2894
       700.5414
   -837594.84448   -694963.89543  23178483.1254   23178482.7934
      1987.1414
    155498.44549    115643.45347  20273935.8834   20273933.5434
      -448.0884
   1587771.78147   1218782.09842  23807834.6724   23807832.6214
     -3892.8694
   1275832.88749    976214.19145  21404905.0864   21404901.3404
     -2924.2874
   -356266.63349   -277242.35945  21637739.0864   21637737.4494
       743.8154
 04  9  7 21  2 30.0000000  0  6G 3G 8G13G16G23G27
   -334719.20347   -260225.26642  23269472.6724   23269473.0784
       692.6124
   -867359.62548   -718157.21943  23172818.7814   23172818.4064
      1984.3194
    162330.02049    120966.75047  20275236.1884   20275233.8134
      -455.4384
   1646226.62946   1264331.31642  23818958.2814   23818956.0904
     -3896.9904
   1319790.59049   1010466.94145  21413269.6094   21413266.1174
     -2930.5144
   -367374.27349   -285897.65645  21635625.4304   21635623.5164
       740.5094
 04  9  7 21  2 45.0000000  0  6G 3G 8G13G16G23G27
   -344986.45346   -268225.69542  23267518.9614   23267518.5864
       684.4834
   -897079.65248   -741315.67643  23167162.9924   23167163.0234
      1981.3354
    169274.60949    126378.11347  20276557.5394   20276554.9964
      -462.9734
   1704745.63747   1309930.52042  23830093.9384   23830092.0164
     -3901.2674
   1363844.24249   1044794.44545  21421652.8834   21421649.9144
     -2936.9104
   -378429.61748   -294512.20346  21633521.3364   21633519.8794
       737.0234
 04  9  7 21  3  0.0000000  0  6G 3G 8G13G16G23G27
   -355133.17646   -276132.21542  23265588.4454   23265587.9304
       676.4484
   -926756.55948   -764440.51243  23161515.9304   23161515.9414
      1978.4604
    176330.68849    131876.35247  20277900.2504   20277897.8524
      -470.4054
   1763326.83647   1355578.14842  23841241.2734   23841239.6724
     -3905.4134
   1407991.99249   1079195.25045  21430054.0704   21430050.4304
     -2943.1834
   -389434.33249   -303087.29345  21631426.8594   21631425.5904
       733.6484
 04  9  7 21  3 15.0000000  0  6G 3G 8G13G16G23G27
   -365159.69548   -283945.07043  23263680.1884   23263680.1414
       668.4354
   -956391.04348   -787532.31643  23155876.6094   23155876.2304
      1975.6324
    183497.80949    137461.12147  20279264.0234   20279261.9924
      -477.8084
   1821969.20347   1401273.47342  23852400.7814   23852398.8014
     -3909.4914
   1452233.18449   1113668.89145  21438473.3134   21438469.0314
     -2949.4134
   -400388.99249   -311623.38745  21629342.6804   21629341.3954
       730.3114
 04  9  7 21  3 30.0000000  0  6G 3G 8G13G16G23G27
   -375065.60247   -291663.94142  23261794.7424   23261795.1644
       660.3944
   -985982.70347   -810590.73443  23150245.3284   23150245.1134
      1972.7774
    190776.25049    143132.63346  20280649.3364   20280646.7854
      -485.2294
   1880672.68447   1447016.41842  23863571.7974   23863570.4024
     -3913.5654
   1496567.98449   1148215.46945  21446909.4304   21446905.6764
     -2955.6534
   -411293.47349   -320120.37946  21627267.3834   21627266.3014
       726.9654
 04  9  7 21  3 45.0000000  0  6G 3G 8G13G16G23G27
   -384850.69947   -299288.68742  23259932.3444   23259932.4734
       652.3404
  -1015531.60947   -833615.84443  23144622.4454   23144622.3244
      1969.9274
    198166.10549    148890.95347  20282055.1484   20282053.1094
      -492.6574
   1939436.77347   1492806.59442  23874754.1954   23874752.4494
     -3917.6064
   1540996.14149   1182834.78945  21455364.3594   21455360.9024
     -2961.8774
   -422147.87149   -328578.34846  21625201.9384   21625200.4144
       723.6274
 04  9  7 21  4  0.0000000  0  6G 3G 8G13G16G23G27
   -394513.60947   -306818.19542  23258093.5704   23258093.9734
       644.1944
  -1045036.44947   -856606.60543  23139008.0234   23139007.9224
      1966.9894
    205668.58649    154737.03947  20283483.2504   20283480.8594
      -500.1654
   1998262.35546   1538644.68842  23885947.7734   23885946.5824
     -3921.7054
   1585518.64548   1217527.61346  21463836.4844   21463833.0784
     -2968.1674
   -432951.04349   -336996.40246  21623146.1724   21623144.9694
       720.2114
 04  9  7 21  4 15.0000000  0  6G 3G 8G13G16G23G27
   -404054.08247   -314252.32042  23256278.5864   23256279.0004
       636.0324
  -1074497.08647   -879562.93443  23133401.8204   23133402.0204
      1964.0424
    213283.94549    160671.08247  20284932.4144   20284930.0594
      -507.6914
   2057149.10546   1584530.41842  23897153.7344   23897152.4964
     -3925.7834
   1630135.56349   1252294.01645  21472326.7584   21472323.2894
     -2974.4614
   -443703.02749   -345374.56246  21621100.5314   21621098.5594
       716.7994
 04  9  7 21  4 30.0000000  0  6G 3G 8G13G16G23G27
   -413473.30547   -321591.95742  23254486.3444   23254486.3244
       627.9484
  -1103915.15247   -902486.08643  23127803.3364   23127803.9574
      1961.2044
    221010.75849    166691.96547  20286402.4614   20286400.1134
      -515.1214
   2116095.12547   1630462.35942  23908370.7814   23908369.6414
     -3929.7354
   1674845.17249   1287132.65646  21480834.6804   21480831.2034
     -2980.6414
   -454405.36349   -353714.03946  21619063.6484   21619061.9104
       713.4894
 04  9  7 21  4 45.0000000  0  6G 3G 8G13G16G23G27
   -422769.99247   -328836.11343  23252716.7894   23252718.1174
       619.7794
  -1133289.55147   -925375.21143  23122214.1024   23122214.2344
      1958.2934
    228850.18849    172800.61347  20287894.3364   20287892.2664
      -522.6294
   2175101.21147   1676441.08642  23919599.5314   23919598.0704
     -3933.7394
   1719648.55149   1322044.35246  21489360.7814   21489357.1644
     -2986.8924
   -465057.01249   -362014.01646  21617036.7734   21617035.3554
       710.1104
 04  9  7 21  5  0.0000000  0  6G 3G 8G13G16G23G27
   -431944.90248   -335985.37143  23250971.0004   23250971.8984
       611.6614
  -1162621.44547   -948231.22743  23116632.4924   23116632.3244
      1955.4604
    236801.23049    178996.23447  20289407.4144   20289405.0354
      -530.0704
   2234165.94947   1722465.55542  23930839.1954   23930837.7074
     -3937.6494
   1764544.48049   1357028.16046  21497904.4774   21497900.6844
     -2993.0624
   -475658.99249   -370275.29346  21615019.2734   21615017.6804
       706.7994
 04  9  7 21  5 15.0000000  0  6G 3G 8G13G16G23G27
   -440997.34448   -343039.21942  23249248.8204   23249248.6054
       603.4964
  -1191909.99247   -971053.45343  23111058.8524   23111058.8094
      1952.5704
    244864.45349    185279.25847  20290941.7274   20290939.3014
      -537.5484
   2293289.58247   1768535.88742  23942090.5864   23942088.5744
     -3941.5764
   1809533.23849   1392084.30545  21506465.5864   21506461.5594
     -2999.2514
   -486210.90649   -378497.56246  21613011.2194   21613009.5594
       703.4614
 04  9  7 21  5 30.0000000  0  6G 3G 8G13G16G23G27
   -449927.18047   -349997.50842  23247548.9534   23247549.1994
       595.3224
  -1221155.51247   -993842.14843  23105493.1334   23105493.4144
      1949.7014
    253039.96949    191649.78147  20292497.5234   20292495.0124
      -545.0344
   2352471.63747   1814651.73842  23953352.3984   23953350.5944
     -3945.4704
   1854614.76649   1427212.74245  21515044.1644   21515040.1254
     -3005.4354
   -496712.86749   -386680.89846  21611012.9224   21611010.9304
       700.1314
 04  9  7 21  5 45.0000000  0  6G 3G 8G13G16G23G27
   -458733.52748   -356859.58242  23245873.6094   23245873.6414
       587.0904
  -1250357.32047  -1016596.78143  23099936.5784   23099936.6024
      1946.7874
    261328.53549    198108.40647  20294074.7734   20294072.3404
      -552.5714
   2411712.27347   1860813.25042  23964625.5634   23964623.3714
     -3949.3764
   1899789.62549   1462413.91445  21523640.8364   21523636.5594
     -3011.6574
   -507164.17649   -394824.77346  21609024.1724   21609022.4144
       696.7544
 04  9  7 21  6  0.0000000  0  6G 3G 8G13G16G23G27
   -467417.00448   -363625.91842  23244220.6724   23244220.6334
       578.8984
  -1279516.32847  -1039318.08243  23094387.6884   23094387.2934
      1943.9344
    269729.29349    204654.44947  20295673.3524   20295670.8054
      -560.0514
   2471010.37947   1907019.52342  23975909.9694   23975907.7504
     -3953.2074
   1945056.58249   1497686.83245  21532254.5864   21532250.4654
     -3017.7974
   -517565.98449   -402930.07446  21607044.3054   21607043.2934
       693.4544
 04  9  7 21  6 15.0000000  0  6G 3G 8G13G16G23G27
   -475975.50047   -370294.85543  23242592.6724   23242592.0704
       570.5664
  -1308630.69947  -1062004.59443  23088847.5634   23088847.5234
      1940.9584
    278244.09849    211289.35547  20297293.7194   20297291.4614
      -567.6544
   2530367.31347   1953271.64842  23987205.0474   23987202.7974
     -3957.1294
   1990417.50049   1533032.97746  21540886.7584   21540882.9804
     -3024.0614
   -527916.42649   -410995.34446  21605075.1644   21605073.8554
       690.0294
 04  9  7 21  6 30.0000000  0  6G 3G 8G13G16G23G27
   -484411.34048   -376868.23443  23240987.1174   23240986.6254
       562.3894
  -1337702.84047  -1084658.18443  23083315.0084   23083315.5514
      1938.1434
    286870.62549    218011.31346  20298935.2584   20298932.8134
      -575.1024
   2589780.32047   1999567.45742  23998510.7504   23998509.3284
     -3960.8674
   2035869.71949   1568450.26245  21549535.7424   21549532.1524
     -3030.1484
   -538217.97349   -419022.51646  21603114.4774   21603113.0204
       686.7704
 04  9  7 21  6 45.0000000  0  6G 3G 8G13G16G23G27
   -492724.91448   -383346.33242  23239405.6954   23239405.1954
       554.2384
  -1366733.46547  -1107279.43443  23077790.5234   23077791.0204
      1935.3754
    295608.26649    224819.86747  20300598.0474   20300595.7734
      -582.5094
   2649248.31647   2045906.11742  24009826.6954   24009826.0904
     -3964.5334
   2081412.52049   1603938.12945  21558202.6414   21558198.6134
     -3036.1874
   -548471.36349   -427012.16046  21601163.2814   21601162.0744
       683.5594
 04  9  7 21  7  0.0000000  0  6G 3G 8G13G16G23G27
   -500914.88348   -389728.10542  23237846.6254   23237846.9614
       545.9984
  -1395721.29747  -1129867.34043  23072274.7114   23072275.3954
      1932.5224
    304458.43049    231716.09047  20302281.9694   20302279.7774
      -590.0114
   2708772.23847   2092288.39142  24021154.1724   24021152.8444
     -3968.2614
   2127046.82049   1639497.29345  21566886.3984   21566882.3634
     -3042.2874
   -558675.44549   -434963.39146  21599221.3914   21599219.7344
       680.2724
 04  9  7 21  7 15.0000000  0  6G 3G 8G13G16G23G27
   -508980.28147   -396012.83242  23236311.8054   23236311.9064
       537.6934
  -1424665.52047  -1152421.25843  23066766.5394   23066766.8164
      1929.6154
    313421.84049    238700.55547  20303987.9924   20303985.3754
      -597.5614
   2768352.42247   2138714.45742  24032491.8444   24032491.0234
     -3972.0124
   2172773.26649   1675128.27345  21575587.8914   21575583.9694
     -3048.4304
   -568829.55949   -442875.68446  21597289.4144   21597287.9304
       676.9414
 04  9  7 21  7 30.0000000  0  6G 3G 8G13G16G23G27
   -516918.08647   -402198.12942  23234800.8284   23234801.3054
       529.1874
  -1453563.25047  -1174938.94143  23061267.1484   23061267.9384
      1926.5154
    322501.44549    245775.57447  20305715.9144   20305713.2194
      -605.3074
   2827991.31647   2185186.31342  24043841.3524   24043840.1564
     -3975.9264
   2218594.56649   1710833.16845  21584306.9144   21584303.6054
     -3054.7534
   -578930.96149   -450746.90246  21595366.9454   21595365.1644
       673.4274
 04  9  7 21  7 45.0000000  0  6G 3G 8G13G16G23G27
   -524729.86347   -408285.21542  23233314.7114   23233314.5204
       520.7854
  -1482416.35247  -1197421.86343  23055777.1414   23055777.0594
      1923.5404
    331695.64549    252939.87547  20307465.2814   20307462.9454
      -612.9474
   2887686.82447   2231702.24642  24055200.4924   24055199.5554
     -3979.7014
   2264508.86749   1746610.51646  21593044.1804   21593040.9024
     -3060.9534
   -588981.38349   -458578.39546  21593454.3364   21593453.1094
       670.0284
 04  9  7 21  8  0.0000000  0  6G 3G 8G13G16G23G27
   -532416.36348   -414274.66842  23231852.2114   23231851.5784
       512.4334
  -1511225.71947  -1219870.71543  23050294.8594   23050294.9024
      1920.6244
    341003.41449    260192.68846  20309236.4844   20309234.1724
      -620.5184
   2947437.58247   2278261.25442  24066570.7584   24066569.6994
     -3983.3844
   2310514.91049   1782459.34845  21601799.0784   21601795.3444
     -3067.0704
   -598981.82049   -466370.94546  21591551.5004   21591550.2894
       666.6964
 04  9  7 21  8 15.0000000  0  6G 3G 8G13G16G23G27
   -539977.30548   -420166.29343  23230413.0084   23230412.3954
       504.0634
  -1539991.45348  -1242285.55143  23044821.4064   23044820.6214
      1917.7164
    350424.82049    267534.03147  20311029.3914   20311026.9574
      -628.0944
   3007243.29747   2324863.06342  24077951.2664   24077950.1024
     -3987.0484
   2356612.62149   1818379.61745  21610571.0784   21610567.2974
     -3073.1814
   -608932.49249   -474124.71146  21589657.6414   21589656.5864
       663.3784
 04  9  7 21  8 30.0000000  0  6G 3G 8G13G16G23G27
   -547413.60547   -425960.79742  23228997.8674   23228997.5394
       495.7534
  -1568714.62147  -1264667.21143  23039355.0164   23039355.2814
      1914.8784
    359958.93049    274963.19947  20312843.4844   20312841.0634
      -635.6074
   3067102.49247   2371506.57042  24089342.3054   24089341.2734
     -3990.6134
   2402800.88749   1854370.45345  21619360.1094   21619356.8714
     -3079.2184
   -618834.30149   -481840.39846  21587773.4694   21587772.4104
       660.1214
 04  9  7 21  8 45.0000000  0  6G 3G 8G13G16G23G27
   -554723.13747   -431656.52043  23227606.7664   23227607.3674
       487.3024
  -1597393.14548  -1287014.09843  23033897.3754   23033897.3094
      1911.9024
    369607.84849    282481.83647  20314679.7664   20314676.8014
      -643.2614
   3127016.74247   2418192.96142  24100743.5234   24100741.9454
     -3994.2834
   2449081.50049   1890433.24245  21628167.5944   21628164.0514
     -3085.3744
   -628685.44149   -489516.61346  21585899.1724   21585897.8404
       656.7434
 04  9  7 21  9  0.0000000  0  6G 3G 8G13G16G23G27
   -561905.99647   -437253.54342  23226239.9694   23226240.2624
       478.8574
  -1626027.58648  -1309326.62143  23028448.9064   23028448.4224
      1908.9634
    379371.24249    290089.66847  20316537.7504   20316534.9184
      -650.8934
   3186985.32047   2464921.71142  24112155.1334   24112153.7934
     -3997.9054
   2495453.92649   1926567.57045  21636991.6954   21636988.5234
     -3091.4954
   -638486.33249   -497153.66846  21584034.1484   21584032.8714
       653.3934
 04  9  7 21  9 15.0000000  0  6G 3G 8G13G16G23G27
   -568962.27747   -442751.92243  23224897.3284   23224897.5634
       470.4194
  -1654617.89548  -1331604.75843  23023007.7814   23023007.7344
      1906.0214
    389248.85549    297786.50447  20318417.0004   20318414.9414
      -658.5084
   3247007.61747   2511692.28142  24123577.2584   24123575.3164
     -4001.4864
   2541917.64549   1962773.03145  21645833.7584   21645829.6954
     -3097.5814
   -648237.27749   -504751.80946  21582178.5634   21582177.1644
       650.0634
 04  9  7 21  9 30.0000000  0  6G 3G 8G13G16G23G27
   -575891.92648   -448151.63742  23223578.3524   23223579.0904
       461.9774
  -1683164.48048  -1353848.82043  23017575.9614   23017575.5434
      1903.1064
    399240.71949    305572.37547  20320318.6564   20320316.3484
      -666.1244
   3307083.32047   2558504.48842  24135009.1254   24135007.4534
     -4005.0474
   2588472.53949   1999049.55545  21654692.8204   21654688.9344
     -3103.6604
   -657938.48449   -512311.18046  21580332.7194   21580330.9654
       646.7474
 04  9  7 21  9 45.0000000  0  7G 3G19G 8G13G16G23G27
   -582695.39847   -453453.01243  23222283.4774   23222284.4884
       453.5654
    -88194.00457    -62064.68452  24288555.0234   24288554.8714

  -1711668.11748  -1376059.41843  23012151.7734   23012151.6484
      1900.2424
    409346.12549    313446.70747  20322241.7734   20322239.7664
      -673.6944
   3367211.13347   2605357.32042  24146451.2974   24146449.0204
     -4008.5214
   2635117.72349   2035396.42645  21663568.9454   21663564.9414
     -3109.6794
   -667590.78549   -519832.46146  21578495.7814   21578494.5904
       643.4874
 04  9  7 21 10  0.0000000  0  7G 3G19G 8G13G16G23G27
   -589371.16048   -458654.88343  23221013.5394   23221014.0634
       445.0514
   -118016.96547    -85303.28942  24282880.1484   24282879.7304
      1988.1974
  -1740127.25048  -1398235.32843  23006736.3914   23006736.1024
      1897.2764
    419566.44949    321410.59847  20324186.6024   20324184.6724
      -681.3554
   3427392.12147   2652251.57842  24157903.2274   24157901.2304
     -4012.0664
   2681854.32449   2071814.52745  21672462.9384   21672459.1844
     -3115.7734
   -677192.86349   -527314.58646  21576668.5554   21576667.1724
       640.1394
 04  9  7 21 10 15.0000000  0  7G 3G19G 8G13G16G23G27
   -595921.01648   -463758.66843  23219767.3284   23219767.7034
       436.6574
   -147798.44147   -108509.60542  24277213.1804   24277211.4024
      1985.4324
  -1768543.98848  -1420378.23443  23001328.9614   23001327.8874
      1894.4494
    429899.85249    329462.58647  20326153.1094   20326150.7154
      -688.8934
   3487623.89547   2699185.37942  24169364.5944   24169363.5084
     -4015.4524
   2728680.28549   2108302.26245  21681373.5394   21681370.0234
     -3121.7314
   -686746.70349   -534759.14146  21574850.5314   21574848.8404
       636.9234
 04  9  7 21 10 30.0000000  0  7G 3G19G 8G13G16G23G27
   -602345.77347   -468764.96543  23218544.4064   23218544.8364
       428.3174
   -177539.00046   -131684.05942  24271552.7274   24271552.2464
      1982.7044
  -1796919.15648  -1442488.72343  22995929.2424   22995929.2664
      1891.6784
    440345.37549    337601.94947  20328140.7114   20328138.1254
      -696.3684
   3547905.07847   2746157.71142  24180835.6024   24180835.2154
     -4018.7464
   2775594.46149   2144858.73845  21690301.0084   21690297.2304
     -3127.6124
   -696253.36749   -542166.93046  21573041.6954   21573039.9024
       633.7784
 04  9  7 21 10 45.0000000  0  7G 3G19G 8G13G16G23G27
   -608643.82847   -473672.52742  23217345.8284   23217346.9694
       419.8704
   -207237.07046   -154825.32842  24265901.3444   24265901.4304
      1979.8714
  -1825251.60548  -1464565.93443  22990537.4454   22990537.3364
      1888.8304
    450904.42649    345829.77747  20330149.9144   20330147.6844
      -703.9374
   3608236.68447   2793169.32842  24192316.7734   24192315.5554
     -4022.1074
   2822597.97749   2181484.83645  21699245.4304   21699241.5944
     -3133.5684
   -705711.66449   -549537.02746  21571241.7424   21571239.7814
       630.5534
 04  9  7 21 11  0.0000000  0  7G 3G19G 8G13G16G23G27
   -614814.07047   -478480.48443  23216171.5394   23216172.0354
       411.3494
   -236891.24246   -177932.43042  24260258.6724   24260259.1024
      1976.9454
  -1853540.14148  -1486608.91043  22985154.2344   22985154.0434
      1885.9024
    461578.18449    354146.97747  20332181.2974   20332178.7774
      -711.5844
   3668619.36347   2840220.71942  24203807.3674   24203806.3634
     -4025.5124
   2869691.67249   2218181.18845  21708207.1094   21708203.3404
     -3139.5804
   -715120.53949   -556868.60946  21569451.0004   21569449.4614
       627.2584
 04  9  7 21 11 15.0000000  0  7G 3G19G 8G13G16G23G27
   -620856.55547   -483188.89843  23215021.9774   23215022.4804
       402.8324
   -266501.56647   -201005.36742  24254623.8284   24254624.2034
      1974.0224
  -1881785.19947  -1508618.01644  22979779.3754   22979779.5434
      1883.0044
    472366.41449    362553.38747  20334234.2114   20334231.8984
      -719.2154
   3729052.55147   2887311.46542  24215307.4224   24215306.7624
     -4028.8794
   2916875.09449   2254947.47345  21717186.0944   21717182.2544
     -3145.5614
   -724480.27749   -564161.91846  21567669.7034   21567668.3834
       623.9834
 04  9  7 21 11 30.0000000  0  7G 3G19G 8G13G16G23G27
   -626769.98848   -487796.75043  23213896.7194   23213896.8244
       394.2294
   -296066.57847   -224042.96542  24248997.5314   24248998.3014
      1971.0014
  -1909985.81648  -1530592.50444  22974413.1484   22974413.2734
      1880.0414
    483270.19949    371049.83247  20336309.2274   20336306.9884
      -726.9194
   3789536.76247   2934442.00042  24226817.0704   24226816.8634
     -4032.2814
   2964149.18849   2291784.39845  21726181.7814   21726178.5394
     -3151.6064
   -733790.00049   -571416.25046  21565898.3594   21565896.9414
       620.6484
 04  9  7 21 11 45.0000000  0  7G 3G19G 8G13G16G23G27
   -632554.60547   -492304.21942  23212795.7424   23212795.8284
       385.6414
   -325586.25847   -247045.25442  24243380.1954   24243380.2234
      1967.9794
  -1938142.12548  -1552532.44943  22969055.1804   22969055.2034
      1877.0874
    494289.18849    379636.05947  20338405.8914   20338403.8444
      -734.5994
   3850071.41447   2981611.80542  24238337.2894   24238336.0164
     -4035.6434
   3011513.41449   2328691.55945  21735195.3134   21735191.6524
     -3157.6154
   -743050.12549   -578631.93746  21564136.4304   21564135.1644
       617.3424
 04  9  7 21 12  0.0000000  0  7G 3G19G 8G13G16G23G27
   -638208.73048   -496710.00842  23211719.8834   23211719.4144
       376.9424
   -355058.88747   -270010.87143  24237772.3284   24237772.4844
      1964.8424
  -1966252.39847  -1574436.53544  22963706.1884   22963705.6054
      1874.0184
    505424.98049    388313.29747  20340524.9224   20340522.5744
      -742.3864
   3910657.53547   3028821.74242  24249865.4614   24249865.2114
     -4039.0754
   3058969.19149   2365670.05545  21744225.3524   21744221.5984
     -3163.7184
   -752259.09849   -585807.75446  21562383.9304   21562382.6054
       613.9324
 04  9  7 21 12 15.0000000  0  7G 3G19G 8G13G16G23G27
   -643733.00047   -501014.62142  23210668.7734   23210668.2424
       368.2854
   -384485.00447   -292940.25443  24232172.9304   24232172.3094
      1961.7414
  -1994318.00048  -1596305.78944  22958365.7584   22958364.6374
      1871.0404
    516676.73849    397080.90247  20342665.9144   20342663.7464
      -750.1174
   3971293.99247   3076070.89542  24261404.2034   24261403.7154
     -4042.4304
   3106515.41849   2402719.04745  21753273.2424   21753269.1524
     -3169.7484
   -761418.04749   -592944.59846  21560640.8984   21560639.7544
       610.5974
 04  9  7 21 12 30.0000000  0  7G 3G19G 8G13G16G23G27
   -649128.43747   -505218.84042  23209641.7734   23209641.4304
       359.6964
   -413865.44947   -315834.03943  24226582.0784   24226581.8594
      1958.6964
  -2022340.18048  -1618141.24644  22953032.7504   22953032.7074
      1868.1454
    528043.43449    405938.05547  20344829.0004   20344826.5744
      -757.7804
   4031979.24247   3123358.07042  24272952.9384   24272951.9414
     -4045.6834
   3154150.85249   2439837.53945  21762337.9694   21762334.5594
     -3175.6964
   -770527.91049   -600043.19146  21558907.3674   21558905.8284
       607.3244
 04  9  7 21 12 45.0000000  0  7G 3G19G 8G13G16G23G27
   -654393.52347   -509321.48442  23208640.0084   23208639.1174
       351.0064
   -443198.42247   -338690.84842  24221000.2504   24220999.4304
      1955.5324
  -2050317.26648  -1639941.53544  22947708.9454   22947707.9654
      1865.1394
    539526.44149    414885.85247  20347014.1254   20347011.7504
      -765.5344
   4092714.28947   3170684.04742  24284509.8984   24284509.2464
     -4049.0034
   3201876.57449   2477026.38345  21771419.6884   21771416.4454
     -3181.7154
   -779587.65249   -607102.72346  21557183.2664   21557181.9144
       603.9834
 04  9  7 21 13  0.0000000  0  7G 3G19G 8G13G16G23G27
   -659527.70747   -513322.14142  23207663.1724   23207662.4884
       342.2794
   -472483.23047   -361510.13343  24215427.6804   24215426.3834
      1952.3214
  -2078248.88748  -1661706.41443  22942393.6884   22942393.2774
      1862.1084
    551126.20349    423924.61747  20349221.3054   20349219.2894
      -773.3174
   4153499.11347   3218048.80142  24296077.1724   24296075.9454
     -4052.3224
   3249692.88348   2514285.80945  21780518.7504   21780515.7504
     -3187.7544
   -788596.81249   -614122.84446  21555468.9924   21555467.4774
       600.6114
 04  9  7 21 13 15.0000000  0  7G 3G19G 8G13G16G23G27
   -664531.58647   -517221.23442  23206711.2034   23206710.7074
       333.5924
   -501720.48447   -384292.32442  24209863.3524   24209863.0434
      1949.1504
  -2106135.98048  -1683436.58244  22937086.7504   22937086.4414
      1859.1404
    562841.76249    433053.62147  20351450.7894   20351448.5314
      -781.0374
   4214332.40647   3265451.33642  24307653.0554   24307652.6524
     -4055.5534
   3297598.66849   2551614.95745  21789635.4774   21789631.9494
     -3193.7194
   -797556.50049   -621104.41846  21553764.0314   21553762.4454
       597.3134
 04  9  7 21 13 30.0010000  0  7G 3G19G 8G13G16G23G27
   -669405.64847   -521019.17643  23205783.4034   23205783.3994
       324.9384
   -530912.18047   -407039.05142  24204308.4504   24204307.0994
      1946.1134
  -2133980.85548  -1705133.86344  22931787.7864   22931787.4784
      1856.3254
    574673.84449    442273.41447  20353702.7164   20353700.1734
      -788.8054
   4275217.68847   3312894.36742  24319239.5444   24319238.5214
     -4059.0194
   3345596.71149   2589016.00445  21798768.6924   21798765.5954
     -3199.8704
   -806467.50049   -628048.05546  21552068.4354   21552066.8064
       594.0674
 04  9  7 21 13 45.0010000  0  7G 3G19G 8G13G16G23G27
   -674146.94147   -524713.68442  23204880.8494   23204881.1964
       316.0864
   -560052.01246   -429745.34042  24198763.3334   24198762.1034
      1942.6554
  -2161777.59448  -1726793.61743  22926498.6224   22926498.3964
      1853.1164
    586623.08249    451584.50847  20355976.7244   20355973.5954
      -796.6164
   4336148.61347   3360372.98042  24330834.1304   24330833.5714
     -4062.0624
   3393682.52348   2626485.44945  21807919.7394   21807916.4894
     -3205.7214
   -815326.64549   -634951.27346  21550382.2084   21550380.5754
       590.6104
 04  9  7 21 14  0.0010000  0  7G 3G19G 8G13G16G23G27
   -678757.93747   -528306.65643  23204003.6464   23204004.0604
       307.4004
   -589143.66046   -452414.10942  24193226.4194   24193225.1924
      1939.4434
  -2189530.31648  -1748419.09044  22921217.1464   22921216.7084
      1850.1824
    598688.04749    460985.77347  20358272.3644   20358269.8534
      -804.3314
   4397126.46946   3407888.17642  24342437.4894   24342437.3994
     -4065.1904
   3441857.03948   2664024.00045  21817086.6384   21817083.5954
     -3211.6344
   -824136.78149   -641816.31246  21548705.9034   21548704.5014
       587.3424
 04  9  7 21 14 15.0010000  0  7G 3G19G 8G13G16G23G27
   -683238.19548   -531797.74243  23203151.3724   23203151.6104
       298.6844
   -618186.71547   -475045.01642  24187700.2944   24187698.1884
      1936.2044
  -2217238.64548  -1770009.95343  22915944.5674   22915944.3604
      1847.2224
    610868.92649    470477.35947  20360590.3494   20360588.0324
      -812.0594
   4458151.26246   3455439.91442  24354050.9504   24354049.7164
     -4068.3204
   3490120.09849   2701631.55545  21826270.9274   21826267.8294
     -3217.5374
   -832897.71549   -648643.01646  21547038.9584   21547037.3494
       584.0624
 04  9  7 21 14 30.0010000  0  7G 3G19G 8G13G16G23G27
   -687586.21147   -535185.79743  23202323.5994   23202323.5754
       289.8684
   -647179.39847   -497636.66042  24182183.0364   24182180.8884
      1932.8464
  -2244901.31648  -1791565.24643  22910680.6694   22910679.8104
      1844.1784
    623167.14149    480060.38347  20362930.4814   20362928.4704
      -819.8814
   4519223.98046   3503029.00442  24365672.2394   24365671.3494
     -4071.5154
   3538473.05149   2739309.15645  21835472.5834   21835468.8134
     -3223.5304
   -841608.12549   -655430.33646  21545381.4974   21545379.8174
       580.6944
 04  9  7 21 14 45.0010000  0  7G 3G19G 8G13G16G23G27
   -691801.41448   -538470.35243  23201521.4974   23201521.5054
       281.0144
   -676120.98847   -520188.45742  24176676.5604   24176674.2084
      1929.4394
  -2272517.96948  -1813084.69943  22905425.0134   22905424.4934
      1841.1104
    635583.19549    489735.22747  20365293.5134   20365290.7514
      -827.7374
   4580344.65246   3550655.47342  24377303.2084   24377302.2204
     -4074.7114
   3586916.13748   2777056.99245  21844690.4194   21844687.3254
     -3229.5394
   -850267.76649   -662178.10946  21543733.3414   21543731.9354
       577.3094
 04  9  7 21 15  0.0010000  0  7G 3G19G 8G13G16G23G27
   -695883.37947   -541651.08642  23200744.7394   23200744.9974
       272.1314
   -705010.95747   -542700.06642  24171177.8334   24171175.9624
      1925.9984
  -2300088.26648  -1834568.02043  22900178.6854   22900178.2594
      1838.0204
    648117.28149    499502.03547  20367678.2864   20367675.9784
      -835.6064
   4641513.12546   3598319.19542  24388943.2554   24388942.0674
     -4077.8984
   3635449.30949   2814875.02345  21853926.0674   21853922.6144
     -3235.5454
   -858876.43749   -668886.15246  21542095.2084   21542093.5174
       573.9114
 04  9  7 21 15 15.0010000  0  7G 3G19G 8G13G16G23G27
   -699831.53948   -544727.55542  23199993.2164   23199993.5674
       263.2114
   -733848.64147   -565170.91842  24165690.5364   24165689.0244
      1922.5124
  -2327611.84448  -1856014.92643  22894941.3024   22894940.9934
      1834.9054
    660769.98849    509361.28546  20370085.9114   20370083.7594
      -843.5144
   4702729.41046   3646020.15242  24400592.8174   24400592.2284
     -4081.0864
   3684072.91449   2852763.52345  21863178.7314   21863175.7634
     -3241.5744
   -867433.83649   -675554.25846  21540466.7784   21540464.9384
       570.4934
 04  9  7 21 15 30.0010000  0  7G 3G19G 8G13G16G23G27
   -703646.93747   -547700.57442  23199266.5284   23199267.4704
       254.3604
   -762634.79347   -587601.66042  24160212.4424   24160210.7944
      1919.0774
  -2355090.00448  -1877426.45343  22889712.0834   22889711.4314
      1831.8774
    673540.15249    519312.05947  20372515.7554   20372513.6814
      -851.3444
   4763991.96546   3693757.16842  24412249.9584   24412249.2124
     -4084.1704
   3732785.54349   2890721.38745  21872448.9814   21872445.7474
     -3247.5094
   -875941.14549   -682183.32046  21538847.8334   21538846.3604
       567.1544
 04  9  7 21 15 45.0010000  0  7G 3G19G 8G13G16G23G27
   -707331.19148   -550571.38742  23198566.4504   23198565.2124
       245.6174
   -791370.77747   -609993.27342  24154744.0364   24154743.3494
      1915.7324
  -2382524.21148  -1898803.72743  22884491.9584   22884491.2714
      1828.9474
    686426.14549    529353.09047  20374968.5134   20374966.0404
      -859.0664
   4825298.85246   3741528.72742  24423916.1064   24423915.6494
     -4087.1264
   3781585.38749   2928747.20745  21881735.2314   21881731.4784
     -3253.3234
   -884400.12549   -688774.73446  21537238.0754   21537236.5484
       563.9324
 04  9  7 21 16  0.0010000  0  7G 3G19G 8G13G16G23G27
   -710883.34847   -553339.27342  23197890.2944   23197890.2514
       236.8104
   -820055.65647   -632345.03143  24149285.6224   24149285.5134
      1912.3254
  -2409914.01648  -1920146.39843  22879279.5604   22879278.8994
      1825.9874
    699428.59849    539484.86347  20377442.7314   20377440.5174
      -866.8304
   4886650.20746   3789334.95342  24435591.5524   24435589.6924
     -4090.0904
   3830472.90648   2966841.35545  21891037.8174   21891034.3294
     -3259.1684
   -892810.18749   -695328.01646  21535637.1774   21535636.4034
       560.6714
 04  9  7 21 16 15.0010000  0  7G 3G19G 8G13G16G23G27
   -714303.30948   -556004.15243  23197239.7784   23197239.2944
       227.9974
   -848689.13747   -654656.76243  24143836.6614   24143835.9354
      1908.8994
  -2437259.50448  -1941454.55543  22874075.5214   22874075.2864
      1823.0334
    712547.60549    549707.46947  20379938.8724   20379936.6104
      -874.6014
   4948045.75847   3837175.59042  24447274.6854   24447272.8564
     -4093.0374
   3879447.86749   3005003.63345  21900357.6774   21900353.8644
     -3264.9974
   -901171.37549   -701843.22746  21534046.8254   21534045.4194
       557.4134
 04  9  7 21 16 30.0010000  0  7G 3G19G 8G13G16G23G27
   -717590.99247   -558565.96943  23196613.6224   23196613.9034
       219.1794
   -877270.93747   -676928.23443  24138398.4194   24138396.6964
      1905.4534
  -2464560.83648  -1962728.28543  22868880.6144   22868880.2284
      1820.0894
    725783.10249    560020.83647  20382457.6064   20382454.7824
      -882.3664
   5009485.05146   3885050.35942  24458966.1614   24458964.9934
     -4095.9534
   3928510.06649   3043233.89145  21909693.9034   21909690.5634
     -3270.8134
   -909483.95349   -708320.54746  21532464.8724   21532463.3764
       554.1724
 04  9  7 21 16 45.0010000  0  6G 3G19G 8G13G23G27
   -720747.05548   -561025.22343  23196013.7004   23196013.6304
       210.4044
   -905801.73847   -699159.95743  24132968.7554   24132967.4704
      1902.0534
  -2491818.62148  -1983968.07443  22863693.9034   22863693.2354
      1817.1864
    739134.32449    570424.37547  20384998.4274   20384996.1034
      -890.0824
   3977658.43449   3081531.29345  21919046.3804   21919043.0714
     -3276.5584
   -917748.69149   -714760.60246  21530892.3254   21530890.7394
       550.9834
 04  9  7 21 17  0.0010000  0  6G 3G19G 8G13G23G27
   -723768.61747   -563379.66843  23195438.1694   23195438.7434
       201.4384
   -934278.44147   -721349.53143  24127549.7004   24127548.6224
      1898.4474
  -2519030.25848  -2005171.92244  22858515.2784   22858514.6344
      1814.1094
    752603.94949    580920.18447  20387561.4424   20387559.2124
      -897.9754
   4026895.63349   3119897.91445  21928415.8334   21928412.3994
     -3282.4804
   -925963.01249   -721161.36346  21529329.2004   21529327.0014
       547.6214
 04  9  7 21 17 15.0010000  0  6G 3G19G 8G13G23G27
   -726656.39848   -565629.85943  23194888.8414   23194888.5244
       192.5194
   -962701.45747   -743497.27342  24122140.5214   24122139.8174
      1894.8684
  -2546196.75848  -2026340.58643  22853345.8414   22853344.8414
      1811.1004
    766191.29349    591507.71947  20390147.3724   20390144.7864
      -905.8234
   4076220.62149   3158332.94145  21937802.5054   21937798.7634
     -3288.3334
   -934127.74649   -727523.49646  21527775.1144   21527773.4504
       544.3164
 04  9  7 21 17 30.0010000  0  6G 3G19G 8G13G23G27
   -729409.80147   -567775.35242  23194364.2084   23194363.7434
       183.5604
   -991070.11746   -765602.63742  24116741.9274   24116741.6464
      1891.2444
  -2573317.46948  -2047473.58243  22848184.7784   22848183.6814
      1808.0474
    779896.72349    602187.26647  20392755.1534   20392752.6654
      -913.6954
   4125633.48049   3196836.44145  21947205.9274   21947201.1464
     -3294.1914
   -942242.60949   -733846.76246  21526231.2554   21526229.2904
       540.9914
 04  9  7 21 17 45.0010000  0  6G 3G19G 8G13G23G27
   -732025.55147   -569813.58242  23193866.5284   23193866.2434
       174.3834
  -1019380.92647   -787662.93743  24111355.4584   24111353.6224
      1887.3874
  -2600389.29348  -2068568.47743  22843033.3024   22843032.2314
      1804.7884
    793723.38749    612961.27747  20395386.4354   20395384.3804
      -921.7784
   4175137.22349   3235410.77345  21956625.4274   21956621.4354
     -3300.2494
   -950304.43749   -740128.69546  21524696.8644   21524695.8024
       537.4554
 04  9  7 21 18  0.0010000  0  6G 3G19G 8G13G23G27
   -734506.69548   -571746.93743  23193394.5364   23193394.9584
       165.4104
  -1047636.75047   -809680.38342  24105977.5674   24105976.8924
      1883.7224
  -2627415.43448  -2089627.78944  22837890.0364   22837889.5214
      1801.7434
    807668.30149    623827.44147  20398040.0994   20398037.3254
      -929.6614
   4224728.55549   3274053.33245  21966062.3884   21966059.0714
     -3306.0894
   -958316.56649   -746371.91446  21523172.0134   21523171.2554
       534.1424
 04  9  7 21 18 15.0010000  0  6G 3G19G 8G13G23G27
   -736851.95748   -573574.41043  23192948.6224   23192948.4354
       156.3514
  -1075836.16847   -831653.91042  24100611.7864   24100609.7244
      1879.9614
  -2654394.65648  -2110650.52344  22832756.0524   22832755.5954
      1798.6154
    821732.56349    634786.60947  20400716.3494   20400713.7944
      -937.6174
   4274408.48849   3312764.93445  21975516.4664   21975512.8884
     -3311.9964
   -966277.92249   -752575.55546  21521657.1854   21521655.7674
       530.7574
 04  9  7 21 18 30.0010000  0  6G 3G19G 8G13G23G27
   -739061.96947   -575296.48843  23192527.5284   23192528.1424
       147.3344
  -1103979.68747   -853583.87142  24095256.4194   24095254.4504
      1876.2354
  -2681327.89548  -2131637.44544  22827630.7714   22827630.5954
      1795.5494
    835915.46149    645838.21547  20403415.3104   20403412.8564
      -945.5274
   4324176.05549   3351544.82445  21984987.1534   21984983.2434
     -3317.8384
   -974189.15649   -758740.14846  21520151.6224   21520150.4074
       527.4164
 04  9  7 21 18 45.0010000  0  6G 3G19G 8G13G23G27
   -741134.66447   -576911.55143  23192133.2244   23192133.6184
       138.1804
  -1132064.96147   -875468.44142  24089911.0284   24089910.6264
      1872.3524
  -2708213.18748  -2152587.00044  22822514.5214   22822513.9154
      1792.3534
    850218.76249    656983.63347  20406137.2084   20406134.4934
      -953.5534
   4374032.88749   3390394.28545  21994474.2004   21994470.5834
     -3323.7894
   -982048.60949   -764864.38746  21518656.1534   21518654.6574
       523.9644
 04  9  7 21 19  0.0010000  0  6G 3G19G 8G13G23G27
   -743070.71947   -578420.14543  23191764.4034   23191765.4504
       129.0704
  -1160092.48047   -897308.00442  24084578.1774   24084577.0524
      1868.5014
  -2735051.35248  -2173499.83243  22817407.5524   22817406.9384
      1789.2114
    864641.85949    668222.40647  20408881.8494   20408879.2354
      -961.5404
   4423978.03949   3429312.56345  22003978.7634   22003975.2824
     -3329.6774
   -989857.15649   -770948.96946  21517170.1304   21517168.8684
       520.5704
 04  9  7 21 19 15.0010000  0  6G 3G19G 8G13G23G27
   -744871.18447   -579823.09443  23191422.2554   23191422.3884
       120.0314
  -1188063.24647   -919103.35542  24079255.1144   24079253.8764
      1864.7184
  -2761843.77348  -2194377.02043  22812309.1534   22812308.6574
      1786.1614
    879183.52749    679553.56647  20411649.1924   20411646.7164
      -969.4454
   4474009.98849   3468298.47745  22013499.1224   22013495.8254
     -3335.4634
   -997616.17249   -776994.94146  21515693.7864   21515692.3804
       517.2684
 04  9  7 21 19 30.0010000  0  6G 3G19G 8G13G23G27
   -746537.02047   -581121.15642  23191105.3644   23191104.9504
       111.0564
  -1215978.00447   -940855.05142  24073943.0834   24073942.8724
      1860.9844
  -2788591.53948  -2215219.41444  22807218.7164   22807218.4704
      1783.1844
    893842.81649    690976.38747  20414438.9114   20414436.1494
      -977.2864
   4524127.59449   3507351.10945  22023036.5674   22023032.9154
     -3341.1744
  -1005326.60949   -783003.07046  21514226.4194   21514225.5794
       514.0294
 04  9  7 21 19 45.0010000  0  6G 3G19G 8G13G23G27
   -748069.34448   -582315.16843  23190813.7474   23190813.2164
       102.1554
  -1243837.62547   -962563.78542  24068641.9424   24068641.4424
      1857.3084
  -2815295.66448  -2236027.78943  22802137.4814   22802137.2714
      1780.2754
    908618.54749    702489.94147  20417250.4584   20417248.0324
      -985.0494
   4574329.52749   3546469.48445  22032589.8884   22032585.9424
     -3346.7964
  -1012989.74249   -788974.34446  21512768.0674   21512767.0214
       510.8764
 04  9  7 21 20  0.0010000  0  6G 3G19G 8G13G23G27
   -749466.71948   -583404.02743  23190547.9894   23190546.9894
        93.1584
  -1271640.39847   -984228.26242  24063351.3564   24063349.9194
      1853.5184
  -2841954.93748  -2256801.22744  22797064.3494   22797064.1424
      1777.2854
    923511.78549    714095.05147  20420083.9894   20420081.8294
      -992.8834
   4624616.86349   3585654.38745  22042158.6534   22042155.0404
     -3352.4894
  -1020604.35949   -794907.80546  21511318.9974   21511318.0214
       507.6414
 04  9  7 21 20 15.0010000  0  6G 3G19G 8G13G23G27
   -750729.64147   -584388.09443  23190307.1774   23190306.7244
        84.1954
  -1299386.70347  -1005848.75442  24058071.0834   24058069.4424
      1849.7544
  -2868570.25048  -2277540.41444  22791999.7394   22791999.4784
      1774.3544
    938522.10249    725791.39547  20422940.7084   20422938.0994
     -1000.6884
   4674988.76249   3624905.19945  22051744.4504   22051740.2744
     -3358.1274
  -1028171.22349   -800804.05546  21509879.1924   21509877.8334
       504.4584
 04  9  7 21 20 30.0010000  0  6G 3G19G 8G13G23G27
   -751858.29348   -585267.54343  23190092.6304   23190092.4504
        75.2434
  -1327076.73847  -1027425.33642  24052801.6064   24052800.4154
      1846.0024
  -2895141.76248  -2298245.46144  22786943.2004   22786943.1924
      1771.4344
    953649.10549    737578.66447  20425819.2554   20425816.8414
     -1008.4674
   4725444.59049   3664221.41445  22061345.9894   22061342.2784
     -3363.7224
  -1035690.69549   -806663.37546  21508448.3804   21508446.9784
       501.2984
 04  9  7 21 20 45.0010000  0  6G 3G19G 8G13G23G27
   -752851.49248   -586041.46543  23189904.3964   23189903.3334
        66.2134
  -1354708.96147  -1048956.91442  24047543.0214   24047541.6464
      1842.1484
  -2921668.31648  -2318915.46544  22781895.8964   22781895.2864
      1768.4374
    968894.00849    749457.80947  20428720.2164   20428717.9114
     -1016.3274
   4775985.35949   3703603.80545  22070963.1304   22070960.3064
     -3369.3854
  -1043161.83249   -812485.03946  21507026.6144   21507025.1064
       498.0764
 04  9  7 21 21  0.0010000  0  6G 3G19G 8G13G23G27
   -753711.09048   -586711.28143  23189740.5524   23189739.3534
        57.3074
  -1382285.04347  -1070444.72742  24042296.1774   24042295.1184
      1838.4054
  -2948151.90648  -2339552.01644  22776855.6924   22776855.3604
      1765.5734
    984254.89149    761427.31647  20431643.5914   20431640.8804
     -1024.0594
   4826608.90249   3743050.69545  22080596.8724   22080593.4384
     -3374.9034
  -1050586.62949   -818270.59046  21505613.6774   21505612.5014
       494.9864
 04  9  7 21 21 15.0010000  0  6G 3G19G 8G13G23G27
   -754434.17648   -587274.69943  23189603.0364   23189601.8174
        48.2064
  -1409801.90647  -1091886.39142  24037059.2164   24037059.0364
      1834.4584
  -2974589.89148  -2360153.00444  22771824.7714   22771824.2044
      1762.5324
    999734.50049    773489.35547  20434588.9894   20434586.6814
     -1031.9744
   4877317.70349   3782564.01245  22090246.3644   22090243.0874
     -3380.5874
  -1057962.24649   -824017.82446  21504210.1534   21504208.6064
       491.7084
 04  9  7 21 21 30.0010000  0  6G 3G19G 8G13G23G27
   -755020.29348   -587731.41843  23189491.0284   23189490.2394
        39.0744
  -1437258.84847  -1113281.36342  24031834.1694   24031834.5014
      1830.4634
  -3000981.82848  -2380718.13344  22766802.9424   22766802.0674
      1759.4634
   1015333.22749    785644.19947  20437557.4814   20437555.0014
     -1039.9154
   4928111.95749   3822143.91845  22099912.4274   22099908.9894
     -3386.2844
  -1065288.56649   -829726.64146  21502816.1064   21502814.4384
       488.4214
 04  9  7 21 21 45.0010000  0  6G 3G19G 8G13G23G27
   -755468.05947   -588080.33243  23189405.6774   23189405.4854
        29.8514
  -1464654.27046  -1134628.38342  24026621.0674   24026620.6264
      1826.3614
  -3027326.43448  -2401246.35944  22761789.7554   22761788.8924
      1756.3074
   1031052.32449    797892.84847  20440548.6774   20440546.2984
     -1047.9404
   4978992.74249   3861791.25444  22109594.8494   22109591.4784
     -3392.0524
  -1072564.31649   -835396.04746  21501431.7864   21501430.4424
       485.0504
 04  9  7 21 22  0.0010000  0  6G 3G19G 8G13G23G27
   -755778.85948   -588322.51643  23189347.0364   23189346.4814
        20.7204
  -1491989.34047  -1155928.39842  24021419.8334   24021418.9354
      1822.3384
  -3053625.37148  -2421739.02344  22756784.7084   22756784.3024
      1753.2634
   1046890.35949    810234.17247  20443562.5364   20443560.1424
     -1055.8694
   5029958.34849   3901504.69945  22119293.2714   22119289.6854
     -3397.7074
  -1079791.19549   -841027.37946  21500056.2474   21500055.0914
       481.7924
 04  9  7 21 22 15.0010000  0  6G 3G19G 8G13G23G27
   -755951.60548   -588457.12143  23189313.9274   23189313.5484
        11.5164
  -1519262.84046  -1177180.41442  24016229.1534   24016228.9624
      1818.2334
  -3079877.71948  -2442195.36344  22751788.7634   22751788.7244
      1750.1574
   1062848.27049    822668.90247  20446599.4504   20446596.7744
     -1063.8614
   5081009.63349   3941284.88745  22129007.8884   22129004.7314
     -3403.4194
  -1086968.12949   -846619.78946  21498690.5604   21498688.9784
       478.4624
 04  9  7 21 22 30.0010000  0  6G 3G19G 8G13G23G27
   -755987.33247   -588484.94143  23189306.7394   23189306.7594
         2.3824
  -1546475.74247  -1198385.21942  24011051.4974   24011050.2984
      1814.1934
  -3106084.57048  -2462616.24644  22746802.1064   22746801.9034
      1747.1234
   1078924.88749    835196.12947  20449658.4584   20449656.0604
     -1071.7744
   5132145.22349   3981130.76645  22138738.8804   22138735.9354
     -3409.0394
  -1094096.44149   -852174.31246  21497333.9354   21497332.7244
       475.2214
 04  9  7 21 22 45.0010000  0  6G 3G19G 8G13G23G27
   -755885.28948   -588405.41842  23189326.4274   23189326.0054
        -6.8034
  -1573627.05547  -1219542.03543  24005883.7864   24005883.2474
      1810.0884
  -3132245.34848  -2483001.23844  22741823.8494   22741823.5564
      1744.0524
   1095120.94149    847816.42647  20452740.4814   20452738.2434
     -1079.7374
   5183365.50849   4021042.64145  22148485.8564   22148482.5484
     -3414.6864
  -1101175.53949   -857690.48846  21495986.8724   21495985.1964
       471.9404
 04  9  7 21 23  0.0010000  0  6G 3G19G 8G13G23G27
   -755644.07048   -588217.44543  23189372.2474   23189372.0214
       -16.0814
  -1600715.14847  -1240649.60243  24000729.9504   24000728.0524
      1805.8734
  -3158358.86348  -2503349.40244  22736854.5524   22736853.9074
      1740.9014
   1111437.66049    860530.74647  20455845.3334   20455842.8214
     -1087.7814
   5234671.52749   4061021.33645  22158248.8024   22158245.5364
     -3420.4014
  -1108204.21149   -863167.36346  21494649.4504   21494647.6884
       468.5784
 04  9  7 21 23 15.0010000  0  6G 3G19G 8G13G23G27
   -755265.93047   -587922.78943  23189444.0604   23189443.7634
       -25.2094
  -1627741.98847  -1261709.44143  23995586.9584   23995585.0754
      1801.7894
  -3184427.32848  -2523662.47344  22731894.1774   22731893.2284
      1737.8984
   1127872.74249    873337.30147  20458972.9274   20458970.3134
     -1095.6724
   5286060.82049   4101064.90245  22168028.2714   22168024.6654
     -3425.9534
  -1115184.89549   -868606.85946  21493321.1924   21493319.1034
       465.3794
 04  9  7 21 23 30.0010000  0  6G 3G19G 8G13G23G27
   -754750.04748   -587520.79343  23189542.5444   23189541.2984
       -34.3924
  -1654706.59846  -1282720.77742  23990455.2784   23990453.2784
      1797.6414
  -3210450.20748  -2543940.01644  22726942.2474   22726941.1384
      1734.8594
   1144426.84849    886236.59047  20462123.0214   20462120.9194
     -1103.6074
   5337533.76649   4141173.67244  22177822.9034   22177819.7984
     -3431.5304
  -1122116.90249   -874008.42246  21492002.1694   21492000.3174
       462.1344
 04  9  7 21 23 45.0010000  0  6G 3G19G 8G13G23G27
   -754096.99648   -587011.92242  23189667.0284   23189666.3254
       -43.5374
  -1681609.47747  -1303684.03542  23985336.2634   23985333.1184
      1793.5254
  -3236428.13748  -2564182.52344  22721998.5284   22721997.6534
      1731.8624
   1161099.35549    899228.14847  20465295.8024   20465293.7554
     -1111.5014
   5389089.59849   4181347.01245  22187633.8024   22187630.3964
     -3437.0554
  -1129001.11349   -879372.73846  21490691.7944   21490690.3104
       458.9474
 04  9  7 21 24  0.0010000  0  6G 3G19G 8G13G23G27
   -753307.77747   -586396.93443  23189816.0214   23189816.5404
       -52.6154
  -1708451.28947  -1324599.71542  23980227.4894   23980225.3254
      1789.4544
  -3262362.12148  -2584390.79344  22717063.0914   22717062.5714
      1728.9324
   1177889.00049    912310.98447  20468490.8644   20468488.7634
     -1119.3104
   5440726.97349   4221583.90245  22197459.8564   22197457.1304
     -3442.4924
  -1135838.49249   -884700.55546  21489391.1304   21489389.6144
       455.8254
 04  9  7 21 24 15.0010000  0  6G 3G19G 8G13G23G27
   -752379.53947   -585673.63743  23189993.2164   23189993.3214
       -61.8834
  -1735229.04746  -1345465.48442  23975132.4584   23975129.4464
      1785.1844
  -3288249.55548  -2604562.79344  22712136.9504   22712136.1774
      1725.8294
   1194798.73849    925487.39847  20471708.4424   20471706.3764
     -1127.3164
   5492448.42249   4261886.30945  22207302.1694   22207299.1424
     -3448.0974
  -1142626.56249   -889989.96546  21488099.0674   21488097.8104
       452.5384
 04  9  7 21 24 30.0010000  0  6G 3G19G 8G13G23G27
   -751313.34048   -584842.82043  23190196.6534   23190196.8454
       -71.0804
  -1761943.50447  -1366281.89842  23970048.8174   23970047.1264
      1780.9644
  -3314091.63348  -2624699.45344  22707219.5754   22707218.6694
      1722.8054
   1211827.49649    938756.55947  20474949.1854   20474946.5094
     -1135.2514
   5544252.66849   4302253.23045  22217160.2314   22217157.1534
     -3453.6164
  -1149366.47749   -895241.84846  21486816.4894   21486814.8414
       449.3284
 04  9  7 21 24 45.0010000  0  6G 3G19G 8G13G23G27
   -750109.75447   -583904.95743  23190425.3804   23190425.7314
       -80.2394
  -1788595.13347  -1387049.37142  23964977.1224   23964975.3764
      1776.7754
  -3339888.97348  -2644801.24644  22702310.2554   22702309.5954
      1719.8234
   1228974.49249    952117.85947  20478211.9114   20478209.3644
     -1143.1334
   5596138.73049   4342683.89545  22227034.0364   22227030.9234
     -3459.0714
  -1156059.00449   -900456.78946  21485543.0914   21485541.8604
       446.1684
 04  9  7 21 25  0.0010000  0  6G 3G19G 8G13G23G27
   -748766.83247   -582858.53543  23190681.0674   23190681.1924
       -89.5284
  -1815181.86347  -1407766.24642  23959917.5754   23959916.4074
      1772.4494
  -3365639.64548  -2664866.68044  22697409.6774   22697409.6424
      1716.7114
   1246241.63349    965572.76247  20481497.9504   20481495.4894
     -1151.1434
   5648108.28149   4383179.62145  22236923.3724   22236920.4894
     -3464.6374
  -1162702.21949   -905633.31646  21484278.8254   21484277.2744
       442.8814
 04  9  7 21 25 15.0010000  0  6G 3G19G 8G13G23G27
   -747283.78147   -581702.89843  23190962.7864   23190963.1384
       -98.8704
  -1841702.55947  -1428431.68042  23954871.2944   23954869.6384
      1768.0464
  -3391343.34448  -2684895.51644  22692519.5754   22692518.1064
      1713.5804
   1263629.63749    979121.85247  20484806.8964   20484804.3454
     -1159.2004
   5700161.80549   4423740.77345  22246829.0754   22246826.1614
     -3470.2354
  -1169295.56649   -910770.98446  21483024.2944   21483022.3254
       439.5574
 04  9  7 21 25 30.0010000  0  6G 3G19G 8G13G23G27
   -745660.67247   -580438.12543  23191271.9114   23191272.0954
      -108.2074
  -1868156.96946  -1449045.47743  23949836.2864   23949835.8564
      1763.6274
  -3417000.05548  -2704887.73444  22687636.7314   22687635.4814
      1710.4474
   1281138.38349    992765.02347  20488138.6464   20488136.2164
     -1167.2504
   5752299.03148   4464367.15645  22256750.0834   22256747.4074
     -3475.8154
  -1175839.28149   -915869.98046  21481778.7784   21481777.3534
       436.2484
 04  9  7 21 25 45.0010000  0  6G 3G19G 8G13G23G27
   -743899.23447   -579065.57043  23191607.0444   23191607.1384
      -117.4294
  -1894546.72747  -1469608.87143  23944815.0284   23944813.8064
      1759.3174
  -3442611.65248  -2724844.78544  22682762.9814   22682762.0134
      1707.4404
   1298765.86749   1006500.72347  20491492.5364   20491490.7674
     -1175.1664
   5804517.85948   4505057.12144  22266687.0444   22266684.3994
     -3481.2554
  -1182335.22749   -920931.75446  21480542.8724   21480541.1144
       433.0634
 04  9  7 21 26  0.0010000  0  6G 3G19G 8G13G23G27
   -742000.09047   -577585.70343  23191969.4274   23191968.8294
      -126.6104
  -1920872.33246  -1490122.28942  23939805.5054   23939804.2674
      1755.0404
  -3468178.67648  -2744767.10944  22677897.3174   22677896.7634
      1704.4684
   1316511.37149   1020328.37947  20494869.7244   20494867.5524
     -1183.0344
   5856817.27048   4545809.86744  22276639.3174   22276636.2004
     -3486.6274
  -1188784.34849   -925957.03146  21479315.6064   21479313.7554
       429.9414
 04  9  7 21 26 15.0010000  0  6G 3G19G 8G13G23G27
   -739961.86747   -575997.48043  23192356.8884   23192356.6854
      -135.8824
  -1947132.23846  -1510584.50443  23934808.0364   23934806.9854
      1750.6604
  -3493700.08248  -2764653.88744  22673040.7084   22673040.0954
      1701.4274
   1334376.28549   1034249.08246  20498269.1464   20498267.1304
     -1190.9944
   5909198.34048   4586626.26245  22286607.3334   22286604.1464
     -3492.0714
  -1195185.40649   -930944.86346  21478097.5674   21478095.8724
       426.7374
 04  9  7 21 26 30.0010000  0  6G 3G19G 8G13G23G27
   -737784.77747   -574301.02343  23192770.6614   23192770.2284
      -145.1394
  -1973326.35546  -1530995.47743  23929823.5214   23929823.0214
      1746.2744
  -3519176.23448  -2784505.41444  22668192.9274   22668192.1064
      1698.4104
   1352360.28949   1048262.59047  20501691.4504   20501689.2984
     -1198.9344
   5961660.53948   4627505.87144  22296590.0674   22296587.4424
     -3497.4804
  -1201538.64549   -935895.43046  21476888.4584   21476886.8844
       423.5494
 04  9  7 21 26 45.0010000  0  6G 3G19G 8G13G23G27
   -735468.53947   -572496.16443  23193211.5214   23193210.9624
      -154.4164
  -1999454.06647  -1551354.69543  23924852.5834   23924851.2204
      1741.8474
  -3544606.83248  -2804321.44144  22663353.5284   22663352.8334
      1695.3734
   1370463.62149   1062369.08247  20505136.6384   20505134.2714
     -1206.8894
   6014204.08648   4668448.85944  22306588.9584   22306586.1224
     -3502.9034
  -1207844.01249   -940808.69946  21475688.5994   21475686.9424
       420.3584
 04  9  7 21 27  0.0010000  0  6G 3G19G 8G13G23G27
   -733014.99647   -570584.30943  23193678.3644   23193677.9074
      -163.5704
  -2025517.25847  -1571663.62543  23919892.5754   23919891.8174
      1737.5464
  -3569993.91848  -2824103.56644  22658522.5284   22658521.9154
      1692.4724
   1388684.22749   1076566.94147  20508603.8254   20508601.3844
     -1214.7074
   6066826.62948   4709453.40244  22316602.6144   22316600.6064
     -3508.1704
  -1214103.39149   -945686.13346  21474497.5134   21474495.8764
       417.2924
 04  9  7 21 27 15.0010000  0  6G 3G19G 8G13G23G27
   -730423.04347   -568564.59043  23194171.7474   23194171.1304
      -172.7974
  -2051514.31246  -1591921.00843  23914945.2164   23914944.2554
      1733.1374
  -3595336.44148  -2843850.94944  22653700.0674   22653699.6384
      1689.5024
   1407023.21149   1090857.05547  20512093.4894   20512091.0094
     -1222.5994
   6119529.05148   4750520.18044  22326631.9584   22326628.9464
     -3513.4954
  -1220315.94149   -950527.07046  21473315.1694   21473313.9974
       414.1704
 04  9  7 21 27 30.0010000  0  6G 3G19G 8G13G23G27
   -727693.27048   -566437.48043  23194691.1384   23194690.0954
      -181.9854
  -2077445.80546  -1612127.30943  23910011.5054   23910009.2984
      1728.7664
  -3620634.88748  -2863563.98444  22648886.2944   22648885.4154
      1686.5634
   1425479.98449   1105238.94947  20515605.6304   20515603.3214
     -1230.4524
   6172310.47748   4791648.54344  22336675.4274   22336672.5214
     -3518.7624
  -1226482.32449   -955332.04346  21472141.8174   21472140.4974
       411.0924
 04  9  7 21 27 45.0010000  0  6G 3G19G 8G13G23G27
   -724825.65647   -564202.95743  23195236.9504   23195236.1884
      -191.1744
  -2103311.36345  -1632282.26243  23905087.6854   23905087.2244
      1724.3714
  -3645889.56248  -2883242.92244  22644080.1304   22644079.3724
      1683.6454
   1444054.44549   1119712.54747  20519140.3644   20519137.7354
     -1238.2974
   6225170.64848   4832838.25444  22346734.9354   22346732.0094
     -3524.0114
  -1232602.71149   -960101.17246  21470977.3334   21470975.8884
       408.0264
 04  9  7 21 28  0.0010000  0  6G 3G19G 8G13G23G27
   -721817.41047   -561858.85943  23195809.2554   23195808.7084
      -200.5504
  -2129108.03145  -1652383.51643  23900179.3964   23900177.7864
      1719.7784
  -3671097.82448  -2902885.69144  22639283.7244   22639281.8804
      1680.5514
   1462749.26649   1134279.93047  20522698.0604   20522695.5174
     -1246.3214
   6278111.93048   4874091.17645  22356809.0134   22356806.3334
     -3529.4194
  -1238674.57849   -964832.48846  21469822.0134   21469820.3644
       404.7914
 04  9  7 21 28 15.0010000  0  6G 3G19G 8G13G23G27
   -718668.69547   -559405.30143  23196408.2244   23196408.3644
      -209.9144
  -2154835.81246  -1672431.08643  23895283.9034   23895282.2744
      1715.1854
  -3696259.84048  -2922492.43044  22634495.0994   22634493.8104
      1677.4684
   1481564.14149   1148940.86347  20526278.2784   20526275.8684
     -1254.3254
   6331134.03948   4915407.07044  22366898.8334   22366896.4114
     -3534.8074
  -1244698.15249   -969526.18046  21468675.6384   21468674.2554
       401.5724
 04  9  7 21 28 30.0010000  0  6G 3G19G 8G13G23G27
   -715379.44947   -556842.23843  23197034.0054   23197034.1224
      -219.2834
  -2180494.31647  -1692424.68042  23890401.1224   23890399.2784
      1710.5674
  -3721375.69548  -2942063.19144  22629715.9424   22629714.3724
      1674.3904
   1500499.07849   1163695.35547  20529881.2634   20529878.9814
     -1262.3294
   6384236.72348   4956785.74244  22377004.1614   22377000.9234
     -3540.1794
  -1250673.37149   -974182.18446  21467538.4974   21467536.8724
       398.3484
 04  9  7 21 28 45.0010000  0  6G 3G19G 8G13G23G27
   -711951.20747   -554170.89143  23197686.8024   23197686.3024
      -228.5494
  -2206084.84446  -1712365.30542  23885531.1464   23885529.0994
      1706.0354
  -3746446.98448  -2961599.24244  22624944.4744   22624943.6144
      1671.4194
   1519552.63349   1178542.27747  20533507.5214   20533505.0794
     -1270.2374
   6437418.17648   4998225.80144  22387124.4584   22387121.1424
     -3545.4304
  -1256601.92649   -978801.84046  21466410.4194   21466408.8604
       395.2374
 04  9  7 21 29  0.0010000  0  6G 3G19G 8G13G23G27
   -708384.28947   -551391.46143  23198365.0054   23198364.6224
      -237.7954
  -2231607.58246  -1732253.10943  23880675.1064   23880672.2124
      1701.5164
  -3771474.02748  -2981100.81244  22620181.8024   22620181.0014
      1668.4704
   1538724.31349   1193481.24647  20537155.4814   20537153.2164
     -1278.1124
   6490677.79348   5039726.77344  22397259.4744   22397255.9034
     -3550.6414
  -1262484.39149   -983385.56646  21465290.8334   21465289.2314
       392.1644
 04  9  7 21 29 15.0010000  0  6G 3G19G 8G13G23G27
   -704676.95346   -548502.62143  23199070.4584   23199071.3454
      -247.1564
  -2257060.48446  -1752086.49642  23875829.8174   23875829.0324
      1696.8604
  -3796455.10548  -3000566.54744  22615428.2634   22615427.6034
      1665.4054
   1558015.83249   1208513.59047  20540826.4504   20540824.1144
     -1286.1014
   6544016.99248   5081289.73444  22407409.7244   22407406.3294
     -3555.9474
  -1268319.10249   -987932.07846  21464180.4424   21464179.1854
       388.9814
 04  9  7 21 29 30.0010000  0  6G 3G19G 8G13G23G27
   -700829.51247   -545504.59443  23199802.8104   23199802.8724
      -256.4964
  -2282443.71547  -1771865.57843  23871000.0674   23870998.3564
      1692.2154
  -3821390.89148  -3019997.00844  22610683.5134   22610682.1144
      1662.3864
   1577426.60549   1223638.85947  20544520.2634   20544518.2004
     -1294.0524
   6597435.05548   5122914.16444  22417574.3644   22417571.7394
     -3561.2044
  -1274106.57849   -992441.80146  21463079.0994   21463077.9354
       385.8324
 04  9  7 21 29 45.0010000  0  6G 3G19G 8G13G23G27
   -696841.83247   -542397.30543  23200561.6304   23200561.2984
      -265.8454
  -2307756.90247  -1791590.08642  23866183.9034   23866181.6264
      1687.5464
  -3846281.28948  -3039392.09444  22605946.5754   22605946.1854
      1659.3604
   1596956.73849   1238857.14147  20548236.9274   20548234.6184
     -1302.0094
   6650931.91448   5164599.99644  22427754.5754   22427751.6814
     -3566.4574
  -1279846.76249   -996914.65646  21461986.6534   21461985.3644
       382.6794
 04  9  7 21 30  0.0010000  0  6G 3G19G 8G13G23G27
   -692712.71147   -539179.80143  23201347.1924   23201347.2674
      -275.2754
  -2332998.50046  -1811258.80542  23861379.3334   23861378.6144
      1682.7734
  -3871124.90648  -3058750.72744  22601219.1854   22601217.7164
      1656.2414
   1616607.50449   1254169.41447  20551976.1144   20551974.1614
     -1310.0514
   6704508.55548   5206347.98444  22437950.0214   22437947.0244
     -3571.7764
  -1285538.54749  -1001349.81246  21460903.6774   21460902.4584
       379.4524
 04  9  7 21 30 15.0010000  0  6G 3G19G 8G13G23G27
   -688443.64847   -535853.24243  23202159.4894   23202159.5794
      -284.6044
  -2358169.90246  -1830872.80542  23856589.4354   23856588.7674
      1678.0934
  -3895923.55548  -3078074.32444  22596500.1534   22596499.2864
      1653.2434
   1636377.19149   1269574.36347  20555738.1534   20555735.8534
     -1317.9794
   6758163.09448   5248156.68444  22448160.3104   22448157.4584
     -3576.9694
  -1291183.59849  -1005748.54746  21459829.5134   21459827.9934
       376.3374
 04  9  7 21 30 30.0010000  0  6G 3G19G 8G13G23G27
   -684034.53147   -532417.56643  23202999.2004   23202998.7314
      -293.9414
  -2383270.76646  -1850431.87542  23851812.6774   23851811.9354
      1673.3914
  -3920677.38748  -3097363.00044  22591789.3494   22591788.2394
      1650.2554
   1656265.72749   1285071.92247  20559523.2314   20559520.7554
     -1325.9024
   6811895.41048   5290025.98844  22458385.0134   22458381.7984
     -3582.1544
  -1296782.07849  -1010110.99246  21458764.1144   21458762.8994
       373.2324
 04  9  7 21 30 45.0010000  0  6G 3G19G 8G13G23G27
   -679483.14847   -528871.01243  23203864.5604   23203865.0444
      -303.4264
  -2408298.66446  -1869934.06643  23847050.4504   23847049.2594
      1668.5274
  -3945384.28148  -3116615.09844  22587087.8024   22587087.0874
      1647.1264
   1676275.48849   1300663.93847  20563330.9974   20563328.3454
     -1333.9844
   6865707.34048   5331957.32444  22468625.4354   22468621.6384
     -3587.4624
  -1302331.84849  -1014435.48046  21457708.1614   21457706.6854
       369.9854
 04  9  7 21 31  0.0010000  0  6G 3G19G 8G13G23G27
   -674788.79747   -525213.06243  23204758.1144   23204757.9744
      -312.9574
  -2433252.60546  -1889378.65242  23842301.8334   23842299.9584
      1663.5964
  -3970043.31648  -3135829.90244  22582395.0834   22582394.2004
      1643.9364
   1696406.89148   1316350.73447  20567161.2714   20567159.1464
     -1342.0934
   6919599.46148   5373951.14544  22478880.3104   22478877.4544
     -3592.8084
  -1307832.21949  -1018721.47346  21456661.5834   21456660.1614
       366.6914
 04  9  7 21 31 15.0010000  0  6G 3G19G 8G13G23G27
   -669952.97346   -521444.88343  23205678.5914   23205678.0214
      -322.3884
  -2458133.80946  -1908766.55942  23837566.8494   23837564.7824
      1658.7474
  -3994656.21148  -3155008.76244  22577711.6694   22577710.4624
      1640.8604
   1716658.49249   1332131.20747  20571015.3174   20571012.8884
     -1350.1074
   6973569.99648   5416006.06644  22489150.6464   22489147.8374
     -3598.0364
  -1313284.83249  -1022970.25446  21455623.8414   21455622.4154
       363.5084
 04  9  7 21 31 30.0010000  0  6G 3G19G 8G13G23G27
   -664974.73047   -517565.72342  23206626.1144   23206625.4894
      -331.8834
  -2482941.21946  -1928096.94543  23832846.3174   23832844.6884
      1653.8274
  -4019222.34448  -3174151.17244  22573036.9114   22573035.4664
      1637.7424
   1737031.10549   1348005.96147  20574892.0994   20574889.8414
     -1358.1744
   7027619.43448   5458122.48444  22499435.8884   22499432.5054
     -3603.2964
  -1318688.96949  -1027181.26646  21454595.5134   21454593.8764
       360.2764
 04  9  7 21 31 45.0010000  0  6G 3G19G 8G13G23G27
   -659854.53546   -513575.94143  23207600.5054   23207599.7514
      -341.3464
  -2507675.01646  -1947369.98443  23828139.7164   23828138.1494
      1648.9204
  -4043741.90648  -3193257.30544  22568370.6614   22568370.5954
      1634.6384
   1757524.18048   1363974.58246  20578791.7634   20578789.2284
     -1366.2054
   7081747.03148   5500299.79744  22509735.9664   22509732.4894
     -3608.5074
  -1324045.15249  -1031354.90646  21453576.3024   21453574.8174
       357.0794
 04  9  7 21 32  0.0010000  0  6G 3G19G 8G13G23G27
   -654592.42647   -509475.60543  23208601.7634   23208601.3994
      -350.8074
  -2532334.96547  -1966585.48843  23823447.2634   23823445.1534
      1643.9974
  -4068215.17648  -3212327.36744  22563713.7314   22563713.2394
      1631.5514
   1778137.73849   1380037.09047  20582714.2554   20582711.7824
     -1374.2374
   7135952.53147   5542537.81644  22520051.1304   22520047.8724
     -3613.7004
  -1329353.57849  -1035491.34046  21452565.8334   21452564.3564
       353.8954
 04  9  7 21 32 15.0010000  0  6G 3G19G 8G13G23G27
   -649187.15647   -505263.68743  23209630.1224   23209629.4354
      -360.3514
  -2556919.55147  -1985742.25443  23818769.0284   23818766.9194
      1638.9724
  -4092640.78148  -3231360.28544  22559065.5524   22559064.9074
      1628.3744
   1798872.77749   1396194.26247  20586660.2314   20586657.5444
     -1382.3364
   7190236.96148   5584837.32844  22530381.8334   22530378.0404
     -3618.9624
  -1334613.05949  -1039589.62546  21451564.9744   21451563.5484
       350.6324
 04  9  7 21 32 30.0010000  0  6G 3G19G 8G13G23G27
   -643639.98048   -500941.20343  23210686.4274   23210685.7784
      -369.8124
  -2581429.86346  -2004841.13742  23814104.3024   23814102.9314
      1634.0214
  -4117020.19548  -3250357.19944  22554426.6384   22554425.8764
      1625.2944
   1819727.99249   1412445.06647  20590628.6464   20590626.2904
     -1390.3484
   7244598.84048   5627197.20344  22540726.2944   22540722.7714
     -3624.1254
  -1339825.00849  -1043650.87946  21450573.2084   21450571.6924
       347.4634
 04  9  7 21 32 45.0010000  0  6G 3G19G 8G13G23G27
   -637949.20347   -496506.81643  23211768.7554   23211768.6224
      -379.3854
  -2605863.94146  -2023880.64143  23809454.3104   23809453.2124
      1628.9394
  -4141351.86348  -3269316.91444  22549796.2634   22549795.7674
      1622.1114
   1840705.07848   1428790.84447  20594620.4744   20594618.0404
     -1398.4724
   7299039.50448   5669618.46544  22551085.9814   22551082.6424
     -3629.3784
  -1344987.79349  -1047673.81646  21449590.8724   21449589.4114
       344.1864
 04  9  7 21 33  0.0010000  0  6G 3G19G 8G13G23G27
   -632114.05947   -491959.93743  23212878.7784   23212878.8454
      -389.0104
  -2630220.79346  -2042859.96942  23804819.4034   23804817.8214
      1623.7904
  -4165635.09448  -3288238.89544  22545175.8334   22545174.4664
      1618.8824
   1861804.64549   1445232.05547  20598635.7474   20598633.4074
     -1406.6384
   7353559.41448   5712101.46944  22561460.7864   22561457.6344
     -3634.6614
  -1350100.83249  -1051657.99646  21448617.8804   21448616.2284
       340.8694
 04  9  7 21 33 15.0010000  0  6G 3G19G 8G13G23G27
   -626136.59447   -487302.15643  23214016.1384   23214016.0564
      -398.4984
  -2654502.18046  -2061780.48442  23800198.8884   23800197.5754
      1618.7594
  -4189872.02348  -3307124.78944  22540563.2394   22540561.9704
      1615.7954
   1883024.62948   1461767.10247  20602673.8174   20602671.4504
     -1414.6664
   7408156.29748   5754644.45344  22571849.8334   22571846.9814
     -3639.7924
  -1355166.28949  -1055605.10946  21447653.8804   21447652.3134
       337.6974
 04  9  7 21 33 30.0010000  0  6G 3G19G 8G13G23G27
   -620015.83247   -482532.72343  23215181.1384   23215180.0564
      -408.0514
  -2678706.79746  -2080641.14842  23795592.7864   23795591.0674
      1613.6414
  -4214061.63348  -3325973.81644  22535960.1144   22535959.3174
      1612.6414
   1904366.15248   1478396.85547  20606734.9504   20606732.6304
     -1422.7684
   7462830.95748   5797248.03544  22582254.3564   22582251.1534
     -3644.9774
  -1360183.14849  -1059514.34446  21446698.9194   21446697.6854
       334.4574
 04  9  7 21 33 45.0010000  0  6G 3G19G 8G13G23G27
   -613752.72746   -477652.38343  23216373.0834   23216372.7824
      -417.5404
  -2702835.37546  -2099442.62543  23791001.2784   23790999.6224
      1608.5724
  -4238204.80548  -3344786.64544  22531365.0364   22531364.9504
      1609.5454
   1925828.10549   1495120.45347  20610819.1614   20610816.5564
     -1430.7974
   7517582.08248   5839911.20744  22592673.7004   22592670.0444
     -3650.0754
  -1365152.54749  -1063386.59446  21445753.8254   21445752.2314
       331.2934
 04  9  7 21 34  0.0010000  0  6G 3G19G 8G13G23G27
   -607345.45346   -472659.68443  23217592.7944   23217591.7004
      -427.1524
  -2726885.93046  -2118183.28943  23786424.7314   23786422.6344
      1603.3704
  -4262299.98847  -3363562.09044  22526780.1854   22526779.9274
      1606.3464
   1947412.04748   1511939.10247  20614926.3964   20614924.2044
     -1438.9294
   7572411.23048   5882635.19144  22603106.8884   22603104.0634
     -3655.2774
  -1370072.69549  -1067220.47346  21444817.3644   21444815.5564
       328.0104
 04  9  7 21 34 15.0010000  0  6G 3G19G 8G13G23G27
   -600795.46547   -467555.77043  23218838.8494   23218838.5954
      -436.6664
  -2750859.57846  -2136864.01642  23781862.0524   23781860.4314
      1598.2434
  -4286348.64848  -3382301.29344  22522203.9744   22522203.3064
      1603.2444
   1969116.46549   1528851.62946  20619056.2474   20619054.0834
     -1446.9614
   7627316.63748   5925418.56644  22613554.8964   22613551.7554
     -3660.3604
  -1374945.32449  -1071017.32046  21443889.9744   21443888.1144
       324.8424
 04  9  7 21 34 30.0010000  0  6G 3G19G 8G13G23G27
   -594101.77047   -462339.89543  23220112.4814   23220111.9504
      -446.2464
  -2774755.02747  -2155483.82442  23777315.6924   23777313.5634
      1593.0304
  -4310349.80548  -3401003.45744  22517636.8494   22517636.3454
      1600.0774
   1990942.41849   1545858.86346  20623209.9194   20623207.5714
     -1455.0644
   7682299.10948   5968262.01244  22624018.1924   22624015.0954
     -3665.4984
  -1379769.50449  -1074776.41846  21442971.7554   21442970.4584
       321.6124
 04  9  7 21 34 45.0010000  0  6G 3G19G 8G13G23G27
   -587264.87147   -457012.43743  23221413.4424   23221413.0564
      -455.7934
  -2798572.64847  -2174042.98443  23772783.1304   23772781.0484
      1587.8414
  -4334304.12148  -3419669.13344  22513078.4274   22513077.7434
      1596.9544
   2012889.21149   1562960.25447  20627386.1064   20627383.6654
     -1463.1204
   7737357.74248   6011164.80544  22634495.4194   22634491.9384
     -3670.5764
  -1384545.78149  -1078498.18046  21442063.0754   21442061.4194
       318.4184
 04  9  7 21 35  0.0010000  0  6G 3G19G 8G13G23G27
   -580284.42646   -451573.12143  23222741.9354   23222741.4274
      -465.3634
  -2822311.81247  -2192540.98443  23768266.5134   23768264.3414
      1582.6114
  -4358211.18048  -3438297.98844  22508528.7554   22508528.6424
      1593.8044
   2034957.16849   1580156.05946  20631585.7784   20631583.5094
     -1471.1974
   7792492.77748   6054127.13344  22644987.4584   22644984.7784
     -3675.6694
  -1389273.84849  -1082182.38746  21441163.5914   21441161.6924
       315.2044
 04  9  7 21 35 15.0010000  0  7G 3G19G 8G13G10G23G27
   -573160.59447   -446022.08643  23224098.0134   23224097.4114
      -474.9224
  -2845972.47747  -2210977.85543  23763763.3254   23763761.1924
      1577.3784
  -4382071.25848  -3456890.22744  22503988.2554   22503987.7744
      1590.6724
   2057146.05949   1597446.10247  20635807.9504   20635805.5094
     -1479.2594
    -69024.12556    -44068.70752  24455999.6774   24455999.6304

   7847703.66448   6097148.57844  22655493.4114   22655490.7124
     -3680.7264
  -1393954.07849  -1085829.31646  21440272.4424   21440271.2714
       312.0154
 04  9  7 21 35 30.0010000  0  7G 3G19G 8G13G10G23G27
   -565893.18047   -440359.16843  23225480.4894   23225479.9664
      -484.4944
  -2869554.25047  -2229353.20743  23759276.2164   23759273.9544
      1572.1184
  -4405884.38748  -3475445.89544  22499456.7784   22499456.1694
      1587.5424
   2079456.01649   1614830.47346  20640053.0914   20640051.4424
     -1487.3304
    -92290.14846    -62198.07442  24451571.9894   24451572.0484
      1551.0684
   7902990.41848   6140229.12544  22666014.0524   22666011.4744
     -3685.7844
  -1398586.40649  -1089438.91446  21439391.4504   21439389.9974
       308.8224
 04  9  7 21 35 45.0010000  0  7G 3G19G 8G13G10G23G27
   -558484.32847   -434586.00843  23226889.9744   23226890.4074
      -493.9234
  -2893058.95747  -2247668.53143  23754803.8884   23754801.4704
      1566.9804
  -4429652.60548  -3493966.55944  22494934.4894   22494933.8844
      1584.5484
   2101884.83649   1632307.48046  20644321.3724   20644319.3684
     -1495.2554
   -115444.37946    -80240.28542  24447166.1464   24447165.5874
      1543.6154
   7958350.60948   6183366.90244  22676548.8964   22676546.2244
     -3690.6794
  -1403172.99249  -1093012.87546  21438518.5054   21438516.9894
       305.7724
 04  9  7 21 36  0.0010000  0  7G 3G19G 8G13G10G23G27
   -550931.97746   -428701.02743  23228327.6534   23228327.4624
      -503.4904
  -2916484.27347  -2265921.98443  23750345.3254   23750343.9934
      1561.6884
  -4453373.98848  -3512450.73044  22490420.1464   22490419.3534
      1581.4264
   2124434.56349   1649878.68447  20648612.5834   20648610.3964
     -1503.3154
   -138484.57846    -98193.66842  24442781.5054   24442780.9384
      1536.0134
   8013785.93048   6226563.21944  22687097.7084   22687095.2084
     -3695.6884
  -1407711.87949  -1096549.65246  21437654.9114   21437653.6034
       302.5924
 04  9  7 21 36 15.0010000  0  7G 3G19G 8G13G10G23G27
   -543239.08247   -422706.56643  23229791.5524   23229791.1304
      -512.8604
  -2939832.84047  -2284115.62143  23745902.3104   23745900.7004
      1556.5714
  -4477051.30548  -3530900.56244  22485914.6304   22485913.8884
      1578.4884
   2147102.01649   1667541.63347  20652926.1694   20652923.9624
     -1511.1644
   -161413.52745   -116060.37542  24438418.4504   24438417.7554
      1528.5974
   8069293.21548   6269815.60544  22697660.1694   22697657.9074
     -3700.4864
  -1412206.10949  -1100051.65246  21436799.6304   21436798.3414
       299.6154
 04  9  7 21 36 30.0010000  0  7G 3G19G 8G13G10G23G27
   -535402.72747   -416600.30943  23231283.1464   23231282.1224
      -522.4244
  -2963101.47347  -2302246.98843  23741474.4814   23741473.2204
      1551.2424
  -4500681.91848  -3549314.00044  22481417.8334   22481417.1224
      1575.3744
   2169890.18049   1685298.63747  20657262.5134   20657260.1464
     -1519.2114
   -184228.22345   -133838.03542  24434076.7554   24434076.2674
      1520.9804
   8124875.16448   6313126.18444  22708237.3174   22708234.7864
     -3705.4634
  -1416652.86349  -1103516.64147  21435953.3254   21435951.9504
       296.4504
 04  9  7 21 36 45.0010000  0  7G 3G19G 8G13G10G23G27
   -527421.49247   -410381.14543  23232801.1144   23232800.8494
      -532.0824
  -2986288.53147  -2320314.78943  23737062.2164   23737060.9744
      1545.8044
  -4524264.64148  -3567690.13344  22476929.7554   22476928.9854
      1572.1824
   2192800.37949   1703150.73447  20661621.9894   20661619.5054
     -1527.3474
   -206927.05146   -151525.40642  24429757.3104   24429757.4274
      1513.2554
   8180532.94548   6356495.84044  22718829.0674   22718826.1034
     -3710.5194
  -1421050.75849  -1106943.56647  21435116.5284   21435115.3964
       293.1934
 04  9  7 21 37  0.0010000  0  7G 3G19G 8G13G10G23G27
   -519296.62547   -404050.09043  23234347.6144   23234347.0484
      -541.6584
  -3009395.06247  -2338319.82443  23732665.0444   23732663.5324
      1540.4354
  -4547800.28948  -3586029.57044  22472451.3414   22472450.6574
      1569.0434
   2215831.35549   1721096.94547  20666004.8024   20666002.4074
     -1535.3984
   -229511.05946   -169123.32842  24425459.9504   24425459.5404
      1505.6014
   8236264.96948   6399923.35544  22729434.3414   22729431.3534
     -3715.4684
  -1425401.22749  -1110333.53146  21434289.0604   21434287.0404
       290.0314
 04  9  7 21 37 15.0010000  0  7G 3G19G 8G13G10G23G27
   -511026.73047   -397606.00443  23235921.1614   23235921.6494
      -551.3264
  -3032419.37547  -2356260.81243  23728283.8414   23728282.5284
      1534.9544
  -4571287.71148  -3604331.43444  22467982.0444   22467981.3334
      1565.8284
   2238984.37549   1739138.24246  20670410.3804   20670408.2824
     -1543.5354
   -251978.75846   -186630.62542  24421184.9584   24421184.0054
      1497.8474
   8292072.43448   6443409.66044  22740054.3334   22740051.1614
     -3720.4984
  -1429703.05949  -1113685.61346  21433470.0364   21433468.6144
       286.7894
 04  9  7 21 37 30.0010000  0  7G 3G19G 8G13G10G23G27
   -502613.53147   -391050.24643  23237522.4664   23237522.8134
      -560.8804
  -3055362.90647  -2374138.83243  23723917.7554   23723915.8414
      1529.5694
  -4594728.65248  -3622597.07444  22463521.0834   22463520.4074
      1562.7294
   2262257.67649   1757273.27747  20674839.1924   20674837.0404
     -1551.5534
   -274331.57445   -204048.37942  24416930.1854   24416930.6884
      1490.1884
   8347953.35248   6486953.19144  22750688.0754   22750685.9234
     -3725.3954
  -1433957.84449  -1117001.02746  21432660.5364   21432658.7474
       283.6524
 04  9  7 21 37 45.0010000  0  7G 3G19G 8G13G10G23G27
   -494056.17646   -384382.16443  23239150.7474   23239150.0214
      -570.4904
  -3078224.35947  -2391952.90643  23719567.2944   23719565.4814
      1524.0974
  -4618122.46549  -3640825.99644  22459069.8174   22459068.8024
      1559.5884
   2285652.25848   1775502.79747  20679291.3254   20679289.2594
     -1559.6394
   -296568.32446   -221375.69942  24412699.4814   24412699.1184
      1482.4504
   8403908.37148   6530554.46544  22761336.1534   22761333.0834
     -3730.3354
  -1438164.75449  -1120279.13746  21431859.7554   21431858.0014
       280.4614
 04  9  7 21 38  0.0010000  0  7G 3G19G 8G13G10G23G27
   -485354.85547   -377601.91043  23240806.2244   23240805.4314
      -580.0884
  -3101003.81247  -2409703.06243  23715232.0444   23715230.9034
      1518.6304
  -4641469.40248  -3659018.39544  22454626.7084   22454625.9354
      1556.4634
   2309167.70749   1793826.52346  20683766.3644   20683764.0214
     -1567.6974
   -318689.09446   -238612.65642  24408489.3884   24408489.5634
      1474.7184
   8459937.11748   6574213.19544  22771997.7394   22771995.5404
     -3735.2504
  -1442324.07449  -1123520.16046  21431068.2244   21431066.7514
       277.2884
 04  9  7 21 38 15.0010000  0  7G 3G19G 8G13G10G23G27
   -476507.05547   -370707.52043  23242489.8884   23242489.4744
      -589.8534
  -3123698.48848  -2427387.18443  23710913.5914   23710911.6304
      1512.9784
  -4664766.53949  -3677171.98045  22450193.4424   22450192.4504
      1553.1424
   2332806.50449   1812246.36347  20688264.4664   20688262.2284
     -1575.9204
   -340691.25046   -255757.17242  24404303.2634   24404302.3724
      1466.8104
   8516041.69148   6617931.00444  22782674.2084   22782671.7944
     -3740.3054
  -1446433.48849  -1126722.28946  21430286.4504   21430284.9974
       273.9614
 04  9  7 21 38 30.0010000  0  7G 3G19G 8G13G10G23G27
   -467515.66047   -363701.22342  23244200.8724   23244200.3134
      -599.4264
  -3146311.02747  -2445007.29743  23706610.6224   23706608.7124
      1507.5034
  -4688017.10248  -3695289.27745  22445769.2084   22445768.3924
      1550.0374
   2356565.59849   1830759.93047  20692785.6534   20692783.3294
     -1583.9404
   -362577.49646   -272811.39142  24400138.2634   24400137.0014
      1459.0834
   8572219.14848   6661705.60944  22793364.4194   22793361.8174
     -3745.1644
  -1450495.86749  -1129887.77746  21429513.1144   21429511.7784
       270.8254
 04  9  7 21 38 45.0010000  0  7G 3G19G 8G13G10G23G27
   -458380.35247   -356582.80143  23245938.9504   23245938.9814
      -609.0214
  -3168840.77346  -2462562.90243  23702323.5364   23702321.1964
      1501.9834
  -4711220.99248  -3713370.20745  22441353.7244   22441352.3644
      1546.9264
   2380445.26249   1849367.46146  20697329.8564   20697327.6734
     -1591.9784
   -384347.41046   -289774.93442  24395995.6534   24395994.6304
      1451.3284
   8628469.44948   6705536.98844  22804068.4424   22804065.8604
     -3750.0204
  -1454511.00849  -1133016.44946  21428749.0284   21428747.7084
       267.6764
 04  9  7 21 39  0.0010000  0  7G 3G19G 8G13G10G23G27
   -449100.38747   -349351.64543  23247705.8644   23247705.2314
      -618.6644
  -3191286.88346  -2480053.32443  23698051.8564   23698050.0524
      1496.4074
  -4734377.39548  -3731414.14144  22436946.8414   22436946.0404
      1543.7604
   2404446.22349   1868069.50447  20701897.1464   20701894.5714
     -1600.0644
   -406000.14845   -306647.18042  24391874.4504   24391874.3564
      1443.5164
   8684793.07048   6749425.48844  22814786.7084   22814784.0444
     -3754.9084
  -1458478.28949  -1136107.83246  21427994.2634   21427992.6574
       264.4854
 04  9  7 21 39 15.0010000  0  7G 3G19G 8G13G10G23G27
   -439675.40247   -342007.48443  23249498.8724   23249498.3374
      -628.3324
  -3213648.60947  -2497478.00443  23693796.3174   23693794.1854
      1490.7824
  -4757485.66849  -3749420.57044  22432549.7004   22432548.9274
      1540.5524
   2428568.85249   1886866.35247  20706487.4194   20706485.2514
     -1608.1754
   -427534.90645   -323427.51242  24387776.7394   24387776.2984
      1435.6514
   8741190.13748   6793371.23044  22825518.2244   22825516.5244
     -3759.8044
  -1462397.39149  -1139161.68046  21427248.5134   21427246.5954
       261.2734
 04  9  7 21 39 30.0010000  0  7G 3G19G 8G13G10G23G27
   -430106.05947   -334550.84043  23251319.8884   23251319.5014
      -637.9564
  -3235926.24647  -2514837.16043  23689556.9424   23689554.5244
      1485.1764
  -4780546.68449  -3767390.16444  22428161.4274   22428160.4854
      1537.4014
   2452812.29349   1905757.34047  20711101.0054   20711098.3134
     -1616.2294
   -448952.27046   -340116.34042  24383701.5914   24383700.6494
      1427.8244
   8797659.75048   6837373.48044  22836264.6464   22836262.2204
     -3764.6414
  -1466269.03549  -1142178.53546  21426511.9034   21426510.0714
       258.1104
 04  9  7 21 39 45.0010000  0  7G 3G19G 8G13G10G23G27
   -420391.05947   -326980.70343  23253168.4194   23253168.4114
      -647.6674
  -3258118.36348  -2532129.67243  23685334.4974   23685331.9234
      1479.4744
  -4803559.16449  -3785321.93745  22423782.1774   22423781.5674
      1534.1654
   2477178.02749   1924743.62147  20715737.2944   20715735.0714
     -1624.3824
   -470250.78546   -356712.56642  24379649.1924   24379648.6494
      1419.9014
   8854202.86748   6881433.02344  22847024.1304   22847021.7244
     -3769.5414
  -1470091.93749  -1145157.41446  21425784.0674   21425782.4034
       254.8604
 04  9  7 21 40  0.0010000  0  7G 3G19G 8G13G10G23G27
   -410529.90247   -319296.69143  23255044.5134   23255044.0834
      -657.4104
  -3280224.19948  -2549354.95343  23681127.5674   23681124.8924
      1473.7224
  -4826522.89549  -3803215.73045  22419412.3254   22419411.2634
      1530.9154
   2501666.31349   1943825.39546  20720397.4894   20720395.1104
     -1632.5524
   -491429.78946   -373215.67242  24375618.5284   24375618.3134
      1411.9344
   8910819.80948   6925550.07844  22857797.9424   22857796.0444
     -3774.4634
  -1473865.77749  -1148098.06646  21425065.9584   21425064.7164
       251.5894
 04  9  7 21 40 15.0010000  0  7G 3G19G 8G13G10G23G27
   -400523.87947   -311499.77343  23256949.0214   23256948.3024
      -667.0684
  -3302244.61748  -2566513.68443  23676937.6924   23676934.8804
      1468.0284
  -4849439.00849  -3821072.42645  22415051.2784   22415050.3534
      1527.7414
   2526275.93449   1963001.71147  20725080.5054   20725077.6464
     -1640.6414
   -512490.38347   -389626.51242  24371611.2714   24371610.5404
      1404.0404
   8967509.12148   6969723.53544  22868585.4114   22868582.9314
     -3779.2874
  -1477591.82849  -1151001.47346  21424357.0284   21424355.4744
       248.4034
 04  9  7 21 40 30.0010000  0  7G 3G19G 8G13G10G23G27
   -390371.37147   -303588.73443  23258880.6304   23258880.2714
      -676.8344
  -3324177.73848  -2583604.35243  23672763.3964   23672761.3764
      1462.2084
  -4872305.82049  -3838890.69945  22410700.4664   22410698.9504
      1524.4544
   2551008.40649   1982273.75846  20729786.9504   20729784.4544
     -1648.8324
   -533430.62146   -405943.55942  24367625.2314   24367625.6344
      1396.0164
   9024272.07848   7013954.37944  22879387.3724   22879384.8374
     -3784.1974
  -1481268.44149  -1153866.35946  21423657.4354   21423656.1104
       245.1084
 04  9  7 21 40 45.0010000  0  7G 3G19G 8G13G10G23G27
   -380074.39847   -295565.10543  23260840.2244   23260840.0484
      -686.4654
  -3346025.35548  -2600628.42243  23668606.1144   23668603.9074
      1456.5084
  -4895125.35949  -3856672.13345  22406357.6774   22406356.3374
      1521.3034
   2575861.57049   2001639.85546  20734516.4814   20734514.2124
     -1656.8784
   -554252.33246   -422168.24642  24363663.0834   24363663.1264
      1388.1144
   9081106.48047   7058240.88744  22890202.4584   22890200.0284
     -3788.9604
  -1484897.76249  -1156694.39846  21422966.9114   21422965.1384
       241.9554
 04  9  7 21 41  0.0010000  0  7G 3G19G 8G13G10G23G27
   -369631.21947   -287427.55943  23262827.5674   23262826.9584
      -696.2124
  -3367785.48447  -2617584.32443  23664465.1224   23664462.7944
      1450.6754
  -4917895.98849  -3874415.45344  22402024.3964   22402023.3374
      1518.0424
   2600837.18049   2021101.35946  20739269.1924   20739266.6184
     -1665.0414
   -574953.66446   -438299.14542  24359724.1064   24359723.6264
      1380.0894
   9138013.91047   7102584.30144  22901031.9034   22901029.1734
     -3793.8294
  -1488478.08649  -1159484.25846  21422285.2944   21422283.7394
       238.6884
 04  9  7 21 41 15.0010000  0  7G 3G19G 8G13G10G23G27
   -359042.50446   -279176.59843  23264842.0214   23264841.7084
      -705.9144
  -3389458.47747  -2634472.31643  23660340.3414   23660339.0794
      1444.8664
  -4940618.39149  -3892121.21144  22397700.6304   22397699.3604
      1514.8274
   2625934.52749   2040657.72347  20744044.9114   20744042.9814
     -1673.1574
   -595535.17646   -454336.66042  24355807.9664   24355806.5634
      1372.1014
   9194993.41048   7146983.86744  22911874.5134   22911872.7864
     -3798.6334
  -1492010.24249  -1162236.58246  21421613.2084   21421611.7984
       235.4774
 04  9  7 21 41 30.0010000  0  7G 3G19G 8G13G10G23G27
   -348308.71546   -270812.58643  23266885.0754   23266884.4034
      -715.5864
  -3411044.53147  -2651292.59043  23656232.9194   23656231.4314
      1439.0704
  -4963293.01649  -3909789.71144  22393385.6924   22393384.6964
      1511.6424
   2651153.02749   2060308.50047  20748843.8724   20748841.5134
     -1681.2334
   -615997.04746   -470280.96942  24351913.3564   24351912.9894
      1364.1254
   9252044.17247   7191438.95344  22922731.2944   22922729.0874
     -3803.3844
  -1495494.73449  -1164951.76646  21420950.2004   21420948.5994
       232.2994
 04  9  7 21 41 45.0010000  0  7G 3G19G 8G13G10G23G27
   -337429.63747   -262335.38743  23268955.1064   23268954.5214
      -725.2724
  -3432543.21547  -2668044.75843  23652141.4034   23652140.2984
      1433.2464
  -4985919.66048  -3927420.84044  22389079.4034   22389079.0834
      1508.4434
   2676492.86349   2080053.82847  20753665.9274   20753663.4424
     -1689.3224
   -636338.99646   -486131.81642  24348042.8724   24348041.9894
      1356.1304
   9309166.14847   7235949.54744  22933601.4274   22933598.2784
     -3808.1324
  -1498931.34449  -1167629.64146  21420296.1384   21420294.4314
       229.1074
 04  9  7 21 42  0.0010000  0  7G 3G19G 8G13G10G23G27
   -326402.53146   -253742.84443  23271053.4744   23271052.7944
      -735.1404
  -3453951.38347  -2684726.41443  23648068.1384   23648066.1884
      1427.2114
  -5008495.66049  -3945012.50845  22384783.7084   22384782.9544
      1505.0674
   2701956.80149   2099895.85247  20758511.5134   20758509.2244
     -1697.5964
   -656558.09046   -501886.93742  24344195.1224   24344194.2674
      1347.9404
   9366361.88748   7280517.62544  22944485.1774   22944482.5404
     -3813.0494
  -1502317.40649  -1170268.11746  21419651.6854   21419650.0604
       225.7384
 04  9  7 21 42 15.0010000  0  7G 3G19G 8G13G10G23G27
   -315230.23047   -245037.14843  23273179.6224   23273179.9784
      -744.8204
  -3475271.71947  -2701339.60543  23644010.5444   23644008.5674
      1421.3564
  -5031023.89848  -3962566.94944  22380496.3964   22380496.0174
      1501.8834
   2727541.88349   2119832.27047  20763379.8414   20763377.6694
     -1705.6724
   -676656.82446   -517548.28542  24340370.8964   24340370.1774
      1339.9164
   9423628.32848   7325140.80143  22955382.3104   22955379.5914
     -3817.7634
  -1505655.80548  -1172869.46146  21419016.5444   21419014.9234
       222.5604
 04  9  7 21 42 30.0010000  0  7G 3G19G 8G13G10G23G27
   -303910.09847   -236216.24643  23275334.1064   23275333.6924
      -754.6764
  -3496501.09447  -2717881.92243  23639970.5444   23639969.0014
      1415.2924
  -5053501.59448  -3980082.01244  22376219.1304   22376218.9194
      1498.5134
   2753250.82049   2139865.20347  20768272.3804   20768270.2824
     -1713.9294
   -696632.35946   -533113.56842  24336569.6064   24336568.7084
      1331.7024
   9480968.00847   7369821.02744  22966293.9584   22966291.5954
     -3822.6454
  -1508943.73049  -1175431.47746  21418390.8644   21418389.3374
       219.1954
 04  9  7 21 42 45.0010000  0  7G 3G19G 8G13G10G23G27
   -292441.89847   -227279.98843  23277516.3024   23277516.1384
      -764.5474
  -3517639.10547  -2734353.05943  23635947.8884   23635946.9424
      1409.2014
  -5075928.86749  -3997557.78545  22371951.3724   22371950.6694
      1495.1524
   2779083.64549   2159994.67247  20773188.3104   20773186.0754
     -1722.1884
   -716484.46946   -548582.76642  24332791.9504   24332791.0364
      1323.4744
   9538380.65247   7414558.10544  22977219.4814   22977217.8104
     -3827.5104
  -1512181.35548  -1177954.28946  21417774.7714   21417773.2744
       215.8424
 04  9  7 21 43  0.0010000  0  7G 3G19G 8G13G10G23G27
   -280827.45747   -218229.77043  23279726.5524   23279725.9584
      -774.2964
  -3538687.37148  -2750754.26643  23631942.7944   23631941.3924
      1403.2184
  -5098307.05149  -4014995.30945  22367693.0214   22367692.5444
      1491.8794
   2805038.66849   2180219.35247  20778127.5604   20778125.0674
     -1730.3354
   -736214.63747   -563956.91042  24329037.3174   24329036.7354
      1315.3454
   9595864.41847   7459350.61344  22988158.3174   22988156.7354
     -3832.2514
  -1515370.27048  -1180439.16047  21417167.9274   21417166.5284
       212.5944
 04  9  7 21 43 15.0010000  0  7G 3G19G 8G13G10G23G27
   -269064.64847   -209063.93443  23281964.9974   23281964.2634
      -784.1874
  -3559643.50047  -2767083.67243  23627955.2394   23627953.7714
      1397.0754
  -5120634.56649  -4032393.34845  22363444.3334   22363443.3334
      1488.5014
   2831117.67648   2200540.64547  20783089.9504   20783087.9354
     -1738.6014
   -755820.67246   -579234.34442  24325306.2714   24325305.8064
      1307.0694
   9653421.12547   7504199.95344  22999110.6774   22999108.5754
     -3837.1144
  -1518508.68748  -1182884.67646  21416570.9194   21416569.4074
       209.2284
 04  9  7 21 43 30.0010000  0  7G 3G19G 8G13G10G23G27
   -257155.68047   -199784.21543  23284230.7634   23284231.4814
      -793.9314
  -3580509.30948  -2783342.73043  23623984.6144   23623983.0174
      1391.0544
  -5142913.27049  -4049753.35245  22359204.6464   22359204.0994
      1485.2474
   2857318.53949   2220956.87547  20788076.2394   20788073.6854
     -1746.7244
   -775304.46146   -594416.50842  24321598.5054   24321597.6774
      1298.9194
   9711048.38347   7549104.28144  23010076.5214   23010074.7474
     -3841.8174
  -1521598.55148  -1185292.35546  21415982.6774   21415981.3254
       205.9914
 04  9  7 21 43 45.0010000  0  7G 3G19G 8G13G10G23G27
   -245100.97347   -190390.92243  23286525.0134   23286525.1264
      -803.6474
  -3601284.89548  -2799531.45743  23620030.8414   23620028.7864
      1385.0394
  -5165143.58649  -4067075.66045  22354974.3564   22354973.7394
      1482.0214
   2883640.84448   2241467.75447  20793084.5214   20793082.9854
     -1754.8204
   -794666.26646   -609503.60542  24317914.0834   24317913.3684
      1290.7874
   9768745.49647   7594063.01644  23021056.0674   23021053.8804
     -3846.4744
  -1524640.55148  -1187662.73846  21415404.0834   21415401.8804
       202.8004
 04  9  7 21 44  0.0010000  0  7G 3G19G 8G13G10G23G27
   -232900.89147   -180884.35943  23288846.5754   23288846.7904
      -813.3394
  -3621970.50848  -2815650.08643  23616094.9274   23616092.5754
      1379.0414
  -5187326.08648  -4084360.70345  22350753.3024   22350752.1574
      1478.8334
   2910084.14848   2262072.91447  20798117.0054   20798114.8534
     -1762.8874
   -813906.26646   -624495.80942  24314253.3564   24314251.7514
      1282.6674
   9826511.79747   7639075.67244  23032048.8804   23032046.4274
     -3851.0874
  -1527634.99248  -1189996.06246  21414834.5134   21414832.6184
       199.6294
 04  9  7 21 44 15.0010000  0  7G 3G19G 8G13G10G23G27
   -220555.23447   -171264.36343  23291196.0284   23291195.7004
      -823.0444
  -3642565.44548  -2831698.06243  23612175.7554   23612174.0834
      1372.9964
  -5209460.30149  -4101608.12945  22346541.1924   22346539.9504
      1475.6144
   2936648.69948   2282772.55947  20803171.9114   20803169.7434
     -1770.9704
   -833024.00046   -639392.73042  24310614.8414   24310614.0484
      1274.5164
   9884347.41447   7684142.35244  23043054.8024   23043052.3884
     -3855.7084
  -1530581.63748  -1192292.14146  21414273.3024   21414271.5324
       196.4434
 04  9  7 21 44 30.0010000  0  7G 3G19G 8G13G10G23G27
   -208062.17647   -161529.50043  23293573.4354   23293572.3764
      -832.8714
  -3663067.66448  -2847673.77743  23608274.0524   23608272.6224
      1366.8154
  -5231544.48449  -4118816.56645  22342338.4664   22342337.6144
      1472.2794
   2963336.12148   2303567.94547  20808250.2714   20808248.4974
     -1779.1614
   -852017.42246   -654192.78142  24307000.5284   24306999.9704
      1266.2284
   9942253.90248   7729264.24644  23054074.4584   23054072.1224
     -3860.4334
  -1533478.72348  -1194549.61346  21413721.7944   21413719.6614
       193.1394
 04  9  7 21 44 45.0010000  0  7G 3G19G 8G13G10G23G27
   -195423.27747   -151680.99643  23295977.8804   23295977.3294
      -842.5934
  -3683478.42648  -2863578.23843  23604389.7944   23604387.5714
      1360.7174
  -5253580.16849  -4135987.20745  22338145.8254   22338144.4504
      1469.0464
   2990144.90648   2324457.90247  20813351.7474   20813349.6494
     -1787.2524
   -870887.86346   -668897.00442  24303409.8564   24303409.3024
      1258.0294
  10000229.47747   7774439.97744  23065106.8884   23065103.9544
     -3865.0384
  -1536327.89548  -1196769.73846  21413179.9194   21413178.1384
       189.9454
 04  9  7 21 45  0.0010000  0  7G 3G19G 8G13G10G23G27
   -182640.63747   -141720.50042  23298410.6694   23298410.0364
      -852.1764
  -3703799.56248  -2879412.86343  23600523.3644   23600521.3294
      1354.7424
  -5275569.50849  -4153121.73445  22333961.5604   22333960.2204
      1465.9564
   3017072.97349   2345440.79747  20818476.2944   20818474.0794
     -1795.2044
   -889637.34046   -683506.98842  24299841.7784   24299841.0014
      1249.9654
  10058271.76247   7819667.69544  23076151.9354   23076149.2314
     -3869.4864
  -1539131.23049  -1198954.14846  21412646.4744   21412644.7164
       186.8894
 04  9  7 21 45 15.0010000  0  7G 3G19G 8G13G10G23G27
   -169711.11747   -131645.55943  23300870.9504   23300870.7164
      -861.9684
  -3724027.66048  -2895174.98443  23596673.6304   23596672.1184
      1348.5404
  -5297509.41049  -4170217.73445  22329786.4034   22329785.4584
      1462.6604
   3044123.30549   2366518.97747  20823623.4744   20823621.5364
     -1803.3554
   -908262.56246   -698020.12142  24296297.6774   24296296.6654
      1241.6824
  10116383.72747   7864949.69944  23087210.5674   23087207.6614
     -3874.1314
  -1541885.62949  -1201100.42646  21412122.4894   21412120.4894
       183.6274
 04  9  7 21 45 30.0010000  0  7G 3G19G 8G13G10G23G27
   -156632.85947   -121454.71143  23303360.4814   23303359.5174
      -871.8844
  -3744160.48048  -2910862.86343  23592842.3644   23592841.0214
      1342.1884
  -5319398.05149  -4187273.80945  22325620.4114   22325620.1814
      1459.2434
   3071297.83649   2387693.92647  20828794.8414   20828792.5994
     -1811.6354
   -926761.31246   -712434.72742  24292777.4114   24292776.9074
      1233.2504
  10174566.98047   7910287.27343  23098281.9114   23098279.2354
     -3878.8844
  -1544589.30549  -1203207.18046  21411607.6464   21411606.1034
       180.2454
 04  9  7 21 45 45.0010000  0  7G 3G19G 8G13G10G23G27
   -143408.58246   -111150.06243  23305876.4744   23305875.8994
      -881.6184
  -3764200.43747  -2926478.38743  23589028.7714   23589026.8134
      1335.9974
  -5341237.98049  -4204291.91845  22321464.7634   22321463.8024
      1455.9954
   3098593.73849   2408963.44546  20833989.0994   20833986.8214
     -1819.7274
   -945136.26646   -726752.86742  24289280.6614   24289279.6694
      1224.9974
  10232818.61347   7955678.11744  23109366.5444   23109363.8494
     -3883.4424
  -1547244.91049  -1205276.48447  21411102.5604   21411100.6304
       177.0404
 04  9  7 21 46  0.0010000  0  7G 3G19G 8G13G10G23G27
   -130037.93447   -100731.37543  23308420.4664   23308419.7744
      -891.3774
  -3784146.89147  -2942021.06643  23585233.2164   23585231.2354
      1329.7644
  -5363028.80149  -4221271.75445  22317318.4034   22317316.6734
      1452.7214
   3126011.40649   2430327.85546  20839206.7084   20839204.2864
     -1827.8454
   -963386.77045   -740974.02342  24285807.3414   24285806.5364
      1216.7004
  10291138.72747   8001122.32043  23120464.8884   23120461.8064
     -3888.0084
  -1549852.03949  -1207308.00846  21410606.4194   21410604.7904
       173.8094
 04  9  7 21 46 15.0010000  0  7G 3G19G 8G13G10G23G27
   -116523.28947    -90200.48443  23310992.5444   23310991.0524
      -900.9764
  -3804002.03547  -2957492.57043  23581454.4194   23581452.9744
      1323.6764
  -5384772.92249  -4238215.20745  22313180.1224   22313179.0994
      1449.6084
   3153548.30549   2451785.16446  20844446.5054   20844444.4504
     -1835.7934
   -981515.03146   -755099.91842  24282357.6694   24282356.8724
      1208.5514
  10349524.77747   8046617.89844  23131575.5134   23131572.8964
     -3892.4034
  -1552413.31249  -1209303.79746  21410119.0444   21410117.2394
       170.7524
 04  9  7 21 46 30.0010000  0  7G 3G19G 8G13G10G23G27
   -102860.58247    -79554.21943  23313592.0674   23313591.0674
      -910.8474
  -3823761.43447  -2972889.48043  23577694.5754   23577692.6144
      1317.2934
  -5406466.27049  -4255119.09845  22309052.1924   22309050.8534
      1446.2234
   3181208.53949   2473338.59446  20849710.0214   20849708.0604
     -1844.0164
   -999516.80546   -769127.24242  24278932.3104   24278931.3494
      1200.1184
  10407980.56348   8092167.81344  23142699.0444   23142696.7164
     -3897.0524
  -1554924.55549  -1211260.60546  21409640.9744   21409639.2864
       167.4164
 04  9  7 21 46 45.0010000  0  7G 3G19G 8G13G10G23G27
    -89052.10247    -68794.36343  23316219.9114   23316218.5874
      -920.5654
  -3843426.99248  -2988213.26244  23573953.3104   23573950.5364
      1311.0374
  -5428111.25849  -4271985.29345  22304933.3804   22304932.0754
      1442.9994
   3208989.75448   2494986.29746  20854996.4274   20854994.8844
     -1852.0814
  -1017394.19546   -783057.67242  24275530.1614   24275529.4314
      1191.8264
  10466503.61747   8137770.13744  23153836.8024   23153833.3884
     -3901.5374
  -1557387.98448  -1213180.16446  21409172.4114   21409170.5794
       164.2294
 04  9  7 21 47  0.0010000  0  7G 3G19G 8G13G10G23G27
    -75098.47747    -57921.40643  23318875.0524   23318874.8254
      -930.2424
  -3862999.04747  -3003464.18043  23570228.3804   23570227.1924
      1304.8044
  -5449708.37148  -4288814.19945  22300823.9504   22300822.6104
      1439.8084
   3236891.23448   2516727.71147  20860306.2714   20860304.0054
     -1860.0994
  -1035147.50846   -796891.40242  24272151.4814   24272151.0324
      1183.5544
  10525093.09847   8183424.24244  23164985.2474   23164982.6814
     -3905.9654
  -1559804.35948  -1215063.03946  21408711.9894   21408710.7784
       161.0924
 04  9  7 21 47 15.0010000  0  7G 3G19G 8G13G10G23G27
    -60997.64147    -46933.73843  23321558.6384   23321558.3294
      -940.0564
  -3882475.19148  -3018640.37543  23566522.0604   23566520.0054
      1298.4104
  -5471255.32849  -4305604.02045  22296723.0674   22296722.4624
      1436.4644
   3264915.13749   2538564.50846  20865638.8724   20865636.9234
     -1868.2604
  -1052774.44546   -810626.66442  24268797.3334   24268797.6264
      1175.1294
  10583750.99247   8229131.64544  23176147.5134   23176144.9424
     -3910.5264
  -1562171.47749  -1216907.54746  21408261.9894   21408260.3804
       157.8084
 04  9  7 21 47 30.0010000  0  7G 3G19G 8G13G10G23G27
    -46752.20747    -35833.39143  23324269.0674   23324268.8414
      -949.6964
  -3901857.97348  -3033743.80543  23562833.4894   23562830.9934
      1292.1854
  -5492754.80149  -4322356.83245  22292631.8414   22292631.2904
      1433.2984
   3293058.65248   2560494.50446  20870994.3884   20870992.2354
     -1876.2344
  -1070277.49346   -824265.43742  24265466.8724   24265466.6734
      1166.8704
  10642474.30547   8274890.02743  23187322.1224   23187318.9704
     -3914.8874
  -1564492.17248  -1218715.87546  21407820.4114   21407818.8334
       154.7134
 04  9  7 21 47 45.0010000  0  7G 3G19G 8G13G10G23G27
    -32361.66447    -24619.98843  23327007.9974   23327006.6884
      -959.3704
  -3921146.38348  -3048773.71143  23559163.2314   23559160.1814
      1285.8944
  -5514206.34449  -4339072.29345  22288549.8104   22288548.9354
      1430.1034
   3321322.34048   2582518.14146  20876372.8174   20876370.5564
     -1884.2464
  -1087655.91845   -837807.01642  24262160.4424   24262159.3454
      1158.5624
  10701263.36747   8320699.63743  23198509.4194   23198506.3924
     -3919.2714
  -1566765.79348  -1220487.52046  21407387.9354   21407386.3064
       151.5754
 04  9  7 21 48  0.0010000  0  7G 3G19G 8G13G10G23G27
    -17826.50847    -13293.88343  23329773.7714   23329773.0214
      -969.0104
  -3940340.60948  -3063730.22343  23555510.5524   23555507.7084
      1279.6154
  -5535610.49649  -4355750.83245  22284476.5994   22284475.6854
      1426.9434
   3349705.75848   2604635.07447  20881774.0054   20881771.9934
     -1892.2284
  -1104909.95346   -851251.71142  24258876.5134   24258875.4464
      1150.2694
  10760117.48447   8366559.95744  23209708.9584   23209706.0674
     -3923.6084
  -1568992.82448  -1222222.86747  21406963.9194   21406962.2714
       148.4694
 04  9  7 21 48 15.0010000  0  7G 3G19G 8G13G10G23G27
     -3144.42647     -1853.29743  23332567.8494   23332566.7714
      -978.8054
  -3959438.10948  -3078611.36743  23551876.6064   23551873.6384
      1273.1674
  -5556965.00449  -4372390.69145  22280412.8254   22280411.9854
      1423.6344
   3378211.11748   2626847.03547  20887198.3494   20887196.4934
     -1900.3574
  -1122037.21945   -864597.62142  24255617.2004   24255616.4274
      1141.8184
  10819038.68447   8412472.53144  23220921.5444   23220918.5094
     -3928.0804
  -1571171.05549  -1223920.18746  21406549.4664   21406547.6494
       145.2154
 04  9  7 21 48 30.0010000  0  7G 3G19G 8G13G10G23G27
     11683.18047      9700.68843  23335389.6064   23335388.8374
      -988.5074
  -3978439.96947  -3093417.99643  23548260.6694   23548257.9314
      1266.7914
  -5578270.99249  -4388992.73445  22276358.5754   22276357.3844
      1420.3994
   3406836.95749   2649152.87546  20892645.7314   20892643.7474
     -1908.3894
  -1139038.90246   -877845.66442  24252381.4034   24252381.3604
      1133.4464
  10878025.38347   8458436.15243  23232146.0364   23232143.2864
     -3932.4474
  -1573301.92249  -1225580.59846  21406143.9974   21406142.3494
       142.0584
 04  9  7 21 48 45.0020000  0  7G 3G19G 8G13G10G23G27
     26658.38348     21369.69143  23338239.4794   23338238.6314
      -998.3474
  -3997346.14148  -3108150.04743  23544662.8304   23544660.0494
      1260.4114
  -5599528.85249  -4405557.29345  22272313.2134   22272312.4244
      1417.1914
   3435586.16448   2671554.85246  20898116.6504   20898114.4324
     -1916.6144
  -1155914.80146   -890995.71142  24249170.0724   24249170.1744
      1125.0604
  10937082.34847   8504454.50043  23243384.2754   23243381.3894
     -3937.1314
  -1575384.44548  -1227203.34046  21405747.9164   21405746.0104
       138.8354
 04  9  7 21 49  0.0020000  0  7G 3G19G 8G13G10G23G27
     41778.33248     33151.46143  23341116.3544   23341115.8934
     -1007.9974
  -4016154.60948  -3122805.96944  23541083.6664   23541081.7604
      1253.8984
  -5620736.64849  -4422082.83245  22268277.7444   22268276.5254
      1413.8534
   3464454.02049   2694049.27346  20903610.0104   20903607.8614
     -1924.5244
  -1172663.63745   -904046.73442  24245983.5574   24245982.7174
      1116.5894
  10996200.60247   8550520.64143  23254633.8224   23254630.4324
     -3941.2174
  -1577419.23449  -1228788.88746  21405360.4864   21405358.5414
       135.6534
 04  9  7 21 49 15.0020000  0  7G 3G19G 8G13G10G23G27
     57047.05147     45049.16443  23344021.5184   23344021.2914
     -1017.9154
  -4034863.28148  -3137384.11344  23537523.6824   23537521.5534
      1247.2454
  -5641892.79349  -4438568.12945  22264251.9004   22264250.5724
      1410.4104
   3493445.51649   2716640.04346  20909126.9634   20909124.6274
     -1932.7664
  -1189282.91046   -916996.79342  24242820.9864   24242820.2404
      1107.9524
  11055387.12947   8596639.98043  23265896.9084   23265893.2254
     -3945.7684
  -1579403.37549  -1230334.96546  21404982.6114   21404980.8184
       132.2764
 04  9  7 21 49 30.0020000  0  7G 3G19G 8G13G10G23G27
     72462.46947     57061.16843  23346955.1744   23346954.9634
     -1027.6954
  -4053473.84847  -3151885.80543  23533981.4944   23533980.2484
      1240.7044
  -5662999.32849  -4455014.76645  22260235.3304   22260234.1934
      1407.1024
   3522558.51649   2739325.47747  20914667.0254   20914664.6744
     -1940.8674
  -1205774.59046   -929847.43742  24239682.9004   24239682.1274
      1099.4454
  11114639.50447   8642810.62143  23277172.5254   23277169.3894
     -3950.1584
  -1581338.87149  -1231843.14146  21404614.3694   21404612.8734
       129.0334
 04  9  7 21 49 45.0020000  0  7G 3G19G 8G13G10G23G27
     88022.14847     69185.59443  23349915.8144   23349915.1974
     -1037.3124
  -4071988.60948  -3166312.86343  23530458.5494   23530456.1664
      1234.3174
  -5684058.60249  -4471424.58245  22256227.7444   22256226.7604
      1403.9524
   3551790.61349   2762103.72747  20920229.5184   20920227.3424
     -1948.8074
  -1222140.86746   -942600.38342  24236567.9164   24236567.2254
      1091.0854
  11173955.03548   8689030.48044  23288460.3144   23288457.2054
     -3954.3694
  -1583228.31249  -1233315.43046  21404255.0104   21404253.3074
       125.9634
 04  9  7 21 50  0.0020000  0  7G 3G19G 8G13G10G23G27
    103727.00447     81423.16043  23352904.9394   23352904.4004
     -1046.9904
  -4090406.08248  -3180664.13743  23526954.3144   23526951.2324
      1227.8324
  -5705069.59049  -4487796.76245  22252229.6894   22252228.7524
      1400.7334
   3581142.62149   2784975.41446  20925815.2214   20925813.2014
     -1956.8014
  -1238380.63746   -955254.73842  24233478.1434   24233476.8814
      1082.6514
  11233334.50447   8735300.16044  23299759.2684   23299756.3544
     -3958.6314
  -1585070.64149  -1234751.00046  21403904.1894   21403902.4984
       122.8224
 04  9  7 21 50 15.0020000  0  7G 3G19G 8G13G10G23G27
    119579.21148     93775.52343  23355921.3144   23355920.5844
     -1056.8144
  -4108723.80148  -3194937.66043  23523467.8774   23523465.5494
      1221.1814
  -5726029.93049  -4504129.48045  22248241.0024   22248240.1824
      1397.3564
   3610616.79349   2807942.28946  20931423.9004   20931421.6394
     -1964.9454
  -1254491.42646   -967808.57442  24230412.3774   24230411.4514
      1074.0534
  11292780.01647   8781621.29344  23311071.8934   23311069.1074
     -3963.0344
  -1586863.62949  -1236148.12546  21403563.3304   21403561.5104
       119.5334
 04  9  7 21 50 30.0020000  0  7G 3G19G 8G13G10G23G27
    135578.17648    106242.25443  23358965.5024   23358965.2214
     -1066.5984
  -4126942.30148  -3209133.86743  23520001.2914   23519998.7134
      1214.5674
  -5746940.55949  -4520423.46945  22244262.0104   22244260.5764
      1394.0424
   3640212.39149   2831003.78147  20937055.7364   20937053.5724
     -1973.0404
  -1270473.89146   -980262.43742  24227370.8544   24227369.9474
      1065.4984
  11352290.61748   8827993.12544  23322397.0644   23322393.6744
     -3967.3734
  -1588608.00049  -1237507.37546  21403231.0644   21403229.1664
       116.2914
 04  9  7 21 50 45.0020000  0  7G 3G19G 8G13G10G23G27
    151723.53548    118823.04743  23362038.2054   23362037.7604
     -1076.3574
  -4145061.41448  -3223252.62143  23516553.1664   23516550.9904
      1207.9414
  -5767801.49249  -4536678.71945  22240291.9794   22240290.9164
      1390.7294
   3669929.01249   2854159.59046  20942710.6044   20942708.4634
     -1981.1084
  -1286327.93746   -992616.21542  24224353.7994   24224353.3964
      1056.9364
  11411865.81648   8874415.31643  23333732.9004   23333730.6784
     -3971.6804
  -1590303.98049  -1238828.91446  21402908.4554   21402906.6624
       113.0654
 04  9  7 21 51  0.0020000  0  7G 3G19G 8G13G10G23G27
    168015.98848    131518.46943  23365138.1824   23365137.9674
     -1086.1644
  -4163080.06648  -3237293.09444  23513124.3614   23513122.5764
      1201.2434
  -5788612.08249  -4552894.74245  22236332.0964   22236330.6784
      1387.3734
   3699767.34849   2877410.23046  20948388.7994   20948386.8734
     -1989.2224
  -1302052.62546  -1004869.21542  24221361.5964   24221360.6074
      1048.3134
  11471506.19947   8920888.30143  23345081.4394   23345079.3964
     -3976.0264
  -1591950.90249  -1240112.23446  21402594.7684   21402592.9514
       109.7954
 04  9  7 21 51 15.0020000  0  8G 3G19G 8G13G10G28G23G27
    184453.38748    144326.82843  23368265.9084   23368265.8734
     -1095.8274
  -4181000.12948  -3251256.73844  23509713.9714   23509712.4944
      1194.6714
  -5809374.35249  -4569073.11745  22232381.0184   22232379.7484
      1384.1514
   3729725.25849   2900754.05546  20954089.5184   20954087.2684
     -1997.1944
  -1317649.91446  -1017022.93442  24218393.5494   24218392.6864
      1039.8194
   -117586.27757    -80695.71552  24716078.8694   24716079.0214

  11531209.27047   8967410.12943  23356443.5334   23356440.0064
     -3980.2054
  -1593550.77049  -1241358.87946  21402290.5184   21402288.7794
       106.6584
 04  9  7 21 51 30.0020000  0  8G 3G19G 8G13G10G28G23G27
    201035.16048    157247.71143  23371421.0644   23371420.7094
     -1105.4524
  -4198822.08647  -3265143.93444  23506322.9474   23506320.5024
      1188.1304
  -5830088.94149  -4585214.34445  22228439.3384   22228438.2404
      1380.9734
   3759802.20749   2924190.62946  20959812.9634   20959810.8504
     -2005.1304
  -1333120.12947  -1029077.63342  24215449.8384   24215448.6934
      1031.3484
   -157063.85247   -111457.37942  24708565.5724   24708567.5534
      2631.8384
  11590974.32048   9013980.25043  23367816.3774   23367813.7134
     -3984.3374
  -1595104.23049  -1242569.36346  21401994.8854   21401993.0684
       103.5644
 04  9  7 21 51 45.0020000  0  8G 3G19G 8G13G10G28G23G27
    217761.90648    170281.53943  23374604.2994   23374604.4634
     -1115.1164
  -4216544.82047  -3278953.81644  23502950.4864   23502947.7994
      1181.5164
  -5850754.94949  -4601317.71545  22224506.2444   22224505.5964
      1377.7344
   3789998.76649   2947720.39546  20965559.2834   20965557.1544
     -2013.1044
  -1348462.52747  -1041032.73442  24212529.7444   24212529.3264
      1022.8274
   -196505.86347   -142191.33642  24701060.5964   24701061.7054
      2629.4674
  11650801.86347   9060599.08243  23379201.0804   23379198.0614
     -3988.5034
  -1596610.62949  -1243743.18046  21401708.3694   21401706.6464
       100.4274
 04  9  7 21 52  0.0020000  0  8G 3G19G 8G13G10G28G23G27
    234632.45348    183427.43443  23377814.9004   23377814.9824
     -1124.7034
  -4234169.16048  -3292687.03944  23499596.4004   23499594.1624
      1174.9564
  -5871373.56649  -4617384.15245  22220582.9394   22220582.1464
      1374.5744
   3820313.63349   2971342.34846  20971328.1274   20971325.8384
     -2020.9914
  -1363678.05947  -1052888.96942  24209635.0254   24209634.2874
      1014.3694
   -235913.32847   -172898.39142  24693561.3544   24693562.6234
      2627.1644
  11710690.44147   9107265.44943  23390597.8384   23390594.1234
     -3992.5724
  -1598071.22749  -1244881.30146  21401430.2444   21401428.5964
        97.3734
 04  9  7 21 52 15.0020000  0  8G 3G19G 8G13G10G28G23G27
    251648.37148    196686.59443  23381053.3304   23381052.8814
     -1134.3954
  -4251693.31647  -3306342.20744  23496261.9944   23496260.1194
      1168.2774
  -5891943.30949  -4633412.50445  22216668.7214   22216667.7134
      1371.3164
   3850748.40649   2995057.75446  20977119.6894   20977117.2754
     -2028.9854
  -1378765.04747  -1064645.05542  24206763.4944   24206763.0254
      1005.7994
   -275284.59447   -203577.22342  24686068.9084   24686070.1464
      2624.7514
  11770641.37547   9153980.42243  23402005.8304   23402003.3854
     -3996.7294
  -1599484.36749  -1245982.44546  21401161.1354   21401159.8734
        94.2094
 04  9  7 21 52 30.0020000  0  8G 3G19G 8G13G10G28G23G27
    268808.08648    210057.80143  23384318.5574   23384318.4554
     -1143.9814
  -4269118.42247  -3319920.19144  23492945.6354   23492944.3074
      1161.6744
  -5912465.74649  -4649403.99645  22212763.2214   22212761.8654
      1368.1624
   3881301.49249   3018865.35246  20982933.6974   20982931.1434
     -2036.8724
  -1393724.82447  -1076301.99242  24203917.2054   24203915.8074
       997.3184
   -314620.85247   -234228.78542  24678583.5414   24678584.3144
      2622.4174
  11830652.98447   9200742.66043  23413426.1824   23413422.6864
     -4000.7744
  -1600851.57049  -1247047.79746  21400901.1434   21400899.7794
        91.1474
 04  9  7 21 52 45.0020000  0  8G 3G19G 8G13G10G28G23G27
    286112.04748    223541.40643  23387611.1584   23387611.5144
     -1153.5974
  -4286443.69947  -3333420.37143  23489648.6354   23489647.7364
      1155.0184
  -5932940.26249  -4665358.14145  22208866.9554   22208866.1074
      1364.9684
   3911973.42649   3042765.56346  20988770.2294   20988767.7324
     -2044.7964
  -1408556.53147  -1087859.16442  24201094.5104   24201094.0414
       988.7804
   -353921.45747   -264852.53142  24671104.6114   24671105.9514
      2620.0404
  11890725.61747   9247552.45743  23424857.2294   23424855.3464
     -4004.8424
  -1602172.30549  -1248076.93446  21400650.2994   21400648.4044
        88.0494
 04  9  7 21 53  0.0020000  0  8G 3G19G 8G13G10G28G23G27
    303562.88748    237139.46943  23390931.8854   23390931.9864
     -1163.3894
  -4303666.23847  -3346840.49243  23486371.8854   23486369.8574
      1148.1694
  -5953364.23049  -4681272.91845  22204980.5574   22204979.3544
      1361.5984
   3942766.73449   3066760.33646  20994629.9084   20994627.9434
     -2052.8874
  -1423257.46946  -1099314.43042  24198296.6434   24198295.9714
       980.0634
   -393183.68046   -295446.39842  24663632.6664   24663634.8224
      2617.4824
  11950861.49248   9294411.54343  23436301.5024   23436297.3614
     -4009.0584
  -1603443.96549  -1249067.84046  21400408.1434   21400406.1464
        84.7774
 04  9  7 21 53 15.0020000  0  8G 3G19G 8G13G10G28G23G27
    321161.64148    250852.79343  23394280.3774   23394280.5024
     -1173.2504
  -4320784.75847  -3360179.56244  23483113.5024   23483111.4634
      1141.2354
  -5973736.34849  -4697147.27345  22201104.0254   22201102.7174
      1358.1414
   3973682.46549   3090850.51246  21000513.0804   21000510.8184
     -2061.0494
  -1437826.40646  -1110666.84042  24195524.6824   24195523.4594
       971.2634
   -432406.24246   -326009.34442  24656168.4164   24656170.4594
      2614.8384
  12011061.53947   9341320.63743  23447756.7914   23447753.6394
     -4013.3364
  -1604665.48849  -1250019.66846  21400175.3074   21400173.6234
        81.4354
 04  9  7 21 53 30.0020000  0  8G 3G19G 8G13G10G28G23G27
    338908.48848    264681.50843  23397658.0804   23397657.8144
     -1183.1234
  -4337798.71947  -3373437.14843  23479876.6664   23479874.4124
      1134.2644
  -5994056.62949  -4712981.24245  22197237.3224   22197235.7994
      1354.6854
   4004720.64849   3115036.09446  21006419.4164   21006417.2834
     -2069.2124
  -1452262.90246  -1121916.03942  24192776.7914   24192776.5844
       962.4334
   -471588.72347   -356541.04342  24648712.6434   24648714.2564
      2612.1654
  12071325.75848   9388279.73443  23459224.3774   23459221.8814
     -4017.6154
  -1605836.62949  -1250932.24646  21399952.6504   21399951.1354
        78.0764
 04  9  7 21 53 45.0020000  0  8G 3G19G 8G13G10G28G23G27
    356802.15648    278624.62943  23401063.2294   23401063.3384
     -1192.9114
  -4354709.03947  -3386613.99243  23476658.1434   23476655.9474
      1127.3554
  -6014326.19549  -4728775.68445  22193380.1044   22193378.8264
      1351.3044
   4035879.94149   3139316.04346  21012348.9554   21012346.9634
     -2077.2864
  -1466568.11345  -1133062.91842  24190054.6744   24190054.6114
       953.6814
   -510732.15646   -387042.35542  24641263.6194   24641265.4434
      2609.5624
  12131652.77047   9435287.76643  23470704.0104   23470701.2714
     -4021.8014
  -1606958.73449  -1251806.60946  21399739.2134   21399737.1664
        74.8074
 04  9  7 21 54  0.0020000  0  8G 3G19G 8G13G10G28G23G27
    374842.95748    292682.39543  23404496.2684   23404496.2914
     -1202.7204
  -4371515.10247  -3399709.59043  23473459.6974   23473457.7714
      1120.4044
  -6034544.77349  -4744530.39845  22189532.3774   22189531.2134
      1347.9054
   4067160.58249   3163690.55546  21018301.2684   21018299.2324
     -2085.3764
  -1480741.53546  -1144107.13742  24187357.8614   24187357.0804
       944.8954
   -549836.08646   -417512.84042  24633822.6744   24633824.1504
      2606.9294
  12192042.52748   9482344.64843  23482196.3544   23482193.7524
     -4025.9844
  -1608031.44549  -1252642.48446  21399534.8144   21399533.5924
        71.5144
 04  9  7 21 54 15.0020000  0  8G 3G19G 8G13G10G28G23G27
    393030.23048    306854.30143  23407957.4394   23407957.2404
     -1212.4854
  -4388217.23047  -3412724.19143  23470281.4004   23470279.1154
      1113.4754
  -6054712.72349  -4760245.66445  22185694.2444   22185693.1664
      1344.5304
   4098562.11349   3188159.27046  21024276.9084   21024274.7954
     -2093.4354
  -1494783.35246  -1155048.79742  24184685.1974   24184685.2214
       936.1214
   -588900.86347   -447952.85242  24626389.1584   24626390.9364
      2604.3184
  12252494.43048   9529449.98044  23493700.0494   23493697.7714
     -4030.1274
  -1609055.23449  -1253440.23846  21399339.9634   21399338.6464
        68.2534
 04  9  7 21 54 30.0020000  0  8G 3G19G 8G13G10G28G23G27
    411364.07448    321140.41843  23411446.0104   23411445.9084
     -1222.2564
  -4404814.94147  -3425657.43744  23467122.7054   23467121.6194
      1106.5144
  -6074830.04349  -4775921.47745  22181866.2444   22181865.4044
      1341.1554
   4130084.55549   3212722.19146  21030275.2834   21030273.5184
     -2101.4964
  -1508693.32446  -1165887.74242  24182038.9164   24182038.6234
       927.3324
   -627926.21147   -478362.10942  24618962.7684   24618963.8964
      2601.6904
  12313008.23847   9576603.55543  23505214.7444   23505213.1784
     -4034.2544
  -1610030.07449  -1254199.84446  21399154.6974   21399153.1354
        64.9894
 04  9  7 21 54 45.0020000  0  8G 3G19G 8G13G10G28G23G27
    429846.56348    335542.35943  23414963.3694   23414962.6934
     -1232.1664
  -4421305.85547  -3438507.47743  23463985.0254   23463983.2874
      1099.3944
  -6094894.44949  -4791556.05945  22178048.3464   22178047.2254
      1337.6274
   4161730.09449   3237381.03947  21036297.4474   21036295.2214
     -2109.7034
  -1522469.23846  -1176622.21142  24179417.8384   24179416.7294
       918.3944
   -666909.87547   -508738.90242  24611544.3074   24611544.7294
      2598.9114
  12373585.91448   9623806.87943  23516742.6274   23516741.4824
     -4038.5124
  -1610953.74649  -1254919.58646  21398978.4394   21398977.5254
        61.5784
 04  9  7 21 55  0.0020000  0  8G 3G19G 8G13G10G28G23G27
    448475.78148    350058.65243  23418508.4714   23418507.3774
     -1241.9484
  -4437691.68447  -3451275.62143  23460866.8614   23460864.6664
      1092.3894
  -6114907.89149  -4807150.93445  22174239.7294   22174238.6114
      1334.2294
   4193496.69549   3262134.23446  21042342.2444   21042340.1744
     -2117.7734
  -1536112.80546  -1187253.53942  24176820.2524   24176819.7134
       909.5714
   -705853.44547   -539084.48042  24604133.9164   24604134.2484
      2596.2384
  12434225.41047   9671058.37943  23528281.0644   23528279.2754
     -4042.6334
  -1611828.11349  -1255600.90246  21398812.3144   21398810.9394
        58.2914
 04  9  7 21 55 15.0020000  0  8G 3G19G 8G13G10G28G23G27
    467252.89548    364690.17243  23422081.2294   23422080.4474
     -1251.8084
  -4453970.74648  -3463960.57844  23457769.3934   23457767.0684
      1085.2714
  -6134868.98849  -4822705.01645  22170441.0964   22170440.2324
      1330.7404
   4225385.57049   3286982.69546  21048410.6744   21048408.5454
     -2125.9254
  -1549622.54346  -1197780.58242  24174250.1744   24174249.9044
       900.6494
   -744755.56647   -569397.75442  24596730.9394   24596730.9084
      2593.4754
  12494927.74247   9718358.83243  23539832.5574   23539831.5614
     -4046.8224
  -1612652.03549  -1256242.92246  21398655.4324   21398654.0644
        54.9284
 04  9  7 21 55 30.0020000  0  8G 3G19G 8G13G10G28G23G27
    486175.42648    379435.01643  23425682.0024   23425681.2914
     -1261.5024
  -4470145.33647  -3476564.11344  23454691.4554   23454688.9244
      1078.3064
  -6154780.32849  -4838220.32845  22166652.5254   22166651.1044
      1327.4234
   4257394.00449   3311924.32046  21054501.8144   21054499.2794
     -2133.8964
  -1563000.76646  -1208205.15242  24171704.2994   24171703.8774
       891.8824
   -783618.57847   -599680.53142  24589335.1584   24589335.3854
      2590.8674
  12555690.17648   9765706.15643  23551395.7524   23551393.1864
     -4050.8294
  -1613427.87549  -1256847.46946  21398508.0724   21398506.6504
        51.7234
 04  9  7 21 55 45.0020000  0  8G 3G19G 8G13G10G28G23G27
    505247.18448    394296.12543  23429311.4864   23429310.4944
     -1271.4514
  -4486211.27747  -3489083.01243  23451634.3224   23451631.8074
      1071.0634
  -6174638.04749  -4853693.85245  22162873.6114   22162872.3504
      1323.8484
   4289525.84049   3336962.10246  21060616.1274   21060614.2564
     -2142.1224
  -1576243.51246  -1218524.17642  24169184.1194   24169183.4754
       882.8504
   -822438.46146   -629929.71942  24581947.1274   24581948.6394
      2587.9924
  12616516.34048   9813103.10243  23562971.3774   23562968.6934
     -4055.0784
  -1614151.91449  -1257411.64546  21398370.6114   21398369.0844
        48.2694
 04  9  7 21 56  0.0020000  0  8G 3G19G 8G13G10G28G23G27
    524467.34848    409272.89143  23432968.7214   23432968.2094
     -1281.3444
  -4502169.04748  -3501517.59443  23448597.9164   23448595.0144
      1063.8514
  -6194442.66849  -4869126.00845  22159104.6504   22159103.4984
      1320.3084
   4321780.30949   3362095.43046  21066754.3074   21066751.9984
     -2150.2984
  -1589351.31646  -1228738.03942  24166690.1114   24166689.6044
       873.8544
   -861215.77746   -660145.69942  24574568.3464   24574570.1154
      2585.1544
  12677405.20348   9860548.93043  23574558.0574   23574555.9864
     -4059.2584
  -1614824.88749  -1257936.03146  21398242.2364   21398240.6434
        44.8654
 04  9  7 21 56 15.0020000  0  8G 3G19G 8G13G10G28G23G27
    543834.84848    424364.45743  23436654.4864   23436654.2404
     -1291.1674
  -4518019.40248  -3513868.48044  23445580.8854   23445578.8424
      1056.6904
  -6214195.22349  -4884517.58245  22155345.8694   22155344.3574
      1316.8374
   4354156.23449   3387323.41446  21072915.0494   21072912.9434
     -2158.3954
  -1602325.02346  -1238847.40642  24164220.7994   24164220.1544
       864.9144
   -899951.34846   -690329.16042  24567197.1354   24567197.8304
      2582.3714
  12738355.47348   9908042.60543  23586156.1354   23586154.5844
     -4063.3514
  -1615447.69549  -1258421.33246  21398123.9164   21398122.0844
        41.5214
 04  9  7 21 56 30.0020000  0  8G 3G19G 8G13G10G28G23G27
    563349.39848    439570.60943  23440367.9004   23440367.3504
     -1300.9704
  -4533762.11348  -3526135.50444  23442585.2364   23442583.4634
      1049.5144
  -6233895.99649  -4899868.82445  22151597.1044   22151595.6074
      1313.3854
   4386653.50849   3412645.95346  21079098.9944   21079096.7014
     -2166.4854
  -1615164.64846  -1248852.31242  24161777.7604   24161776.9284
       855.9754
   -938645.23046   -720480.18442  24559833.5644   24559834.7364
      2579.5924
  12799366.83248   9955583.89843  23597766.1114   23597764.2994
     -4067.4244
  -1616020.62149  -1258867.75846  21398014.3774   21398012.8814
        38.1954
 04  9  7 21 56 45.0020000  0  8G 3G19G 8G13G10G28G23G27
    583012.19147    454892.27343  23444109.4474   23444109.2054
     -1310.8534
  -4549395.79747  -3538317.56644  23439610.2444   23439608.0254
      1042.2464
  -6253543.69149  -4915178.70345  22147858.0254   22147856.9944
      1309.8464
   4419273.25049   3438063.93446  21085306.8144   21085303.9474
     -2174.6494
  -1627868.76646  -1258751.60242  24159359.7444   24159359.5684
       846.9414
   -977296.06247   -750597.60242  24552479.2364   24552480.4364
      2576.7224
  12860440.36748  10003173.59443  23609387.9634   23609385.8384
     -4071.5694
  -1616542.36749  -1259274.31646  21397915.3224   21397913.7604
        34.7834
 04  9  7 21 57  0.0020000  0  8G 3G19G 8G13G10G28G23G27
    602821.00848    470327.71543  23447879.2054   23447878.5294
     -1320.5884
  -4564922.32448  -3550416.12544  23436655.5024   23436653.2564
      1035.1024
  -6273140.45349  -4930448.88345  22144128.9394   22144127.8114
      1306.4514
   4452013.42249   3463575.75446  21091536.6194   21091534.3544
     -2182.6784
  -1640439.36746  -1268546.86742  24156967.9244   24156967.7094
       838.0404
  -1015905.63347   -780682.94142  24545132.2604   24545132.4204
      2573.9714
  12921573.63348  10050809.85243  23621021.2054   23621019.9324
     -4075.5514
  -1617015.08249  -1259642.65646  21397825.5024   21397823.5884
        31.5144
 04  9  7 21 57 15.0020000  0  8G 3G19G 8G13G10G28G23G27
    622777.91847    485878.56343  23451676.2444   23451675.5294
     -1330.4614
  -4580339.20746  -3562429.25044  23433721.7444   23433719.4394
      1027.7924
  -6292683.96549  -4945677.59045  22140409.8614   22140408.4204
      1302.9014
   4484875.94549   3489182.90646  21097789.9794   21097787.6704
     -2190.8354
  -1652874.19546  -1278236.32842  24154601.9714   24154600.6784
       828.9894
  -1054471.75047   -810734.34042  24537793.4084   24537793.7484
      2571.0744
  12982768.57448  10098494.16843  23632666.0964   23632663.8734
     -4079.6634
  -1617436.69549  -1259971.18446  21397744.9474   21397743.4084
        28.1084
 04  9  7 21 57 30.0020000  0  8G 3G19G 8G13G10G28G23G27
    642882.60548    501544.55943  23455501.9944   23455502.0534
     -1340.3124
  -4595646.57448  -3574357.03144  23430809.0494   23430806.6114
      1020.4914
  -6312174.75849  -4960865.20345  22136701.0024   22136699.7954
      1299.3864
   4517860.23049   3514884.93846  21104067.0184   21104064.5144
     -2198.9524
  -1665173.63746  -1287820.29742  24152261.5024   24152259.6434
       819.9634
  -1092994.64147   -840752.09442  24530462.1044   24530462.9434
      2568.1934
  13044024.53948  10146226.03943  23644323.6504   23644321.1274
     -4083.7314
  -1617807.51649  -1260260.12546  21397674.4324   21397672.8144
        24.7214
 04  9  7 21 57 45.0020000  0  8G 3G19G 8G13G10G28G23G27
    663133.35947    517324.36343  23459355.7524   23459356.2524
     -1350.0504
  -4610845.92247  -3586200.64544  23427916.6744   23427914.0684
      1013.2904
  -6331614.25449  -4976012.84445  22133002.1504   22133000.8774
      1295.9664
   4550964.60549   3540680.54346  21110366.3854   21110363.9944
     -2206.9584
  -1677338.93446  -1297299.74642  24149946.5964   24149945.1824
       811.0204
  -1131475.76247   -870737.28942  24523139.1274   24523140.1934
      2565.4084
  13105339.64148  10194004.00043  23655991.1194   23655989.1354
     -4087.6734
  -1618129.14849  -1260510.74246  21397613.2364   21397611.7644
        21.4424
 04  9  7 21 58  0.0020000  0  8G 3G19G 8G13G10G28G23G27
    683530.15648    533217.98043  23463237.1664   23463236.7364
     -1359.7864
  -4625936.70747  -3597959.67244  23425045.1434   23425042.3074
      1006.0524
  -6351002.47349  -4991120.52745  22129312.1744   22129310.9634
      1292.5484
   4584189.14549   3566569.78146  21116688.6894   21116686.4204
     -2214.9694
  -1689369.95746  -1306674.55542  24147657.4164   24147655.7014
       802.0684
  -1169914.89147   -900689.80542  24515824.8384   24515825.8544
      2562.6094
  13166713.72348  10241827.90643  23667670.1354   23667668.5614
     -4091.6054
  -1618401.54749  -1260722.99646  21397561.4714   21397559.7714
        18.1604
 04  9  7 21 58 15.0020000  0  8G 3G19G 8G13G10G28G23G27
    704074.71948    549226.73043  23467147.0184   23467146.3304
     -1369.6374
  -4640917.04348  -3609632.64544  23422195.2364   23422191.2914
       998.6894
  -6370337.51249  -5006186.78145  22125632.8614   22125631.7094
      1289.0034
   4617535.41049   3592553.86746  21123034.5494   21123031.9904
     -2223.0844
  -1701264.78146  -1315943.23442  24145393.3304   24145392.6274
       792.9884
  -1208310.14147   -930608.07842  24508518.2054   24508519.2604
      2559.6834
  13228148.31647  10289698.97343  23679360.7054   23679359.2444
     -4095.6404
  -1618623.05149  -1260895.59046  21397519.4084   21397517.7174
        14.7674
 04  9  7 21 58 30.0020000  0  8G 3G19G 8G13G10G28G23G27
    724765.41848    565349.36743  23471083.7914   23471083.6394
     -1379.3804
  -4655788.16447  -3621220.49244  23419364.6274   23419361.8734
       991.4084
  -6389620.87149  -5021212.75845  22121963.3854   22121962.0764
      1285.5574
   4651001.91049   3618631.65646  21129402.7524   21129400.8504
     -2231.1004
  -1713024.60246  -1325106.71942  24143155.8144   24143155.3934
       783.9884
  -1246662.69547   -960493.10542  24501220.0414   24501221.0534
      2556.8374
  13289641.80548  10337615.88343  23691062.6434   23691061.4364
     -4099.5664
  -1618795.06649  -1261029.62546  21397486.4794   21397484.6704
        11.4684
 04  9  7 21 58 45.0020000  0  8G 3G19G 8G13G10G28G23G27
    745601.72347    581585.44543  23475049.2444   23475049.1584
     -1389.0874
  -4670550.16047  -3632723.31244  23416555.2444   23416552.3854
       984.1334
  -6408853.04749  -5036198.85945  22118303.6974   22118302.2834
      1282.1454
   4684588.19949   3644802.77046  21135794.1894   21135792.1934
     -2239.0864
  -1724649.75846  -1334165.28542  24140943.4554   24140942.7094
       775.0104
  -1284972.92647   -990345.17642  24493929.4394   24493930.5494
      2554.0154
  13351193.32448  10385578.06343  23702775.6354   23702774.2714
     -4103.4354
  -1618918.02349  -1261125.42646  21397463.4714   21397461.4284
         8.1974
 04  9  7 21 59  0.0020000  0  8G 3G19G 8G13G10G28G23G27
    766583.78947    597935.12143  23479041.6664   23479041.9324
     -1398.8044
  -4685202.55948  -3644140.72744  23413767.1354   23413764.4364
       976.8274
  -6428033.81649  -5051144.89845  22114653.5574   22114652.0614
      1278.7184
   4718294.26649   3671067.22746  21142208.2214   21142206.1314
     -2247.0714
  -1736139.94546  -1343118.67242  24138757.0574   24138755.9474
       766.0134
  -1323240.50447  -1020163.97742  24486647.4324   24486649.3814
      2551.1724
  13412802.98048  10433585.51243  23714500.0334   23714498.1784
     -4107.3104
  -1618991.67649  -1261182.82046  21397448.8774   21397447.3544
         4.9104
 04  9  7 21 59 15.0020000  0  8G 3G19G 8G13G10G28G23G27
    787712.78547    614399.27343  23483062.5254   23483062.1784
     -1408.6004
  -4699743.91848  -3655471.63344  23411000.0334   23410997.4124
       969.4244
  -6447161.76649  -5066049.77345  22111013.8224   22111011.8304
      1275.1974
   4752121.36749   3697426.00446  21148645.4474   21148643.2214
     -2255.1404
  -1747493.68746  -1351965.74642  24136596.2524   24136595.3774
       756.9164
  -1361463.91447  -1049948.40642  24479373.6664   24479374.6824
      2548.2274
  13474471.78548  10481639.07443  23726235.3774   23726233.2214
     -4111.2544
  -1619014.77349  -1261200.81246  21397444.5494   21397443.0764
         1.5404
 04  9  7 21 59 30.0020000  0  8G 3G19G 8G13G10G28G23G27
    808988.49647    630977.75843  23487111.4634   23487110.9004
     -1418.3814
  -4714174.05148  -3666715.86344  23408254.3074   23408250.9044
       962.0094
  -6466237.23849  -5080913.77045  22107383.7684   22107382.3424
      1271.6984
   4786069.31349   3723878.94146  21155105.2214   21155103.2564
     -2263.1964
  -1758711.16846  -1360706.62142  24134461.0884   24134460.6824
       747.8324
  -1399643.22347  -1079698.43742  24472108.3224   24472109.8264
      2545.2874
  13536199.34448  10529738.42643  23737981.6744   23737979.3264
     -4115.1714
  -1618987.63749  -1261179.66446  21397449.9164   21397448.0924
        -1.8094
 04  9  7 21 59 45.0020000  0  8G 3G19G 8G13G10G28G23G27
    830412.54347    647671.82843  23491187.8224   23491187.3934
     -1428.2704
  -4728490.95748  -3677871.88344  23405529.8144   23405526.5614
       954.4604
  -6485258.42249  -5095735.44945  22103764.4324   22103762.9594
      1268.0794
   4820139.63349   3750427.22746  21161588.8074   21161586.6744
     -2271.3554
  -1769790.44545  -1369339.82042  24132353.1974   24132353.0024
       738.6184
  -1437776.52747  -1109412.59842  24464852.1044   24464854.1434
      2542.2204
  13597987.09448  10577884.68843  23749739.6194   23749736.2914
     -4119.1834
  -1618908.41449  -1261117.93046  21397464.8854   21397463.4084
        -5.2824
 04  9  7 22  0  0.0020000  0  8G 3G19G 8G13G10G28G23G27
    851982.33248    664479.44943  23495292.8144   23495292.1504
     -1437.9864
  -4742696.84048  -3688941.37544  23402826.4944   23402823.0844
       947.0594
  -6504227.57049  -5110516.59845  22100154.2604   22100153.2214
      1264.6104
   4854329.72749   3777068.84446  21168094.8774   21168092.4754
     -2279.3404
  -1780733.84046  -1377867.12542  24130270.8224   24130270.1044
       729.5604
  -1475866.11347  -1139092.75442  24457603.9554   24457603.4864
      2539.3064
  13659832.37548  10626075.78942  23761507.9474   23761505.4514
     -4123.0194
  -1618779.57449  -1261017.53146  21397489.2994   21397487.8074
        -8.5894
 04  9  7 22  0 15.0020000  0  8G 3G19G 8G13G10G28G23G27
    873699.49247    681401.91443  23499424.9164   23499425.2874
     -1447.8114
  -4756789.90248  -3699922.94144  23400144.4084   23400141.8734
       939.5384
  -6523143.21549  -5125256.04345  22096554.8694   22096553.4554
      1261.0434
   4888641.23449   3803805.07046  21174624.1974   21174621.4324
     -2287.4344
  -1791539.56646  -1386287.16842  24128214.9164   24128213.6274
       720.3824
  -1513910.13347  -1168737.35242  24450364.3544   24450365.7914
      2536.2684
  13721736.56647  10674312.78143  23773288.0104   23773285.9594
     -4126.9464
  -1618599.49249  -1260877.20346  21397524.0024   21397522.3264
       -12.0054
 04  9  7 22  0 30.0020000  0  8G 3G19G 8G13G10G28G23G27
    895561.73047    698437.42243  23503585.6194   23503585.2174
     -1457.4834
  -4770771.93047  -3710818.01244  23397483.5724   23397480.9554
       932.1354
  -6542007.37549  -5139955.36745  22092965.1274   22092963.9164
      1257.6114
   4923072.15649   3830634.34446  21181176.0724   21181174.2524
     -2295.3954
  -1802209.66446  -1394601.50442  24126183.5884   24126183.4434
       711.3404
  -1551910.61347  -1198348.04342  24443132.5724   24443133.7874
      2533.3654
  13783697.22747  10722593.76643  23785078.6434   23785076.5454
     -4130.7114
  -1618370.31249  -1260698.60546  21397567.2754   21397565.7994
       -15.2794
 04  9  7 22  0 45.0020000  0  8G 3G19G 8G13G10G28G23G27
    917570.38348    715587.00843  23507773.9244   23507773.5334
     -1467.2434
  -4784641.24248  -3721625.23044  23394844.4944   23394841.5924
       924.6214
  -6560818.58649  -5154613.44545  22089385.2214   22089384.2174
      1254.0814
   4957623.42649   3857557.40646  21187750.9164   21187748.7404
     -2303.4184
  -1812742.49646  -1402808.89842  24124179.7134   24124179.1464
       702.1894
  -1589865.93047  -1227923.54742  24435910.8384   24435910.4204
      2530.3544
  13845715.73447  10770919.80943  23796880.0574   23796878.9674
     -4134.5674
  -1618090.52049  -1260480.57846  21397620.7134   21397618.7364
       -18.6534
 04  9  7 22  1  0.0020000  0  8G 3G19G 8G13G10G28G23G27
    939724.34447    732849.84843  23511989.4634   23511989.2294
     -1476.9314
  -4798398.71947  -3732345.32044  23392226.5184   23392223.7094
       917.1654
  -6579578.11749  -5169231.24645  22085815.5184   22085814.2714
      1250.6354
   4992293.92649   3884573.37546  21194348.5574   21194346.4164
     -2311.3674
  -1823138.90646  -1410910.00042  24122201.9164   24122200.8934
       693.0944
  -1627777.15247  -1257464.68042  24428695.8544   24428696.6504
      2527.4154
  13907790.68847  10819289.82043  23808693.2364   23808691.5644
     -4138.3304
  -1617761.26249  -1260224.01246  21397683.4394   21397681.5454
       -21.9514
 04  9  7 22  1 15.0020000  0  8G 3G19G 8G13G10G28G23G27
    962025.61347    750227.47343  23516233.3614   23516233.4004
     -1486.7514
  -4812041.97748  -3742976.41444  23389630.4944   23389628.0294
       909.5514
  -6598283.68749  -5183807.00445  22082256.3074   22082254.6464
      1247.0384
   5027085.80949   3911683.91846  21200969.3854   21200967.1544
     -2319.4594
  -1833396.91046  -1418903.24242  24120249.7444   24120249.0924
       683.8674
  -1665641.80147  -1286969.52742  24421489.9324   24421490.6624
      2524.3104
  13969923.98847  10867705.32443  23820516.9394   23820515.2644
     -4142.2204
  -1617380.30149  -1259927.16046  21397755.9004   21397754.1704
       -25.3974
 04  9  7 22  1 30.0020000  0  8G 3G19G 8G13G10G28G23G27
    984473.89548    767719.62943  23520505.2364   23520504.5254
     -1496.5524
  -4825570.93447  -3753518.42644  23387055.0574   23387053.1704
       901.9304
  -6616935.41049  -5198340.80145  22078706.5184   22078705.3964
      1243.4484
   5061998.71949   3938888.77746  21207613.1584   21207611.1584
     -2327.5274
  -1843516.39846  -1426788.54342  24118324.0334   24118323.2524
       674.6334
  -1703460.02047  -1316438.18742  24414293.7994   24414293.9434
      2521.2154
  14032115.22347  10916165.96943  23832351.3934   23832349.2254
     -4146.0824
  -1616948.02049  -1259590.31246  21397838.2914   21397836.3694
       -28.8194
 04  9  7 22  1 45.0020000  0  8G 3G19G 8G13G10G28G23G27
   1007067.91848    785325.37143  23524804.7444   23524803.5574
     -1506.2684
  -4838986.58647  -3763972.14844  23384502.0964   23384498.9824
       894.3774
  -6635534.48449  -5212833.57845  22075167.5184   22075166.2254
      1239.9384
   5097031.39849   3966186.96146  21214279.5884   21214277.5144
     -2335.5124
  -1853498.53946  -1434566.84442  24116424.0414   24116423.4204
       665.4764
  -1741232.76646  -1345871.40242  24407105.5724   24407106.6544
      2518.1834
  14094362.88747  10964670.60543  23844196.9164   23844194.7174
     -4149.8444
  -1616465.57849  -1259214.37946  21397929.8934   21397928.3074
       -32.1634
 04  9  7 22  2  0.0020000  0  8G 3G19G 8G13G10G28G23G27
   1029806.44548    803043.71143  23529132.0644   23529130.4864
     -1515.9024
  -4852289.80148  -3774338.26643  23381970.4794   23381968.1314
       886.8814
  -6654081.96149  -5227286.14145  22071637.7604   22071636.5964
      1236.4984
   5132182.56649   3993577.46546  21220968.5804   21220966.6974
     -2343.4114
  -1863344.36746  -1442238.91442  24114550.8384   24114549.8424
       656.3894
  -1778961.21546  -1375270.10242  24399926.2364   24399926.3344
      2515.2304
  14156665.47747  11013218.02743  23856052.6664   23856050.4514
     -4153.5064
  -1615934.14149  -1258800.27046  21398030.9944   21398028.9944
       -35.4294
 04  9  7 22  2 15.0020000  0  8G 3G19G 8G13G10G28G23G27
   1052691.52348    820876.25043  23533486.4474   23533485.5214
     -1525.6724
  -4865478.10247  -3784614.83644  23379461.2524   23379458.3654
       879.2204
  -6672575.73849  -5241696.85945  22068118.5494   22068117.0214
      1232.9184
   5167454.32849   4021061.94146  21227680.5644   21227678.1824
     -2351.4514
  -1873051.46946  -1449802.89142  24112704.3144   24112702.9084
       647.1404
  -1816643.03147  -1404632.50842  24392755.5574   24392755.8304
      2512.1214
  14219025.05147  11061809.85243  23867919.0804   23867917.3574
     -4157.3054
  -1615351.53949  -1258346.29346  21398141.8854   21398140.3264
       -38.8404
 04  9  7 22  2 30.0020000  0  8G 3G19G 8G13G10G28G23G27
   1075721.02348    838821.32443  23537868.8224   23537868.0724
     -1535.3004
  -4878553.32847  -3794803.30544  23376972.9084   23376970.4794
       871.6824
  -6691017.94949  -5256067.40245  22064609.0644   22064607.7794
      1229.4814
   5202844.57449   4048638.74646  21234415.1434   21234413.0494
     -2359.3504
  -1882621.78546  -1457260.27042  24110882.5334   24110881.6354
       638.0214
  -1854280.06647  -1433959.96542  24385592.9084   24385593.4084
      2509.1364
  14281439.23047  11110444.20743  23879796.4084   23879795.3074
     -4160.9454
  -1614719.76649  -1257853.99646  21398262.0334   21398260.3614
       -42.1184
 04  9  7 22  2 45.0020000  0  8G 3G19G 8G13G10G28G23G27
   1098895.78148    856879.58643  23542279.0644   23542277.8114
     -1544.9844
  -4891514.25448  -3804902.71144  23374506.8304   23374503.7714
       864.0624
  -6709407.20349  -5270396.67245  22061109.8774   22061108.4594
      1225.9504
   5238353.98049   4076308.40246  21241172.1894   21241170.1464
     -2367.2944
  -1892054.20747  -1464610.19142  24109087.6114   24109086.8854
       628.8284
  -1891871.08647  -1463251.59842  24378439.4324   24378440.7834
      2506.0684
  14343908.81347  11159121.74243  23891684.1824   23891682.7214
     -4164.6394
  -1614037.86349  -1257322.63746  21398391.9164   21398390.3264
       -45.4604
 04  9  7 22  3  0.0020000  0  8G 3G19G 8G13G10G28G23G27
   1122213.78948    875049.46943  23546716.9244   23546715.1314
     -1554.5344
  -4904362.55548  -3814914.35244  23372061.9394   23372059.4084
       856.5534
  -6727745.62949  -5284686.34045  22057620.0414   22057618.7094
      1222.5624
   5273980.71549   4104069.47346  21247951.8854   21247949.6744
     -2375.1164
  -1901350.44145  -1471854.00442  24107318.4394   24107318.0214
       619.7494
  -1929417.72747  -1492508.60242  24371294.7914   24371295.7134
      2503.1094
  14406431.72748  11207840.84043  23903581.8304   23903580.5494
     -4168.1944
  -1613307.73449  -1256753.70346  21398530.9794   21398529.2994
       -48.6754
 04  9  7 22  3 15.0020000  0  8G 3G19G 8G13G10G28G23G27
   1145677.94147    893333.22743  23551181.5804   23551180.5454
     -1564.2774
  -4917095.02048  -3824835.71544  23369638.9794   23369636.4124
       848.8314
  -6746030.18749  -5298934.03545  22054140.7994   22054139.4794
      1218.9714
   5309727.52349   4131924.12546  21254754.5414   21254752.2324
     -2383.1214
  -1910507.48046  -1478989.35242  24105576.2754   24105574.9554
       610.4694
  -1966917.03947  -1521728.77742  24364158.1354   24364158.7914
      2499.9544
  14469010.66447  11256603.58243  23915490.2604   23915488.4984
     -4171.9294
  -1612526.30949  -1256144.78946  21398679.3144   21398678.0964
       -52.0954
 04  9  7 22  3 30.0020000  0  8G 3G19G 8G13G10G28G23G27
   1169288.57448    911731.11743  23555674.6434   23555673.9394
     -1574.0424
  -4929710.93748  -3834666.27344  23367238.0104   23367235.8074
       841.0614
  -6764260.46149  -5313139.42645  22050671.8854   22050670.0964
      1215.3524
   5345594.89149   4159872.71546  21261579.6114   21261577.5064
     -2391.1584
  -1919524.73046  -1486015.77342  24103859.6664   24103858.5024
       601.1504
  -2004368.48447  -1550911.63342  24357031.9084   24357032.7644
      2496.7634
  14531645.74247  11305410.07842  23927408.9244   23927408.3144
     -4175.6724
  -1611693.29749  -1255495.69146  21398838.0024   21398836.4514
       -55.5344
 04  9  7 22  3 45.0020000  0  8G 3G19G 8G13G10G28G23G27
   1193042.78548    930240.90643  23560194.5104   23560193.5684
     -1583.6144
  -4942212.73448  -3844407.90644  23364859.4004   23364856.5294
       833.4534
  -6782439.20349  -5327304.66845  22047212.3464   22047211.0414
      1211.9164
   5381579.98449   4187913.03546  21268427.5884   21268425.3814
     -2399.0064
  -1928404.80546  -1492935.31242  24102169.3774   24102169.8034
       592.0054
  -2041774.57047  -1580059.14842  24349913.9554   24349914.1464
      2493.7394
  14594333.98047  11354257.99242  23939337.9474   23939335.7954
     -4179.2164
  -1610811.42249  -1254808.50846  21399005.7684   21399004.3654
       -58.7924
 04  9  7 22  4  0.0020000  0  8G 3G19G 8G13G10G28G23G27
   1216939.28148    948861.55143  23564741.4004   23564741.1194
     -1593.1004
  -4954601.53548  -3854061.48844  23362502.1194   23362498.9244
       825.9204
  -6800567.53149  -5341430.62545  22043762.5724   22043761.2094
      1208.5554
   5417681.29349   4216043.91846  21275297.4164   21275295.0724
     -2406.7544
  -1937148.82846  -1499748.82842  24100506.2054   24100506.0064
       582.9354
  -2079136.41047  -1609172.20342  24342804.9864   24342805.1544
      2490.7894
  14657073.77047  11403146.09042  23951277.2914   23951274.9044
     -4182.6534
  -1609881.88749  -1254084.18746  21399182.8774   21399181.0724
       -61.9694
 04  9  7 22  4 15.0020000  0  8G 3G19G 8G13G10G28G23G27
   1240979.01648    967593.81643  23569316.0884   23569315.8144
     -1602.6494
  -4966876.02048  -3863626.01244  23360166.0494   23360163.6234
       818.2994
  -6818644.52349  -5355516.57445  22040322.5964   22040321.0184
      1205.1334
   5453899.82049   4244266.12946  21282189.7994   21282187.3894
     -2414.5684
  -1945755.64146  -1506455.41842  24098868.1744   24098867.4754
       573.7884
  -2116452.83247  -1638249.83642  24335703.1664   24335703.6464
      2487.7614
  14719866.07047  11452075.12542  23963225.5574   23963224.1194
     -4186.1534
  -1608903.58649  -1253321.87546  21399368.8854   21399367.0804
       -65.2204
 04  9  7 22  4 30.0020000  0  8G 3G19G 8G13G10G28G23G27
   1265163.50848    986438.87943  23573918.1504   23573918.0614
     -1612.2994
  -4979034.28948  -3873099.94544  23357852.2994   23357849.9124
       810.5514
  -6836668.59049  -5369561.28945  22036892.7834   22036891.0534
      1201.6044
   5490237.15249   4272580.92646  21289104.3304   21289102.5374
     -2422.4894
  -1954223.53146  -1513053.75842  24097256.8144   24097256.5574
       564.5264
  -2153721.91847  -1667290.59442  24328610.3694   24328611.8264
      2484.6064
  14782712.45748  11501046.27343  23975184.9324   23975183.1114
     -4189.7594
  -1607874.99249  -1252520.37146  21399564.6584   21399562.5494
       -68.5734
 04  9  7 22  4 45.0020000  0  8G 3G19G 8G13G10G28G23G27
   1289491.95748   1005396.11343  23578548.0724   23578547.7174
     -1621.8974
  -4991076.71148  -3882483.61744  23355560.4324   23355558.1934
       802.8284
  -6854640.23449  -5383565.14845  22033472.9244   22033471.3734
      1198.1104
   5526692.39149   4300987.59046  21296041.6664   21296039.2714
     -2430.3494
  -1962553.04346  -1519544.28542  24095671.3224   24095670.8614
       555.3014
  -2190944.22347  -1696294.91042  24321527.2444   24321527.9514
      2481.4874
  14845611.87547  11550058.75443  23987154.8544   23987153.1664
     -4193.2954
  -1606796.65649  -1251680.09847  21399769.6894   21399768.0924
       -71.8894
 04  9  7 22  5  0.0020000  0  8G 3G19G 8G13G10G28G23G27
   1313965.08648   1024466.07043  23583205.0254   23583204.7364
     -1631.5424
  -5003002.41448  -3891776.34844  23353290.9864   23353288.8814
       795.0474
  -6872558.37149  -5397527.32045  22030063.0724   22030061.3694
      1194.5424
   5563266.18449   4329486.64146  21303001.0334   21302999.1314
     -2438.2534
  -1970743.32446  -1525926.31242  24094112.8464   24094112.1824
       546.0194
  -2228118.88747  -1725262.13742  24314453.7834   24314453.0024
      2478.3114
  14908564.87548  11599112.96943  23999134.2684   23999133.3424
     -4196.8674
  -1605667.79349  -1250800.46546  21399984.5334   21399982.8814
       -75.2584
 04  9  7 22  5 15.0020000  0  8G 3G19G 8G13G10G28G23G27
   1338580.94948   1043647.27343  23587889.2364   23587889.4674
     -1641.0584
  -5014812.89848  -3900979.30144  23351043.5414   23351041.3344
       787.3664
  -6890424.95349  -5411449.32445  22026663.5104   22026661.5334
      1191.1054
   5599956.75849   4358076.68046  21309983.3304   21309980.9984
     -2446.0384
  -1978796.01646  -1532201.13342  24092580.6504   24092579.7954
       536.8464
  -2265247.53947  -1754193.45742  24307388.1824   24307389.2174
      2475.2434
  14971569.31647  11648207.29743  24011124.2994   24011122.6314
     -4200.2964
  -1604490.23449  -1249882.87546  21400208.5334   21400207.0614
       -78.5044
 04  9  7 22  5 30.0020000  0  8G 3G19G 8G13G10G28G23G27
   1363339.53947   1062939.68443  23592600.1824   23592600.5644
     -1650.5734
  -5026507.82448  -3910092.20344  23348818.1894   23348815.9434
       779.6624
  -6908239.98849  -5425331.14845  22023273.4244   22023271.3544
      1187.6694
   5636763.99249   4386757.62946  21316987.7214   21316985.2604
     -2453.8164
  -1986710.85246  -1538368.53542  24091074.7524   24091073.5764
       527.6564
  -2302329.93048  -1783088.75442  24300331.8854   24300331.6624
      2472.1594
  15034625.06347  11697341.57443  24023123.1194   24023122.4594
     -4203.7164
  -1603263.97349  -1248927.34046  21400442.1274   21400440.5644
       -81.7514
 04  9  7 22  5 45.0020000  0  8G 3G19G 8G13G10G28G23G27
   1388242.44947   1082344.54343  23597339.0724   23597338.9754
     -1660.1944
  -5038085.16848  -3919113.46544  23346614.8224   23346612.3654
       771.8234
  -6926001.67249  -5439171.41445  22019892.8854   22019891.3934
      1184.1124
   5673689.80949   4415530.97346  21324014.2134   21324012.2054
     -2461.7214
  -1994485.91846  -1544427.02742  24089594.9004   24089594.1394
       518.3384
  -2339363.97747  -1811946.39142  24293284.2054   24293284.1974
      2468.9364
  15097733.75447  11746517.10543  24035132.5724   24035131.2094
     -4207.2464
  -1601987.10549  -1247932.37546  21400684.7294   21400683.4124
       -85.1244
 04  9  7 22  6  0.0020000  0  8G 3G19G 8G13G10G28G23G27
   1413289.84848   1101862.01643  23602105.5804   23602105.3694
     -1669.8274
  -5049544.43048  -3928042.72344  23344434.1194   23344431.1704
       763.9514
  -6943709.68749  -5452969.85545  22016523.1354   22016521.5724
      1180.5344
   5710734.17249   4444396.69946  21331063.4004   21331061.0764
     -2469.6244
  -2002121.02046  -1550376.44942  24088142.2754   24088141.3424
       509.0074
  -2376349.46548  -1840766.16442  24286246.3144   24286245.9204
      2465.6994
  15160895.32447  11795733.85543  24047151.9394   24047150.5294
     -4210.7714
  -1600659.35549  -1246897.76646  21400937.6744   21400935.8894
       -88.5174
 04  9  7 22  6 15.0020000  0  8G 3G19G 8G13G10G28G23G27
   1438478.68448   1121489.67243  23606899.4474   23606898.5254
     -1679.2564
  -5060888.27048  -3936882.05144  23342275.4634   23342272.6664
       756.2564
  -6961366.71949  -5466728.56645  22013163.1974   22013161.7404
      1177.1354
   5747893.98849   4473352.38746  21338134.5884   21338132.6864
     -2477.3214
  -2009618.85546  -1556218.90242  24086715.2524   24086714.3654
       499.8564
  -2413289.11347  -1869550.24242  24279217.1274   24279216.3654
      2462.6434
  15224106.58247  11844989.34043  24059180.5414   24059178.6394
     -4214.0844
  -1599283.75449  -1245825.85946  21401199.1894   21401197.3814
       -91.7074
 04  9  7 22  6 30.0020000  0  8G 3G19G 8G13G10G28G23G27
   1463812.36348   1141230.19943  23611720.2604   23611719.5254
     -1688.9124
  -5072112.91848  -3945628.48844  23340139.5724   23340137.0844
       748.3104
  -6978969.37149  -5480444.90245  22009813.7364   22009812.0214
      1173.5104
   5785172.63349   4502400.66446  21345228.6744   21345226.6894
     -2485.2434
  -2016975.73846  -1561951.53542  24085315.4164   24085314.8264
       490.4594
  -2450179.27747  -1898295.75843  24272196.4554   24272196.9594
      2459.3444
  15287370.75447  11894286.04343  24071219.0414   24071218.6274
     -4217.6114
  -1597856.63349  -1244713.80946  21401470.9324   21401469.0614
       -95.1414
 04  9  7 22  6 45.0020000  0  8G 3G19G 8G13G10G28G23G27
   1489289.12948   1161082.23043  23616568.0724   23616567.5294
     -1698.4514
  -5083219.77348  -3954283.16044  23338025.9714   23338023.8424
       740.4574
  -6996519.43449  -5494120.26246  22006474.0884   22006472.9004
      1170.0044
   5822568.50849   4531540.30146  21352344.6894   21352342.9004
     -2493.0584
  -2024193.14146  -1567575.47342  24083942.3074   24083941.0184
       481.1604
  -2487021.32847  -1927003.76242  24265185.6664   24265185.4164
      2456.1374
  15350686.16047  11943622.65242  24083267.8614   24083266.2014
     -4221.0274
  -1596379.60949  -1243562.88346  21401751.6974   21401750.1974
       -98.4684
 04  9  7 22  7  0.0020000  0  8G 3G19G 8G13G10G28G23G27
   1514910.55147   1181046.98443  23621443.2834   23621443.0964
     -1708.0954
  -5094206.99248  -3962844.59844  23335935.3384   23335932.8184
       732.4814
  -7014014.95349  -5507753.12546  22003144.8934   22003143.4714
      1166.3684
   5860083.09049   4560772.43846  21359483.7134   21359481.8694
     -2500.9724
  -2031269.44146  -1573089.46542  24082596.0104   24082594.5494
       471.7534
  -2523813.55547  -1955672.97342  24258184.3614   24258183.9984
      2452.8154
  15414054.09447  11993000.19542  24095325.7914   24095324.9794
     -4224.5294
  -1594851.16049  -1242371.87146  21402043.0024   21402040.8854
      -101.8974
 04  9  7 22  7 15.0020000  0  8G 3G19G 8G13G10G28G23G27
   1540676.05547   1201124.00843  23626346.6434   23626346.1784
     -1717.7004
  -5105074.76248  -3971312.96944  23333867.1504   23333864.1044
       724.5184
  -7031456.32849  -5521343.79745  21999825.8074   21999824.7564
      1162.7584
   5897715.78949   4590096.60946  21366644.8144   21366643.1744
     -2508.8474
  -2038204.93046  -1578493.74642  24081275.1894   24081274.4394
       462.3664
  -2560556.16447  -1984303.50442  24251192.0964   24251192.3034
      2449.5074
  15477473.88747  12042418.14142  24107394.6434   24107393.1074
     -4227.9864
  -1593271.68049  -1241141.10246  21402343.5334   21402341.3654
      -105.2994
 04  9  7 22  7 30.0020000  0  8G 3G19G 8G13G10G28G23G27
   1566583.98448   1221312.00443  23631276.4244   23631275.8614
     -1727.1954
  -5115824.29748  -3979689.19944  23331821.6584   23331818.7324
       716.6364
  -7048844.98049  -5534893.37545  21996516.4944   21996515.4204
      1159.2434
   5935465.07849   4619511.63746  21373828.5644   21373826.8934
     -2516.6194
  -2045000.94946  -1583789.34842  24079982.1044   24079981.9284
       453.0684
  -2597250.47747  -2012896.39842  24244210.1744   24244209.9674
      2446.2884
  15540943.81347  12091875.13342  24119472.9554   24119471.7054
     -4231.3284
  -1591642.57049  -1239871.66846  21402653.2524   21402651.5614
      -108.6074
 04  9  7 22  7 45.0020000  0  8G 3G19G 8G13G10G28G23G27
   1592637.76248   1241613.65643  23636234.5964   23636233.7604
     -1736.9184
  -5126451.84848  -3987970.38344  23329799.1824   23329797.0064
       708.5034
  -7066177.46949  -5548399.19145  21993218.5494   21993217.5924
      1155.4994
   5973334.37949   4649020.17246  21381034.6194   21381032.9794
     -2524.6204
  -2051653.97346  -1588973.51242  24078716.5334   24078715.6074
       443.5354
  -2633892.84447  -2041448.82042  24237236.3074   24237237.2294
      2442.8244
  15604467.08247  12141373.69542  24131561.8144   24131559.8034
     -4234.8854
  -1589960.33249  -1238560.82846  21402973.3614   21402971.8184
      -112.1494
 04  9  7 22  8  0.0020000  0  8G 3G19G 8G13G10G28G23G27
   1618836.39547   1262028.18042  23641219.6974   23641219.2604
     -1746.5764
  -5136958.02048  -3996156.98444  23327800.0104   23327797.5574
       700.4114
  -7083454.64149  -5561861.91046  21989930.6354   21989929.6624
      1151.8114
   6011322.57049   4678621.34846  21388263.7684   21388261.6744
     -2532.5464
  -2058164.67646  -1594046.78142  24077477.2444   24077477.1664
       434.0474
  -2670484.05147  -2069961.39142  24230274.1354   24230272.9594
      2439.4144
  15668042.62147  12190913.03943  24143659.6434   24143656.5804
     -4238.3694
  -1588225.79349  -1237209.23446  21403303.5104   21403302.0494
      -115.6364
 04  9  7 22  8 15.0020000  0  8G 3G19G 8G13G10G28G23G27
   1645179.22747   1282555.05943  23646232.8934   23646232.0374
     -1756.1894
  -5147343.25048  -4004249.34044  23325823.6504   23325821.1114
       692.3494
  -7100676.96949  -5575281.89845  21986653.4084   21986652.7794
      1148.1554
   6049429.02749   4708314.68046  21395515.1584   21395513.1434
     -2540.4304
  -2064533.50846  -1599009.49642  24076265.4244   24076265.0064
       424.5894
  -2707024.57447  -2098434.46142  24223320.6044   24223320.9364
      2436.0354
  15731669.54348  12240492.41443  24155767.6824   24155764.9824
     -4241.7954
  -1586439.57449  -1235817.37146  21403643.6584   21403641.8544
      -119.0814
 04  9  7 22  8 30.0020000  0  8G 3G19G 8G13G10G28G23G27
   1671665.27747   1303193.54343  23651273.2134   23651272.3144
     -1765.7374
  -5157608.05948  -4012247.87544  23323870.5724   23323867.3424
       684.3214
  -7117845.31649  -5588659.80946  21983386.5964   21983385.3934
      1144.5574
   6087652.87549   4738099.47746  21402788.6974   21402786.8224
     -2548.2574
  -2070761.19946  -1603862.25442  24075080.9794   24075079.6864
       415.1794
  -2743514.78547  -2126868.33642  24216376.6114   24216376.3264
      2432.6814
  15795347.11748  12290111.25442  24167885.3074   24167882.4754
     -4245.1724
  -1584602.39549  -1234385.80146  21403993.1354   21403991.5064
      -122.4794
 04  9  7 22  8 45.0020000  0  8G 3G19G 8G13G10G28G23G27
   1698296.33248   1323944.99643  23656340.6584   23656340.6434
     -1775.4044
  -5167750.39848  -4020150.96144  23321940.3614   23321937.1434
       676.1564
  -7134957.60249  -5601994.05546  21980130.1894   21980128.9554
      1140.8194
   6125995.76249   4767977.04346  21410085.2604   21410083.1274
     -2556.1924
  -2076845.83647  -1608603.50842  24073922.8074   24073921.6824
       405.6424
  -2779952.87947  -2155261.57042  24209442.0104   24209442.5254
      2429.2064
  15859076.75447  12339770.68442  24180012.1584   24180008.9164
     -4248.6424
  -1582712.35249  -1232913.03146  21404352.9244   21404351.1114
      -126.0034
 04  9  7 22  9  0.0020000  0  8G 3G19G 8G13G10G28G23G27
   1725072.23447   1344809.34043  23661436.6504   23661435.6744
     -1785.0604
  -5177769.83648  -4027958.29344  23320033.4554   23320030.4474
       667.9634
  -7152013.81649  -5615284.59446  21976884.5254   21976883.0724
      1137.0814
   6164457.77349   4797947.43846  21417404.1434   21417401.8144
     -2564.1344
  -2082787.10547  -1613233.07442  24072792.1434   24072790.9164
       396.0854
  -2816338.51246  -2183613.95342  24202518.0644   24202518.6114
      2425.7094
  15922858.27747  12389470.50842  24192149.0574   24192147.1004
     -4252.1024
  -1580769.41449  -1231399.05146  21404722.4324   21404720.4714
      -129.5294
 04  9  7 22  9 15.0020000  0  8G 3G19G 8G13G10G28G23G27
   1751993.28548   1365786.78943  23666559.1974   23666558.8114
     -1794.7374
  -5187665.94548  -4035669.52344  23318151.0334   23318147.5574
       659.7414
  -7169013.73849  -5628531.27746  21973649.5334   21973647.7524
      1133.3284
   6203039.09449   4828010.79746  21424745.5644   21424743.9634
     -2572.0884
  -2088584.65247  -1617750.62542  24071689.2214   24071687.9394
       386.5034
  -2852671.23846  -2211925.09842  24195604.5804   24195604.6274
      2422.1824
  15986691.91047  12439210.90242  24204295.6114   24204294.2684
     -4255.5764
  -1578773.18049  -1229843.54346  21405102.1824   21405100.5764
      -133.0824
 04  9  7 22  9 30.0020000  0  8G 3G19G 8G13G10G28G23G27
   1779060.27747   1386877.94143  23671710.0884   23671709.0684
     -1804.4664
  -5197437.37548  -4043283.60944  23316291.3854   23316288.3384
       651.4294
  -7185956.32849  -5641733.29346  21970425.6044   21970423.9674
      1129.5064
   6241740.60949   4858167.80946  21432110.4944   21432108.7644
     -2580.1014
  -2094237.30147  -1622155.28542  24070613.1434   24070612.2754
       376.8434
  -2888949.80146  -2240194.04342  24188700.7294   24188701.5334
      2418.5714
  16050578.27747  12488992.45742  24216453.2134   24216451.7994
     -4259.0914
  -1576722.75849  -1228245.81246  21405492.5964   21405490.7874
      -136.6954
 04  9  7 22  9 45.0020000  0  8G 3G19G 8G13G10G28G23G27
   1806271.89547   1408081.78543  23676888.3304   23676887.1584
     -1814.1084
  -5207085.20748  -4050801.37144  23314455.2134   23314452.6074
       643.1894
  -7202842.67249  -5654891.46545  21967211.7834   21967210.6044
      1125.7564
   6280560.88349   4888417.37146  21439497.7834   21439495.9634
     -2588.0184
  -2099746.34046  -1626448.02342  24069564.7994   24069563.9904
       367.2694
  -2925175.53946  -2268421.81242  24181806.8464   24181807.3894
      2415.0494
  16114515.91047  12538813.89142  24228620.5024   24228619.6624
     -4262.5094
  -1574619.13749  -1226606.61746  21405892.7134   21405891.2604
      -140.2414
 04  9  7 22 10  0.0020000  0  8G 3G19G 8G13G10G28G23G27
   1833624.93447   1429395.84843  23682093.1354   23682092.1314
     -1823.5364
  -5216612.27048  -4058225.04344  23312642.1274   23312639.7564
       635.1384
  -7219675.78149  -5668008.16045  21964008.8074   21964007.4164
      1122.2074
   6319496.85549   4918757.07046  21446907.3464   21446905.4794
     -2595.7324
  -2105114.59047  -1630631.07042  24068543.6584   24068542.2404
       357.8834
  -2961351.12947  -2296610.52342  24174922.9714   24174922.8264
      2411.7064
  16178501.60947  12588672.81642  24240796.3224   24240795.7094
     -4265.7134
  -1572465.50049  -1224928.45746  21406302.6744   21406300.5024
      -143.5764
 04  9  7 22 10 15.0020000  0  8G 3G19G 8G13G10G28G23G27
   1861121.60547   1450821.82843  23687325.6824   23687324.5414
     -1833.1114
  -5226016.01248  -4065552.62544  23310852.9944   23310850.4004
       626.9164
  -7236453.18449  -5681081.44545  21960816.1274   21960814.4164
      1118.4934
   6358550.68449   4949188.62146  21454338.9004   21454337.2254
     -2603.5894
  -2110339.74247  -1634702.60242  24067548.5184   24067547.8424
       348.3434
  -2997474.09446  -2324758.21942  24168048.5414   24168048.8304
      2408.1984
  16242537.41447  12638570.75442  24252982.9634   24252981.3654
     -4269.0544
  -1570259.47749  -1223209.47746  21406722.6974   21406720.7214
      -147.0684
 04  9  7 22 10 30.0020000  0  8G 3G19G 8G13G10G28G23G27
   1888760.76647   1472358.83243  23692585.1584   23692584.6864
     -1842.6114
  -5235297.26248  -4072784.74644  23309087.0494   23309084.3854
       618.7504
  -7253175.97349  -5694112.18446  21957633.9004   21957632.5334
      1114.8534
   6397721.17249   4979711.06346  21461792.7994   21461790.9084
     -2611.3664
  -2115422.69947  -1638663.35242  24066581.8614   24066581.1394
       338.8644
  -3033545.39546  -2352865.66442  24161184.3694   24161184.7254
      2404.7534
  16306621.90647  12688506.65642  24265177.6824   24265175.8574
     -4272.2994
  -1568002.12149  -1221450.49246  21407151.9554   21407150.2214
      -150.4904
 04  9  7 22 10 45.0020000  0  8G 3G19G 8G13G10G28G23G27
   1916545.36347   1494009.15242  23697872.7134   23697871.9674
     -1852.3074
  -5244452.61348  -4079918.76644  23307344.3304   23307341.8264
       610.3574
  -7269841.00449  -5707097.91046  21954462.7294   21954461.0964
      1111.0024
   6437011.27049   5010326.70746  21469269.6504   21469267.6074
     -2619.3404
  -2120360.27347  -1642510.78942  24065642.1584   24065641.0494
       329.1724
  -3069561.76247  -2380930.28142  24154331.3544   24154330.9674
      2401.0914
  16370758.10247  12738482.82042  24277382.0494   24277380.9714
     -4275.7464
  -1565690.34049  -1219649.09846  21407592.0334   21407590.0764
      -154.1194
 04  9  7 22 11  0.0020000  0  8G 3G19G 8G13G10G28G23G27
   1944472.44547   1515770.52043  23703186.5184   23703186.3144
     -1861.8054
  -5253484.56248  -4086956.63344  23305625.8304   23305622.7564
       602.1304
  -7286450.83649  -5720040.62146  21951301.9794   21951300.4434
      1107.3224
   6476418.22349   5041033.41446  21476768.2134   21476765.9164
     -2627.1304
  -2125154.93047  -1646246.88742  24064729.4944   24064728.9984
       319.6444
  -3105525.66046  -2408954.03942  24147486.9004   24147486.9244
      2397.5934
  16434943.02747  12788497.00042  24289595.9394   24289594.8934
     -4278.9954
  -1563326.74649  -1217807.33246  21408041.7834   21408039.7954
      -157.5734
 04  9  7 22 11 15.0020000  0  8G 3G19G 8G13G10G28G23G27
   1972541.03947   1537642.15643  23708528.1354   23708527.8144
     -1871.2404
  -5262393.75448  -4093898.82844  23303930.5414   23303927.7174
       593.9464
  -7303006.30549  -5732940.96946  21948151.5184   21948149.8224
      1103.6984
   6515940.99649   5071830.37946  21484289.4944   21484287.5214
     -2634.8524
  -2129807.63747  -1649872.37142  24063844.4864   24063843.5924
       310.1804
  -3141437.97747  -2436937.60242  24140653.7754   24140653.1354
      2394.1544
  16499175.45747  12838548.16042  24301819.3464   24301817.6934
     -4282.1624
  -1560912.09849  -1215925.78546  21408501.3934   21408499.3224
      -160.9774
 04  9  7 22 11 30.0020000  0  8G 3G19G 8G13G10G28G23G27
   2000749.21147   1559622.55143  23713895.3464   23713895.8734
     -1880.5454
  -5271181.82048  -4100746.65644  23302258.2994   23302254.9164
       585.8714
  -7319509.37549  -5745800.48445  21945010.9944   21945009.5104
      1100.2054
   6555577.55149   5102715.99646  21491831.6824   21491830.1744
     -2642.4374
  -2134320.14547  -1653388.61742  24062986.1974   24062984.5144
       300.8344
  -3177300.30547  -2464882.20742  24133828.8854   24133828.5724
      2390.8224
  16563453.28947  12888634.74242  24314050.9634   24314048.9554
     -4285.1894
  -1558448.48049  -1214006.07846  21408969.9864   21408968.2914
      -164.2414
 04  9  7 22 11 45.0020000  0  8G 3G19G 8G13G10G28G23G27
   2029099.52747   1581713.71543  23719290.9474   23719290.6354
     -1890.0214
  -5279845.86748  -4107497.84044  23300609.2754   23300606.7604
       577.6034
  -7335957.16449  -5758616.93445  21941880.8854   21941879.6004
      1096.5194
   6595330.52349   5133692.32446  21499396.4634   21499394.8894
     -2650.1984
  -2138689.55947  -1656793.33243  24062153.6744   24062152.9794
       291.2944
  -3213109.84047  -2492785.66043  24127014.5644   24127014.7294
      2387.3024
  16627779.28148  12938758.85242  24326291.7444   24326289.3854
     -4288.3994
  -1555932.92649  -1212045.89846  21409448.7604   21409446.9864
      -167.7044
 04  9  7 22 12  0.0020000  0  8G 3G19G 8G13G10G28G23G27
   2057591.04347   1603914.88343  23724712.6274   23724711.9554
     -1899.4344
  -5288386.54748  -4114152.88744  23298984.2134   23298981.3774
       569.3794
  -7352350.44149  -5771390.89545  21938761.3384   21938760.0494
      1092.8854
   6635198.87949   5164758.55146  21506983.4164   21506981.3344
     -2657.8904
  -2142916.69147  -1660087.19542  24061350.1504   24061348.7524
       281.8094
  -3248867.23047  -2520648.50042  24120209.8854   24120210.5964
      2383.8264
  16692152.00847  12988919.35542  24338542.0104   24338539.2754
     -4291.5154
  -1553366.44549  -1210046.04346  21409937.3144   21409935.3854
      -171.0994
 04  9  7 22 12 15.0020000  0  8G 3G19G 8G13G10G28G23G27
   2086222.92247   1626225.43843  23730160.7834   23730160.0884
     -1908.7924
  -5296804.25048  -4120712.12144  23297382.2294   23297379.3424
       561.1804
  -7368689.92649  -5784122.95345  21935652.1744   21935650.7364
      1089.2994
   6675181.97749   5195914.19946  21514592.0494   21514590.1274
     -2665.5404
  -2147002.02047  -1663270.57443  24060572.7294   24060572.1464
       272.3554
  -3284573.03947  -2548471.16443  24113415.6194   24113415.4714
      2380.3874
  16756570.65247  13039115.65242  24350799.9244   24350797.0574
     -4294.5764
  -1550749.50849  -1208006.86746  21410435.2294   21410433.5104
      -174.4624
 04  9  7 22 12 30.0020000  0  8G 3G19G 8G13G10G28G23G27
   2114995.63747   1648645.73843  23735635.6824   23735635.8114
     -1918.1814
  -5305098.18448  -4127174.91044  23295804.1274   23295800.4904
       552.9294
  -7384975.04749  -5796812.63745  21932552.9474   21932551.5024
      1085.6754
   6715280.31349   5227159.65246  21522222.4944   21522220.3734
     -2673.2224
  -2150945.00847  -1666343.00843  24059822.3144   24059821.1664
       262.8664
  -3320226.45347  -2576252.97743  24106631.1354   24106630.9284
      2376.8944
  16821035.62947  13089348.05542  24363067.5494   24363065.9364
     -4297.6654
  -1548081.52749  -1205927.91847  21410942.6274   21410941.1154
      -177.8654
 04  9  7 22 12 45.0020000  0  8G 3G19G 8G13G10G28G23G27
   2143907.32047   1671174.30943  23741137.3224   23741137.9164
     -1927.4464
  -5313269.69148  -4133542.30144  23294248.9004   23294245.1744
       544.7674
  -7401207.43749  -5809461.23446  21929464.6194   21929463.1114
      1082.1594
   6755492.09049   5258493.48046  21529874.3694   21529872.2564
     -2680.7854
  -2154747.16447  -1669305.71142  24059098.7524   24059097.7094
       253.4774
  -3355828.84448  -2603995.03943  24099856.1434   24099856.3504
      2373.4934
  16885545.07847  13139615.06642  24375342.3224   24375341.7444
     -4300.6304
  -1545364.20349  -1203810.51647  21411459.8544   21411458.3504
      -181.1554
 04  9  7 22 13  0.0020000  0  8G 3G19G 8G13G10G28G23G27
   2172956.11747   1693809.73443  23746665.6894   23746665.7214
     -1936.5864
  -5321320.34848  -4139815.50844  23292716.6274   23292713.2294
       536.7104
  -7417388.61349  -5822069.93445  21926385.1044   21926383.6004
      1078.7454
   6795815.33649   5289914.18446  21537548.0334   21537546.2254
     -2688.2164
  -2158410.13347  -1672159.98042  24058401.4714   24058400.0574
       244.1984
  -3391381.86347  -2631698.63343  24093090.6824   24093091.0574
      2370.2014
  16950097.04347  13189915.24242  24387626.6274   24387625.2524
     -4303.4644
  -1542599.10549  -1201655.88346  21411986.1194   21411984.3774
      -184.3404
 04  9  7 22 13 15.0020000  0  8G 3G19G 8G13G10G28G23G27
   2202143.37147   1716553.05543  23752219.5644   23752219.6544
     -1945.8174
  -5329248.39848  -4145993.19544  23291208.1744   23291204.9594
       528.5374
  -7433517.02349  -5834637.52046  21923316.0574   21923314.4824
      1075.2274
   6836251.49649   5321422.87146  21545242.5574   21545241.0614
     -2695.7444
  -2161932.25447  -1674904.47742  24057731.0964   24057729.6894
       234.8084
  -3426883.85948  -2659362.46543  24086334.6194   24086334.6744
      2366.8004
  17014692.80947  13240249.52742  24399919.0184   24399918.7644
     -4306.3844
  -1539784.78149  -1199462.90246  21412521.8224   21412520.1894
      -187.6224
 04  9  7 22 13 30.0020000  0  8G 3G19G 8G13G10G28G23G27
   2231471.57447   1739406.19543  23757801.0574   23757800.2684
     -1955.2144
  -5337051.07448  -4152073.15644  23289723.1044   23289720.3814
       520.1784
  -7449590.03149  -5847161.93446  21920257.5184   21920255.7524
      1071.5344
   6876803.03549   5353021.45746  21552958.9944   21552957.3464
     -2703.4364
  -2165310.84847  -1677537.14143  24057088.4944   24057087.1784
       225.2404
  -3462332.14147  -2686984.44943  24079589.0104   24079588.5684
      2363.2194
  17079334.66047  13290619.70742  24412220.2914   24412218.8814
     -4309.4574
  -1536918.53549  -1197229.45746  21413066.8694   21413065.1584
      -191.0834
 04  9  7 22 13 45.0020000  0  8G 3G19G 8G13G10G28G23G27
   2260937.89547   1762366.96543  23763407.5644   23763407.7684
     -1964.4214
  -5344730.69948  -4158057.26644  23288261.8854   23288258.1744
       511.9754
  -7465610.32849  -5859645.27046  21917209.0574   21917206.9554
      1068.0204
   6917467.14149   5384707.75446  21560697.1744   21560695.7294
     -2710.9404
  -2168548.45347  -1680059.94543  24056472.0574   24056471.2014
       215.8404
  -3497729.25047  -2714566.56243  24072852.9634   24072852.5334
      2359.8074
  17144019.78547  13341023.61742  24424530.0644   24424527.5964
     -4312.3424
  -1534003.02349  -1194957.62946  21413621.7364   21413619.7714
      -194.3674
 04  9  7 22 14  0.0020000  0  8G 3G19G 8G13G10G28G23G27
   2290541.73447   1785434.89143  23769040.9244   23769040.8614
     -1973.5894
  -5352287.73848  -4163945.84044  23286823.9794   23286820.5724
       503.8034
  -7481578.18449  -5872087.74646  21914170.4634   21914168.6934
      1064.5244
   6958243.15649   5416481.25846  21568456.4244   21568454.6584
     -2718.4014
  -2171645.68047  -1682473.35943  24055882.9634   24055882.4514
       206.4824
  -3533075.50048  -2742109.02743  24066127.2054   24066126.0844
      2356.4174
  17208747.35247  13391460.62543  24436846.9864   24436845.2524
     -4315.1714
  -1531038.79349  -1192647.83646  21414186.0184   21414183.9084
      -197.6154
 04  9  7 22 14 15.0020000  0  8G 3G19G 8G13G10G28G23G27
   2320282.32847   1808609.37942  23774701.5494   23774700.4824
     -1982.7064
  -5359722.54348  -4169739.18044  23285408.9554   23285405.7094
       495.6544
  -7497494.23049  -5884489.83646  21911141.4004   21911139.8614
      1061.0704
   6999130.39849   5448341.42646  21576237.1584   21576235.4474
     -2725.8164
  -2174602.97347  -1684777.73843  24055319.9944   24055319.5764
       197.1534
  -3568371.29348  -2769612.18043  24059410.4084   24059410.0724
      2353.0534
  17273516.53148  13441930.05543  24449172.1044   24449170.6824
     -4317.9454
  -1528026.41849  -1190300.52346  21414759.2444   21414757.4004
      -200.8254
 04  9  7 22 14 30.0020000  0  8G 3G19G 8G13G10G28G23G27
   2350160.50847   1831891.06643  23780386.1114   23780386.7214
     -1991.8794
  -5367033.77748  -4175436.21944  23284017.7994   23284014.8074
       487.4164
  -7513357.41449  -5896850.75846  21908122.7834   21908121.2324
      1057.5464
   7040129.85249   5480289.03946  21584039.3074   21584037.7994
     -2733.2974
  -2177419.13348  -1686972.14143  24054784.4864   24054783.6154
       187.7444
  -3603615.35948  -2797075.02742  24052703.1274   24052702.4474
      2349.6044
  17338328.22748  13492432.59843  24461505.1974   24461504.1394
     -4320.7804
  -1524964.67649  -1187914.74646  21415341.4634   21415340.1624
      -204.1164
 04  9  7 22 14 45.0020000  0  8G 3G19G 8G13G10G28G23G27
   2380179.10547   1855282.19142  23786098.4714   23786098.2714
     -2001.2404
  -5374218.23448  -4181034.47344  23282650.0254   23282648.1434
       478.9644
  -7529164.70749  -5909168.10246  21905114.5024   21905113.0884
      1053.8204
   7081244.30549   5512326.25446  21591862.9944   21591861.2994
     -2740.9644
  -2180091.16447  -1689054.24242  24054275.4474   24054274.6314
       178.1354
  -3638804.58248  -2824495.16042  24046007.4714   24046006.0024
      2345.9484
  17403185.10548  13542970.36742  24473847.0494   24473845.9004
     -4323.7924
  -1521850.64549  -1185488.22746  21415933.9244   21415932.5374
      -207.6024
 04  9  7 22 15  0.0020000  0  8G 3G19G 8G13G10G28G23G27
   2410332.41447   1878778.25842  23791836.7604   23791836.4904
     -2010.2214
  -5381281.25448  -4186538.09844  23281306.4944   23281304.1314
       470.8684
  -7544921.49649  -5921446.10546  21902116.2364   21902114.7644
      1050.4534
   7122467.91449   5544448.53946  21599707.6744   21599706.2294
     -2748.2414
  -2182624.55947  -1691028.32043  24053793.3854   24053792.6974
       168.8934
  -3673944.37548  -2851876.75843  24039320.3384   24039319.8654
      2342.6534
  17468081.27348  13593538.73443  24486196.7994   24486195.5254
     -4326.4114
  -1518689.84449  -1183025.25846  21416535.9864   21416534.2794
      -210.7204
 04  9  7 22 15 15.0020000  0  8G 3G19G 8G13G10G28G23G27
   2440621.93847   1902380.48842  23797599.9394   23797599.9044
     -2019.3024
  -5388221.05148  -4191945.71544  23279986.0644   23279983.4364
       462.6534
  -7560626.22749  -5933683.54745  21899127.3934   21899126.1824
      1046.9824
   7163802.33649   5576657.17246  21607573.4714   21607571.8184
     -2755.6284
  -2185017.57847  -1692893.00042  24053337.9864   24053337.2054
       159.5354
  -3709033.00048  -2879218.46943  24032643.1584   24032642.3734
      2339.2424
  17533018.29747  13644138.92242  24498553.6824   24498552.7094
     -4329.1354
  -1515480.64849  -1180524.57846  21417146.3384   21417144.7484
      -213.9464
 04  9  7 22 15 30.0020000  0  8G 3G19G 8G13G10G28G23G27
   2471049.80947   1926090.53942  23803391.1434   23803390.5574
     -2028.5254
  -5395035.14848  -4197255.36344  23278689.3224   23278686.2604
       454.2734
  -7576276.69949  -5945878.71145  21896149.3614   21896147.9364
      1043.3654
   7205249.75449   5608953.84446  21615460.7994   21615459.4514
     -2763.1614
  -2187267.90247  -1694646.49242  24052909.3774   24052909.3344
       150.0224
  -3744067.93048  -2906518.35942  24025975.9864   24025975.6704
      2335.6624
  17597998.13747  13694772.50842  24510918.8614   24510917.7484
     -4331.9894
  -1512220.71149  -1177984.37146  21417766.6894   21417764.8964
      -217.3294
 04  9  7 22 15 45.0020000  0  8G 3G19G 8G13G10G28G23G27
   2501615.43047   1949907.88342  23809207.1744   23809207.0064
     -2037.7084
  -5401723.75848  -4202467.25044  23277415.9554   23277412.5064
       445.9074
  -7591873.05549  -5958031.70746  21893181.4794   21893180.0964
      1039.7574
   7246809.60249   5641338.13746  21623369.2524   21623367.1274
     -2770.6574
  -2189375.85247  -1696289.04343  24052508.5334   24052507.9714
       140.5304
  -3779049.53548  -2933776.70342  24019319.2834   24019318.3694
      2332.1074
  17663020.18047  13745438.95342  24523291.9084   24523291.2794
     -4334.8034
  -1508910.41049  -1175404.91446  21418396.7134   21418395.0104
      -220.6874
 04  9  7 22 16  0.0020000  0  8G 3G19G 8G13G10G28G23G27
   2532320.92647   1973834.23442  23815050.2524   23815049.8504
     -2047.0334
  -5408284.36748  -4207579.37944  23276167.8694   23276164.1394
       437.3744
  -7607412.86349  -5970140.63746  21890224.7214   21890222.9594
      1035.9874
   7288483.86749   5673811.56646  21631299.6744   21631297.8114
     -2778.2844
  -2191339.03947  -1697818.79742  24052135.2684   24052134.1194
       130.8794
  -3813975.41447  -2960991.60942  24012672.7994   24012672.5804
      2328.3924
  17728086.39547  13796139.83642  24535674.0804   24535672.9364
     -4337.7484
  -1505547.42649  -1172784.40246  21419036.6664   21419035.1314
      -224.1994
 04  9  7 22 16 15.0020000  0  8G 3G19G 8G13G10G28G23G27
   2563164.52047   1997868.21142  23820919.6114   23820918.9364
     -2056.2404
  -5414718.28148  -4212592.79744  23274943.2684   23274940.6624
       428.9284
  -7622897.87949  -5982206.87146  21887277.6664   21887276.4514
      1032.3344
   7330271.12949   5706373.05546  21639251.6584   21639249.6234
     -2785.8174
  -2193158.93047  -1699236.87542  24051788.6664   24051787.9634
       121.3264
  -3848846.91848  -2988164.15242  24006037.0644   24006035.8574
      2324.7674
  17793195.02346  13846873.78942  24548063.5334   24548062.0184
     -4340.5754
  -1502133.37949  -1170124.10946  21419686.1044   21419684.8074
      -227.6034
 04  9  7 22 16 30.0020000  0  8G 3G19G 8G13G10G28G23G27
   2594145.60947   2022009.32442  23826815.0964   23826814.7294
     -2065.4064
  -5421025.87548  -4217507.77744  23273742.9004   23273740.6394
       420.5064
  -7638328.48849  -5994230.71146  21884341.6044   21884339.9944
      1028.7074
   7372170.47749   5739021.88346  21647224.7524   21647222.9204
     -2793.2904
  -2194836.10947  -1700543.77742  24051469.3074   24051468.9434
       111.8124
  -3883664.42248  -3015294.60242  23999411.6664   23999411.5184
      2321.1674
  17858345.20347  13897640.07442  24560461.3854   24560459.2914
     -4343.3454
  -1498668.71149  -1167424.35546  21420345.5644   21420344.0724
      -230.9784
 04  9  7 22 16 45.0020000  0  8G 3G19G 8G13G10G28G23G27
   2625264.42647   2046257.74642  23832736.9004   23832736.2644
     -2074.5884
  -5427206.42248  -4222323.76644  23272566.5964   23272564.5214
       412.0364
  -7653704.23449  -6006211.80546  21881415.7364   21881414.2094
      1025.0504
   7414182.27349   5771758.33246  21655219.3144   21655217.4634
     -2800.7864
  -2196369.89547  -1701738.92642  24051178.0254   24051177.3034
       102.2524
  -3918427.27047  -3042382.48442  23992795.7604   23992795.6394
      2317.5234
  17923537.24647  13948439.02042  24572867.1354   24572865.3384
     -4346.1364
  -1495152.85549  -1164684.72746  21421014.7444   21421013.0294
      -234.3904
 04  9  7 22 17  0.0020000  0  8G 3G19G 8G13G10G28G23G27
   2656521.39547   2070613.81643  23838684.7294   23838684.5374
     -2083.7984
  -5433259.33648  -4227040.29744  23271414.5804   23271413.0144
       403.5284
  -7669024.53149  -6018149.68746  21878500.3144   21878499.0804
      1021.3534
   7456307.05149   5804582.80946  21663235.1974   21663233.5494
     -2808.3184
  -2197759.83247  -1702821.98043  24050913.2134   24050912.6704
        92.6624
  -3953134.82048  -3069427.26642  23986191.3934   23986190.8654
      2313.8374
  17988771.42247  13999270.77342  24585281.8144   24585279.5374
     -4348.9454
  -1491585.34449  -1161904.84046  21421693.8544   21421691.9084
      -237.8344
 04  9  7 22 17 15.0020000  0  8G 3G19G 8G13G10G28G23G27
   2687916.07847   2095077.20743  23844659.1114   23844658.7874
     -2092.9794
  -5439184.49248  -4231657.27344  23270287.7754   23270285.2914
       395.0104
  -7684289.59849  -6030044.53146  21875595.2134   21875593.9794
      1017.6714
   7498544.25449   5837494.90246  21671272.8464   21671270.7874
     -2815.8144
  -2199006.02047  -1703793.03542  24050676.4164   24050675.6974
        83.0794
  -3987787.02747  -3096428.94142  23979597.1354   23979595.7054
      2310.1474
  18054047.32847  14050135.03942  24597702.7134   24597701.1114
     -4351.7274
  -1487966.24649  -1159084.75846  21422382.6194   21422380.5764
      -241.2734
 04  9  7 22 17 30.0020000  0  8G 3G19G 8G13G10G28G23G27
   2719447.12147   2119646.83643  23850659.7214   23850659.1154
     -2102.0704
  -5444982.98448  -4236175.56244  23269184.3694   23269181.5214
       386.5664
  -7699500.65649  -6041897.28546  21872700.5884   21872699.5454
      1014.0714
   7540892.50049   5870493.51646  21679331.5804   21679329.7214
     -2823.2164
  -2200109.71547  -1704653.04742  24050466.3694   24050465.7014
        73.5804
  -4022385.17647  -3123388.47743  23973013.5024   23973013.1744
      2306.5434
  18119363.36747  14101030.58642  24610132.4714   24610130.8114
     -4354.4034
  -1484296.96549  -1156225.57847  21423080.5574   21423078.6314
      -244.6194
 04  9  7 22 17 45.0020000  0  8G 3G19G 8G13G10G28G23G27
   2751116.05147   2144323.92642  23856685.5884   23856685.2294
     -2111.2624
  -5450652.88348  -4240593.63744  23268105.3544   23268101.8544
       377.9934
  -7714655.59049  -6053706.31246  21869816.7604   21869815.2484
      1010.3294
   7583353.44149   5903579.94946  21687411.7754   21687409.7604
     -2830.7294
  -2201069.00846  -1705400.53142  24050283.7054   24050282.8814
        63.9534
  -4056927.29348  -3150304.35542  23966440.1194   23966439.7094
      2302.8084
  18184721.20347  14151958.68443  24622569.9474   24622568.0614
     -4357.1894
  -1480575.48049  -1153325.72346  21423788.9554   21423786.8264
      -248.0994
 04  9  7 22 18  0.0020000  0  8G 3G19G 8G13G10G28G23G27
   2782921.28147   2169107.21543  23862737.7914   23862737.7564
     -2120.3494
  -5456195.32048  -4244912.40644  23267050.2604   23267047.0724
       369.4964
  -7729755.92249  -6065472.78946  21866943.3464   21866941.9984
      1006.6894
   7625925.59849   5936753.04746  21695512.5644   21695510.5884
     -2838.1444
  -2201885.27047  -1706036.56642  24050127.7834   24050127.1234
        54.4174
  -4091414.62147  -3177177.52742  23959877.0254   23959876.6464
      2299.1554
  18250119.02747  14202917.96143  24635014.6504   24635013.5064
     -4359.8554
  -1476803.36349  -1150386.40246  21424506.5964   21424504.7564
      -251.4744
 04  9  7 22 18 15.0020000  0  8G 3G19G 8G13G10G28G23G27
   2814863.70747   2193997.42242  23868816.4244   23868815.6044
     -2129.4954
  -5461609.24248  -4249131.02744  23266019.7444   23266017.2644
       360.9284
  -7744800.64549  -6077195.94146  21864080.4324   21864079.2684
      1002.9824
   7668609.80149   5970013.45346  21703635.6894   21703633.0064
     -2845.6144
  -2202557.46946  -1706560.35942  24050000.0494   24049999.0684
        44.8134
  -4125846.10948  -3204007.22342  23953325.7294   23953324.7364
      2295.4334
  18315557.55947  14253908.92643  24647467.2914   24647466.2134
     -4362.5694
  -1472979.43449  -1147406.71146  21425234.3464   21425232.6274
      -254.9294
 04  9  7 22 18 30.0020000  0  8G 3G19G 8G13G10G28G23G27
   2846942.15247   2218993.61343  23874920.9004   23874919.8964
     -2138.5634
  -5466895.43048  -4253250.10944  23265013.8464   23265011.4904
       352.4134
  -7759790.61749  -6088876.43046  21861227.7604   21861226.3424
       999.3324
   7711404.92249   6003360.28946  21711778.8384   21711776.7834
     -2853.0084
  -2203086.49247  -1706972.58242  24049899.7994   24049898.5644
        35.2684
  -4160222.38347  -3230793.87142  23946783.2834   23946782.9794
      2291.7524
  18381035.75847  14304930.82042  24659927.5334   24659926.1864
     -4365.2134
  -1469104.67649  -1144387.41446  21425971.5724   21425969.9204
      -258.3174
 04  9  7 22 18 45.0020000  0  8G 3G19G 8G13G10G28G23G27
   2879158.39547   2244097.15643  23881051.2754   23881050.5804
     -2147.7494
  -5472051.55548  -4257267.85244  23264032.8934   23264030.7914
       343.7424
  -7774723.84049  -6100512.70746  21858386.3144   21858384.9824
       995.5484
   7754312.85249   6036795.03146  21719943.8464   21719942.1234
     -2860.5294
  -2203470.27347  -1707271.63343  24049826.7604   24049825.4674
        25.5854
  -4194541.35547  -3257535.87543  23940253.2134   23940252.8144
      2287.9324
  18446555.36347  14355984.96542  24672395.7604   24672394.5414
     -4367.9744
  -1465177.03549  -1141326.91047  21426718.8934   21426717.5254
      -261.8434
 04  9  7 22 19  0.0020000  0  8G 3G19G 8G13G10G28G23G27
   2911513.37148   2269308.81343  23887208.6354   23887207.7014
     -2156.9984
  -5477076.29748  -4261183.20344  23263076.9164   23263074.2994
       334.9834
  -7789598.98849  -6112103.72346  21855555.4394   21855554.2604
       991.6774
   7797334.61349   6070318.47746  21728130.7364   21728128.6394
     -2868.1174
  -2203707.64147  -1707456.58643  24049781.6584   24049780.6664
        15.8244
  -4228801.81247  -3284232.27043  23933733.5724   23933733.6074
      2284.0304
  18512117.12547  14407071.97742  24684871.0644   24684869.8424
     -4370.7844
  -1461195.35949  -1138224.30546  21427476.3774   21427475.1314
      -265.4454
 04  9  7 22 19 15.0020000  0  8G 3G19G 8G13G10G28G23G27
   2944005.86747   2294627.64843  23893391.6354   23893390.2094
     -2166.1664
  -5481970.62948  -4264996.95744  23262145.5494   23262142.6704
       326.2894
  -7804417.28149  -6123650.43746  21852735.7914   21852734.3734
       987.8864
   7840468.80149   6103929.51246  21736338.8614   21736337.1154
     -2875.6124
  -2203799.64847  -1707528.27343  24049764.3224   24049763.2174
         6.1344
  -4263004.71547  -3310883.83643  23927224.9864   23927225.0104
      2280.1934
  18577719.67647  14458190.78142  24697354.2604   24697353.3544
     -4373.5034
  -1457160.79349  -1135080.48047  21428243.9714   21428243.0024
      -268.9714
 04  9  7 22 19 30.0020000  0  8G 3G19G 8G13G10G28G23G27
   2976635.83648   2320053.59843  23899601.1504   23899599.9324
     -2175.3314
  -5486734.19148  -4268708.82044  23261239.5644   23261236.2054
       317.5714
  -7819178.44949  -6135152.63346  21849926.8934   21849925.6194
       984.0784
   7883715.42249   6137628.16845  21744568.1044   21744566.8894
     -2883.1084
  -2203746.16047  -1707486.58243  24049774.5964   24049773.2834
        -3.5664
  -4297149.76247  -3337490.30543  23920727.3074   23920726.8424
      2276.3364
  18643363.07446  14509341.41842  24709845.7134   24709844.5724
     -4376.2274
  -1453073.09449  -1131895.24647  21429022.0964   21429020.3894
      -272.5134
 04  9  7 22 19 45.0020000  0  8G 3G19G 8G13G10G28G23G27
   3009404.04347   2345587.26242  23905836.4794   23905835.9514
     -2184.5474
  -5491365.84448  -4272317.87144  23260357.8144   23260354.5064
       308.7774
  -7833881.46949  -6146609.52346  21847128.8544   21847127.3504
       980.2014
   7927075.38349   6171415.14146  21752819.4944   21752817.9864
     -2890.6644
  -2203546.07447  -1707330.67643  24049812.8074   24049811.5844
       -13.3394
  -4331235.79348  -3364050.80143  23914240.5494   23914240.3034
      2272.4024
  18709048.07047  14560524.46142  24722345.7444   24722344.1154
     -4379.0004
  -1448931.24649  -1128667.83647  21429810.5414   21429808.6894
      -276.1234
 04  9  7 22 20  0.0020000  0  8G 3G19G 8G13G10G28G23G27
   3042311.11747   2371229.14142  23912098.7444   23912097.6434
     -2193.8054
  -5495864.55948  -4275823.34844  23259501.5724   23259498.4084
       299.9144
  -7848525.55949  -6158020.49646  21844342.5644   21844341.0494
       976.2734
   7970549.33649   6205290.93045  21761092.2754   21761091.1074
     -2898.2644
  -2203198.64147  -1707059.94143  24049878.6114   24049877.5534
       -23.1624
  -4365261.78548  -3390564.52043  23907766.0024   23907765.4514
      2268.3994
  18774775.07047  14611740.21942  24734853.0184   24734851.2714
     -4381.8004
  -1444734.43049  -1125397.58646  21430608.8464   21430607.3614
      -279.7884
 04  9  7 22 20 15.0020000  0  8G 3G19G 8G13G10G28G23G27
   3075351.53547   2396974.89843  23918386.0024   23918385.2794
     -2202.6954
  -5500235.62948  -4279229.35244  23258669.7294   23258666.9084
       291.4054
  -7863115.83249  -6169389.52746  21841565.5804   21841564.1004
       972.6854
   8014131.71149   6239251.21146  21769385.6274   21769384.0024
     -2905.4924
  -2202709.19947  -1706678.56643  24049971.4244   24049971.1434
       -32.6294
  -4399233.11348  -3417035.62143  23901301.0724   23901301.5334
      2264.7554
  18840538.55947  14662984.44542  24747367.7604   24747365.0534
     -4384.2334
  -1440487.90249  -1122088.60546  21431417.0414   21431414.9124
      -283.1024
 04  9  7 22 20 30.0020000  0  8G 3G19G 8G13G10G28G23G27
   3108527.99247   2422826.69143  23924699.3934   23924698.8384
     -2211.7644
  -5504475.90248  -4282533.43044  23257862.7294   23257860.2444
       282.6854
  -7877649.53549  -6180714.49246  21838800.1584   21838798.6074
       968.9144
   8057825.24649   6273298.11346  21777700.1194   21777698.4714
     -2912.9024
  -2202074.78147  -1706184.19543  24050092.3464   24050091.5614
       -42.2954
  -4433146.70748  -3443461.74643  23894847.7604   23894847.3614
      2260.9064
  18906341.09448  14714259.07042  24759890.5494   24759888.1894
     -4386.8364
  -1436188.78949  -1118738.63746  21432235.2994   21432233.3034
      -286.6084
 04  9  7 22 20 45.0020000  0  8G 3G19G 8G13G10G28G23G27
   3141839.67647   2448783.84042  23931037.9324   23931037.8304
     -2220.7794
  -5508585.78548  -4285735.92244  23257080.8934   23257077.9904
       273.9924
  -7892127.19549  -6191995.77046  21836045.1044   21836043.5574
       965.1774
   8101629.07049   6307430.94146  21786035.8854   21786033.9824
     -2920.2554
  -2201295.95347  -1705577.30943  24050240.2134   24050239.7834
       -51.9224
  -4467003.07448  -3469843.28543  23888405.0254   23888405.0534
      2257.0914
  18972181.73047  14765563.40642  24772418.2524   24772417.3304
     -4389.3764
  -1431837.68049  -1115348.15646  21433063.2444   21433061.1864
      -290.0744
 04  9  7 22 21  0.0020000  0  8G 3G19G 8G13G10G28G23G27
   3175286.32447   2474846.15242  23937403.2294   23937401.8264
     -2229.7774
  -5512565.10248  -4288836.68044  23256323.4474   23256320.5724
       265.2884
  -7906548.87949  -6203233.43446  21833300.6354   21833299.2014
       961.4464
   8145543.12549   6341649.67646  21794392.4164   21794390.6744
     -2927.6044
  -2200372.71147  -1704857.89143  24050415.7364   24050415.7214
       -61.5494
  -4500802.00448  -3496180.04743  23881973.1824   23881973.0024
      2253.2624
  19038060.41047  14816897.34442  24784955.6044   24784953.8894
     -4391.9124
  -1427434.60949  -1111917.19547  21433900.9084   21433899.2444
      -293.5384
 04  9  7 22 21 15.0020000  0  8G 3G19G 8G13G10G28G23G27
   3208868.47747   2501014.07442  23943793.2834   23943792.4904
     -2238.8104
  -5516413.07448  -4291835.07844  23255591.0334   23255588.1314
       256.5324
  -7920913.92249  -6214426.96946  21830567.1824   21830565.7994
       957.6704
   8189567.97349   6375954.73446  21802770.1584   21802768.4554
     -2934.9904
  -2199304.28547  -1704025.34842  24050619.6114   24050618.3264
       -71.2284
  -4534542.75448  -3522471.49643  23875552.9084   23875552.5574
      2249.3834
  19103977.39147  14868261.16842  24797498.9474   24797497.1864
     -4394.4654
  -1422978.79349  -1108445.12947  21434748.8304   21434747.3304
      -297.0544
 04  9  7 22 21 30.0020000  0  8G 3G19G 8G13G10G28G23G27
   3242583.71947   2527285.68043  23950209.2994   23950208.2834
     -2247.6834
  -5520131.80548  -4294732.76244  23254883.7994   23254880.6004
       247.9154
  -7935224.35949  -6225577.94546  21827844.2134   21827842.4594
       954.0294
   8233701.19949   6410344.24246  21811168.6114   21811167.1744
     -2942.2154
  -2198092.96947  -1703081.46143  24050850.1274   24050848.8034
       -80.7544
  -4568227.41448  -3548719.23443  23869142.5574   23869142.0214
      2245.6444
  19169930.23047  14919652.91442  24810049.0104   24810047.9394
     -4396.8564
  -1418472.48049  -1104933.70747  21435606.2054   21435604.8114
      -300.4214
 04  9  7 22 21 45.0020000  0  8G 3G19G 8G13G10G28G23G27
   3276432.65247   2553661.46142  23956650.4394   23956650.1154
     -2256.5964
  -5523720.32048  -4297528.98844  23254201.1354   23254197.6934
       239.2344
  -7949479.28149  -6236685.66846  21825131.5024   21825129.8774
       950.3284
   8277943.32849   6444818.60546  21819587.5104   21819586.2214
     -2949.4754
  -2196737.92647  -1702025.57842  24051107.6434   24051106.7604
       -90.3364
  -4601855.02048  -3574922.49643  23862743.2294   23862743.0184
      2241.8404
  19235919.55547  14971073.08642  24822607.1274   24822605.9864
     -4399.2884
  -1413914.90649  -1101382.34847  21436473.7914   21436472.2714
      -303.8384
 04  9  7 22 22  0.0020000  0  8G 3G19G 8G13G10G28G23G27
   3310415.73047   2580141.77043  23963117.4394   23963117.2134
     -2265.5394
  -5527177.60548  -4300222.96544  23253542.4244   23253539.6744
       230.4864
  -7963677.66449  -6247749.32846  21822429.5724   21822427.9674
       946.5594
   8322295.05949   6479378.37945  21828027.5024   21828025.9324
     -2956.7824
  -2195238.30947  -1700857.04342  24051393.2834   24051392.3144
       -99.9744
  -4635424.70748  -3601080.64143  23856354.9164   23856354.9984
      2237.9794
  19301945.83247  15022522.04342  24835171.2054   24835170.7714
     -4401.7524
  -1409305.07449  -1097790.26646  21437350.7444   21437349.4124
      -307.3224
 04  9  7 22 22 15.0020000  0  7G 3G19G 8G13G10G28G27
   3344533.77747   2606727.27343  23969609.3304   23969609.2684
     -2274.5364
  -5530502.60248  -4302813.84844  23252910.1274   23252906.9554
       221.6664
  -7977818.74249  -6258768.34446  21819738.7214   21819737.0884
       942.7394
   8366757.02749   6514024.05546  21836488.2754   21836486.6354
     -2964.1314
  -2193593.18747  -1699575.12142  24051706.1974   24051705.2994
      -109.6754
  -4668935.43448  -3627192.85943  23849978.2054   23849977.8184
      2234.0484
  -1404642.24249  -1094156.88746  21438237.9394   21438236.8034
      -310.8554
 04  9  7 22 22 30.0020000  0  7G 3G19G 8G13G10G28G27
   3378788.18447   2633419.01642  23976127.2754   23976127.4004
     -2283.6274
  -5533693.46948  -4305300.21944  23252302.7294   23252299.3694
       212.7244
  -7991900.91849  -6269741.46146  21817058.7294   21817057.2484
       938.8124
   8411330.83249   6548756.86745  21844970.5414   21844969.1004
     -2971.5874
  -2191800.78147  -1698178.43742  24052047.0024   24052046.0064
      -119.4944
  -4702385.43048  -3653257.76243  23843613.1194   23843612.4674
      2230.0004
  -1399924.68749  -1090480.87146  21439135.7134   21439134.2444
      -314.5044
 04  9  7 22 22 45.0020000  0  7G 3G19G 8G13G10G28G27
   3413177.12947   2660215.58642  23982672.0964   23982671.2834
     -2292.5964
  -5536751.72348  -4307683.25844  23251721.1114   23251717.7484
       203.8844
  -8005925.73849  -6280669.88346  21814389.7294   21814388.2914
       934.9884
   8456014.55149   6583575.33646  21853473.6354   21853471.7914
     -2978.9154
  -2189862.84047  -1696668.34842  24052416.3614   24052415.1394
      -129.1964
  -4735776.07447  -3679276.37143  23837258.7914   23837258.9394
      2226.0434
  -1395153.96949  -1086763.41846  21440043.7214   21440041.9514
      -318.0484
 04  9  7 22 23  0.0030000  0  7G 3G19G 8G13G10G28G27
   3447706.57447   2687121.64142  23989242.4374   23989241.7064
     -2301.9634
  -5539673.47348  -4309959.93044  23251165.6244   23251161.9914
       194.7834
  -8019890.14849  -6291551.23046  21811732.6084   21811730.7184
       930.9614
   8500814.93849   6618484.71145  21861998.6554   21861997.0854
     -2986.6924
  -2187775.32047  -1695041.69942  24052813.1404   24052812.2264
      -139.1684
  -4769105.62147  -3705247.41843  23830916.4914   23830915.8624
      2221.9704
  -1390325.78149  -1083001.19146  21440962.2184   21440960.8234
      -321.8794
 04  9  7 22 23 15.0030000  0  7G 3G19G 8G13G10G28G27
   3482369.12947   2714131.41842  23995838.2494   23995837.4524
     -2310.8374
  -5542460.86748  -4312131.91044  23250634.9294   23250632.0344
       185.8264
  -8033795.04749  -6302386.20346  21809086.4524   21809084.9334
       926.9934
   8545723.24649   6653478.18446  21870544.6164   21870543.0034
     -2993.8874
  -2185541.13747  -1693300.78142  24053238.3044   24053237.2764
      -148.9464
  -4802372.26248  -3731169.42243  23824585.6714   23824585.5154
      2217.7764
  -1385443.51249  -1079196.82046  21441891.5464   21441889.9914
      -325.4854
 04  9  7 22 23 30.0030000  0  7G 3G19G 8G13G10G28G27
   3517168.31347   2741247.66042  24002461.0624   24002459.2534
     -2319.9464
  -5545112.46148  -4314198.05544  23250130.1244   23250127.0774
       176.7734
  -8047639.67249  -6313174.21946  21806451.8354   21806450.0894
       922.9754
   8590743.84049   6688559.14845  21879111.6874   21879110.2574
     -3001.3734
  -2183158.59447  -1691444.25043  24053691.8664   24053691.1834
      -158.8364
  -4835576.45347  -3757042.75843  23818267.2414   23818267.3124
      2213.6134
  -1380505.23449  -1075348.80946  21442831.2724   21442829.5074
      -329.2184
 04  9  7 22 23 45.0030000  0  7G 3G19G 8G13G10G28G27
   3552104.12146   2768470.37542  24009108.5154   24009107.5424
     -2329.0544
  -5547627.88348  -4316158.10944  23249651.5934   23249648.9014
       167.6954
  -8061423.82049  -6323915.09846  21803828.7264   21803827.0974
       918.9434
   8635876.53149   6723727.46946  21887700.1164   21887698.5774
     -3008.8464
  -2180627.63747  -1689472.06242  24054173.1794   24054172.7654
      -168.7304
  -4868717.90648  -3782867.23843  23811960.8664   23811960.2224
      2209.4304
  -1375510.81649  -1071457.04746  21443781.5934   21443779.5814
      -332.9614
 04  9  7 22 24  0.0030000  0  7G 3G19G 8G13G10G28G27
   3587176.46947   2795799.46542  24015783.0854   24015782.0774
     -2338.1574
  -5550006.80148  -4318011.78144  23249198.5224   23249195.6014
       158.5954
  -8075147.19149  -6334608.62946  21801217.2804   21801215.6874
       914.8914
   8681121.57049   6758983.32845  21896310.4214   21896308.8004
     -3016.3364
  -2177947.84447  -1687383.91042  24054683.6794   24054682.8624
      -178.6534
  -4901796.22348  -3808642.50043  23805666.3274   23805665.8944
      2205.2214
  -1370459.94149  -1067521.30146  21444742.8824   21444741.1044
      -336.7254
 04  9  7 22 24 15.0030000  0  7G 3G19G 8G13G10G28G27
   3622384.23846   2823234.09043  24022483.0074   24022482.4524
     -2347.1854
  -5552249.85948  -4319759.60544  23248771.8194   23248768.0694
       149.5374
  -8088810.86349  -6345255.63746  21798617.3274   21798615.9134
       910.9114
   8726477.69549   6794325.74646  21904941.2414   21904939.7224
     -3023.7424
  -2175120.21548  -1685180.57443  24055221.7724   24055220.6364
      -188.5094
  -4934812.35547  -3834369.30143  23799383.6474   23799382.8474
      2201.0764
  -1365353.45749  -1063542.21946  21445714.7494   21445712.9684
      -340.4324
 04  9  7 22 24 30.0030000  0  7G 3G19G 8G13G10G28G27
   3657725.37547   2850772.63342  24029208.0074   24029208.0974
     -2356.0764
  -5554358.79748  -4321402.93044  23248370.6324   23248366.7654
       140.5964
  -8102416.48849  -6355857.41446  21796028.4604   21796026.9374
       907.0424
   8771942.87149   6829753.14846  21913592.7804   21913591.3234
     -3031.0124
  -2172146.58647  -1682863.46142  24055787.0384   24055786.4094
      -198.2424
  -4967767.87947  -3860048.88743  23793111.8354   23793111.6594
      2197.0354
  -1360193.27749  -1059521.29746  21446696.2414   21446694.5814
      -344.0124
 04  9  7 22 24 45.0030000  0  7G 3G19G 8G13G10G28G27
   3693200.35247   2878415.46942  24035958.5074   24035958.6324
     -2364.9984
  -5556332.96548  -4322941.22744  23247994.6794   23247991.3584
       131.6114
  -8115963.40249  -6366413.44146  21793450.3044   21793448.8944
       903.1284
   8817517.61349   6865265.91846  21922265.2024   21922264.0264
     -3038.3164
  -2169026.37547  -1680432.11742  24056380.9684   24056380.1674
      -208.0144
  -5000662.09848  -3885680.70343  23786852.7414   23786851.7804
      2192.9484
  -1354978.72349  -1055458.00846  21447688.4684   21447686.9684
      -347.6374
 04  9  7 22 25  0.0030000  0  7G 3G19G 8G13G10G28G27
   3728806.85947   2906160.78543  24042734.7884   24042733.9684
     -2373.7674
  -5558174.25448  -4324375.96944  23247643.7494   23247641.2454
       122.7534
  -8129453.64849  -6376925.32046  21790883.4524   21790882.0304
       899.3504
   8863199.65649   6900862.30546  21930958.7884   21930956.9484
     -3045.4704
  -2165761.60248  -1677888.14842  24057002.1084   24057001.0344
      -217.6524
  -5033497.07048  -3911266.34843  23780604.5624   23780603.6634
      2188.9984
  -1349711.91449  -1051353.98846  21448690.9134   21448689.4644
      -351.1214
 04  9  7 22 25 15.0030000  0  7G 3G19G 8G13G10G28G27
   3764546.10547   2934009.54743  24049535.4214   24049534.9644
     -2382.6164
  -5559880.95748  -4325705.85544  23247319.2104   23247316.2614
       113.7804
  -8142885.64148  -6387391.80146  21788327.1944   21788325.8744
       895.4664
   8908990.20748   6936543.23046  21939672.0464   21939670.4174
     -3052.7034
  -2162350.87947  -1675230.44542  24057651.6404   24057650.3864
      -227.3824
  -5066271.27048  -3936804.64543  23774367.5854   23774366.4684
      2184.9474
  -1344391.39549  -1047208.13746  21449703.2104   21449701.9134
      -354.7014
 04  9  7 22 25 30.0030000  0  7G 3G19G 8G13G10G28G27
   3800417.32847   2961961.14143  24056361.5694   24056361.6084
     -2391.4154
  -5561453.63748  -4326931.29744  23247019.7574   23247017.6324
       104.8454
  -8156260.00848  -6397813.37146  21785782.0304   21785780.6364
       891.6244
   8954888.53949   6972308.14846  21948406.2264   21948404.7414
     -3059.8894
  -2158794.80947  -1672459.48843  24058327.9684   24058326.9724
      -237.0714
  -5098985.00448  -3962295.81643  23768142.1714   23768140.8664
      2180.9164
  -1339017.59449  -1043020.75046  21450726.2184   21450724.4054
      -358.2534
 04  9  7 22 25 45.0030000  0  7G 3G19G 8G13G10G28G27
   3836423.52047   2990017.90242  24063212.9914   24063213.0584
     -2400.4134
  -5562888.94948  -4328049.71144  23246746.9994   23246744.0384
        95.6884
  -8169573.52349  -6408187.53146  21783248.4134   21783247.1244
       887.5684
   9000897.61349   7008159.35946  21957161.5624   21957159.9214
     -3067.2724
  -2155090.14847  -1669572.73043  24059032.3974   24059032.2614
      -246.9774
  -5131634.84448  -3987737.22743  23761928.9294   23761928.5974
      2176.6564
  -1333587.24649  -1038789.31246  21451759.4684   21451757.5584
      -362.0234
 04  9  7 22 26  0.0030000  0  7G 3G19G 8G13G10G28G27
   3872561.71947   3018177.53542  24070089.6944   24070089.7724
     -2409.2134
  -5564189.34448  -4329062.99244  23246499.6794   23246496.1754
        86.6934
  -8182828.67248  -6418516.21146  21780726.2334   21780724.8704
       883.6774
   9047014.57848   7044094.63745  21965937.6014   21965935.9334
     -3074.4644
  -2151239.49647  -1666572.22742  24059765.7104   24059764.8624
      -256.7104
  -5164223.53148  -4013130.94943  23755727.3664   23755727.0814
      2172.5794
  -1328102.94549  -1034515.82846  21452803.3744   21452801.1794
      -365.6204
 04  9  7 22 26 15.0030000  0  7G 3G19G 8G13G10G28G27
   3908832.84046   3046440.74642  24076992.0154   24076992.3354
     -2418.0754
  -5565353.66048  -4329970.23044  23246277.9214   23246274.8904
        77.6214
  -8196024.39548  -6428798.58246  21778215.0624   21778213.6364
       879.7154
   9093240.45348   7080114.78946  21974733.8514   21974732.2614
     -3081.7254
  -2147241.82447  -1663457.17242  24060526.4374   24060525.6404
      -266.5114
  -5196749.75448  -4038476.02343  23749537.7334   23749537.1944
      2168.4154
  -1322563.82049  -1030199.62546  21453857.2104   21453855.0814
      -369.2754
 04  9  7 22 26 30.0030000  0  7G 3G19G 8G13G10G28G27
   3945235.80947   3074806.68843  24083919.0384   24083920.2454
     -2426.8654
  -5566382.53548  -4330771.93744  23246082.1874   23246079.1594
        68.5924
  -8209161.58648  -6439035.34846  21775715.2264   21775713.6834
       875.8134
   9139574.09048   7116218.90246  21983550.6634   21983549.2334
     -3088.9094
  -2143097.96147  -1660228.18442  24061315.1554   24061313.8084
      -276.2584
  -5229214.21548  -4063772.97343  23743360.1554   23743359.0894
      2164.2974
  -1316970.49649  -1025841.18446  21454921.6554   21454919.5624
      -372.8884
 04  9  7 22 26 45.0030000  0  7G 3G19G 8G13G10G28G27
   3981770.76247   3103275.47342  24090871.6634   24090872.0854
     -2435.6644
  -5567275.48848  -4331467.73444  23245911.9834   23245909.6044
        59.5304
  -8222239.68748  -6449226.06646  21773226.5774   21773225.1514
       871.8734
   9186015.75848   7152407.19945  21992388.4764   21992387.2104
     -3096.1114
  -2138807.50447  -1656884.96542  24062131.4134   24062130.6794
      -286.0304
  -5261616.52748  -4089021.48843  23737194.2264   23737193.1514
      2160.1544
  -1311322.65249  -1021440.26646  21455996.3664   21455994.3084
      -376.5234
 04  9  7 22 27  0.0030000  0  7G 3G19G 8G13G10G28G27
   4018436.33647   3131846.04342  24097849.0464   24097848.8004
     -2444.3724
  -5568033.46548  -4332058.34444  23245768.3744   23245765.6714
        50.5324
  -8235259.83649  -6459371.63746  21770749.2724   21770747.7184
       868.0104
   9232564.11749   7188678.63745  22001246.3584   22001244.5154
     -3103.2244
  -2134371.59047  -1653428.41043  24062975.5544   24062974.5734
      -295.7284
  -5293957.64548  -4114222.31243  23731040.0624   23731039.2494
      2156.0744
  -1305621.32849  -1016997.66846  21457081.3354   21457079.1084
      -380.0884
 04  9  7 22 27 15.0030000  0  7G 3G19G 8G13G10G28G27
   4055232.36747   3160518.26242  24104851.2334   24104850.8274
     -2453.0694
  -5568656.23448  -4332543.59844  23245649.3904   23245646.3354
        41.5184
  -8248221.85949  -6469471.90646  21768282.4294   21768281.0074
       864.1354
   9279219.07848   7225033.13345  22010124.6084   22010122.8944
     -3110.3314
  -2129790.27047  -1649858.52342  24063846.7654   24063846.0424
      -305.4214
  -5326237.30148  -4139375.24643  23724897.4054   23724896.2334
      2151.9774
  -1299866.36349  -1012513.27346  21458176.2494   21458174.4834
      -383.6644
 04  9  7 22 27 30.0030000  0  7G 3G19G 8G13G10G28G27
   4092159.82847   3189292.89842  24111878.3434   24111877.6674
     -2461.8314
  -5569142.42648  -4332922.43444  23245556.3124   23245553.6124
        32.4134
  -8261124.53549  -6479525.93046  21765827.3354   21765825.8004
       860.1784
   9325981.71149   7261471.53145  22019022.9444   22019021.3434
     -3117.5094
  -2125062.16048  -1646174.28942  24064747.2654   24064746.2654
      -315.2074
  -5358454.08648  -4164479.19943  23718767.4214   23718765.1834
      2147.7864
  -1294056.49249  -1007986.09846  21459281.7964   21459280.2024
      -387.3254
 04  9  7 22 27 45.0030000  0  7G 3G19G 8G13G10G28G27
   4129219.03947   3218170.18842  24118930.4604   24118929.9134
     -2470.6144
  -5569491.43448  -4333194.37544  23245490.2654   23245487.1634
        23.2674
  -8273967.08649  -6489533.10546  21763383.3124   21763381.9254
       856.1704
   9372852.21149   7297993.99245  22027942.0624   22027940.7184
     -3124.7004
  -2120186.89148  -1642375.38342  24065675.7414   24065674.0814
      -325.0184
  -5390607.48848  -4189533.75843  23712647.5774   23712646.2334
      2143.5604
  -1288191.25449  -1003415.78546  21460398.1794   21460396.3664
      -391.0164
 04  9  7 22 28  0.0030000  0  7G 3G19G 8G13G10G28G27
   4166409.76247   3247149.97342  24126007.8974   24126006.4834
     -2479.3824
  -5569703.05148  -4333359.27044  23245450.3904   23245447.0854
        14.1084
  -8286749.56249  -6499493.46546  21760951.0224   21760949.7224
       852.1654
   9419830.51249   7334600.44545  22036882.0384   22036880.1044
     -3131.8874
  -2115164.42647  -1638461.77042  24066630.4054   24066629.5854
      -334.8314
  -5422697.25048  -4214538.73443  23706541.4524   23706540.4644
      2139.3174
  -1282270.54349   -998802.23446  21461524.7654   21461522.9834
      -394.7144
 04  9  7 22 28 15.0030000  0  7G 3G19G 8G13G10G28G27
   4203729.53148   3276230.31342  24133109.8124   24133107.8974
     -2487.9854
  -5569779.51248  -4333418.83644  23245435.6014   23245432.8124
         5.0974
  -8299474.13749  -6509408.71546  21758529.3744   21758528.0384
       848.3054
   9466914.22349   7371289.03545  22045841.6084   22045839.8864
     -3138.9144
  -2109997.00847  -1634435.21943  24067614.1164   24067613.1634
      -344.4954
  -5454725.66048  -4239495.89843  23700446.9524   23700445.8474
      2135.2274
  -1276296.62549   -994147.23846  21462661.2494   21462659.8124
      -398.2614
 04  9  7 22 28 30.0030000  0  7G 3G19G 8G13G10G28G27
   4241179.66448   3305412.23042  24140235.8274   24140234.6284
     -2496.6764
  -5569719.07448  -4333371.71944  23245447.1244   23245444.1674
        -4.0294
  -8312139.48449  -6519277.80146  21756118.8824   21756117.4764
       844.3574
   9514104.72749   7408060.84445  22054821.9214   22054819.9134
     -3146.0344
  -2104683.18448  -1630294.57842  24068624.8274   24068623.9484
      -354.2554
  -5486691.02748  -4264403.92643  23694364.0304   23694362.6044
      2131.0244
  -1270267.90249   -989449.52746  21463808.6404   21463806.9564
      -401.9154
 04  9  7 22 28 45.0030000  0  7G 3G19G 8G13G10G28G27
   4278758.96148   3334694.79743  24147386.8974   24147385.7964
     -2505.2864
  -5569522.62148  -4333218.61344  23245484.2804   23245482.0854
       -13.0974
  -8324746.35549  -6529101.32846  21753720.3274   21753718.7334
       840.4584
   9561400.60949   7444914.76645  22063821.8434   22063819.8974
     -3153.0594
  -2099223.82448  -1626040.53543  24069664.2964   24069662.9994
      -363.9574
  -5518594.06648  -4289263.40243  23688292.8744   23688291.2144
      2126.8694
  -1264185.34049   -984709.86746  21464966.2654   21464964.5584
      -405.5044
 04  9  7 22 29  0.0030000  0  7G 3G19G 8G13G10G28G27
   4316469.02347   3364079.25442  24154562.1634   24154562.1674
     -2514.0044
  -5569188.24648  -4332958.04344  23245547.4914   23245545.4374
       -22.2924
  -8337293.00849  -6538877.93046  21751332.6084   21751331.3084
       836.4434
   9608803.56349   7481852.12145  22072842.1164   22072840.9954
     -3160.1974
  -2093617.22748  -1621671.74643  24070731.3514   24070730.5224
      -373.7734
  -5550433.02748  -4314072.94943  23682234.5464   23682232.3944
      2122.5974
  -1258047.01249   -979926.75046  21466134.3044   21466132.6834
      -409.2224
 04  9  7 22 29 15.0030000  0  7G 3G19G 8G13G10G28G27
   4354309.41447   3393565.28142  24161763.7804   24161762.8274
     -2522.6934
  -5568715.97348  -4332590.02744  23245637.8124   23245634.9794
       -31.4854
  -8349779.53149  -6548607.68746  21748956.4994   21748955.2884
       832.4354
   9656313.18849   7518872.58645  22081883.1084   22081881.5694
     -3167.3084
  -2087863.66047  -1617188.45742  24071825.9444   24071824.8864
      -383.5714
  -5582207.98448  -4338832.61343  23676187.2574   23676186.2374
      2118.3304
  -1251853.24249   -975100.43046  21467313.1244   21467310.9564
      -412.9184
 04  9  7 22 29 30.0030000  0  7G 3G19G 8G13G10G28G27
   4392276.78147   3423150.20342  24168987.9294   24168987.8664
     -2531.1584
  -5568108.75848  -4332116.86344  23245753.2574   23245750.4794
       -40.4814
  -8362208.83649  -6558292.84846  21746591.2724   21746590.1554
       828.6204
   9703926.29349   7555973.69145  22090943.3744   22090941.8004
     -3174.2074
  -2081966.17247  -1612593.01643  24072947.6244   24072947.4994
      -393.1664
  -5613921.68048  -4363544.54343  23670153.2414   23670151.5584
      2114.2464
  -1245606.84449   -970233.10546  21468501.4764   21468499.9794
      -416.4274
 04  9  7 22 29 45.0030000  0  7G 3G19G 8G13G10G28G27
   4430369.96147   3452833.18842  24176237.0854   24176237.3194
     -2539.5454
  -5567367.29348  -4331539.08644  23245894.1874   23245891.7574
       -49.4314
  -8374581.66449  -6567934.00446  21744236.5464   21744235.0264
       824.8554
   9751641.78549   7593154.58245  22100023.1014   22100021.7104
     -3181.0334
  -2075925.61748  -1607886.09442  24074097.7334   24074096.1404
      -402.7044
  -5645575.05548  -4388209.46143  23664129.2574   23664128.0344
      2110.2254
  -1239308.81649   -965325.54746  21469699.9444   21469698.1084
      -419.8684
 04  9  7 22 30  0.0030000  0  7G 3G19G 8G13G10G28G27
   4468590.69947   3482615.57042  24183510.1634   24183509.5654
     -2548.0494
  -5566489.50448  -4330855.08644  23246061.5854   23246059.1404
       -58.5194
  -8386896.10949  -6577529.67646  21741893.5384   21741891.9374
       820.9634
   9799461.57449   7630416.73445  22109123.2964   22109121.5584
     -3187.9864
  -2069740.12548  -1603066.22342  24075274.1634   24075273.5854
      -412.3664
  -5677166.01648  -4412825.73843  23658117.5934   23658116.5194
      2106.0644
  -1232957.15649   -960376.20746  21470908.8584   21470906.8824
      -423.4444
 04  9  7 22 30 15.0030000  0  7G 3G19G 8G13G10G28G27
   4506939.09447   3512497.43842  24190807.6794   24190806.9564
     -2556.5604
  -5565475.03148  -4330064.56244  23246253.9294   23246251.4794
       -67.6324
  -8399151.80149  -6587079.56246  21739561.1874   21739559.6164
       817.0464
   9847385.61749   7667760.12545  22118242.5774   22118241.2654
     -3194.9364
  -2063409.34047  -1598133.16042  24076479.1244   24076478.4374
      -422.0524
  -5708694.03548  -4437392.99643  23652117.9684   23652117.1474
      2101.8684
  -1226551.30149   -955384.62547  21472127.8744   21472126.0814
      -427.0574
 04  9  7 22 30 30.0030000  0  7G 3G19G 8G13G10G28G27
   4545414.46947   3542478.24642  24198129.8904   24198128.8974
     -2565.0254
  -5564324.17248  -4329167.78944  23246473.6244   23246470.6324
       -76.7244
  -8411348.97349  -6596583.84046  21737240.1794   21737238.7024
       813.1454
   9895413.33649   7705184.31345  22127382.3584   22127380.7694
     -3201.8484
  -2056933.71147  -1593087.21942  24077711.4914   24077710.3824
      -431.7094
  -5740159.50448  -4461911.48443  23646130.6164   23646129.4014
      2097.6984
  -1220091.87149   -950351.30146  21473356.8904   21473354.9764
      -430.6294
 04  9  7 22 30 45.0030000  0  7G 3G19G 8G13G10G28G27
   4584018.57447   3572559.37142  24205475.6944   24205475.3544
     -2573.6074
  -5563034.69148  -4328162.99644  23246718.9444   23246716.1904
       -85.9654
  -8423485.96549  -6606041.22746  21734930.6874   21734929.1554
       809.1334
   9943546.35249   7742690.54345  22136541.8664   22136540.0894
     -3208.8684
  -2050311.44947  -1587927.02342  24078972.1794   24078970.7884
      -441.4844
  -5771560.33248  -4486379.62943  23640154.8744   23640154.0814
      2093.3894
  -1213576.80549   -945274.61746  21474596.8664   21474594.8944
      -434.3384
 04  9  7 22 31  0.0030000  0  7G 3G19G 8G13G10G28G27
   4622748.98447   3602738.91442  24212845.8194   24212845.1044
     -2582.0274
  -5561608.89148  -4327051.97344  23246990.7264   23246986.9794
       -95.0534
  -8435564.62549  -6615453.16846  21732632.2334   21732630.4524
       805.2444
   9991782.38349   7780277.05145  22145720.7574   22145719.4954
     -3215.7354
  -2043544.72347  -1582654.24642  24080259.3744   24080258.5894
      -451.1154
  -5802898.61348  -4510799.01243  23634191.5544   23634190.2844
      2089.2194
  -1207008.34849   -940156.34046  21475846.3514   21475844.5544
      -437.8974
 04  9  7 22 31 15.0030000  0  7G 3G19G 8G13G10G28G27
   4661607.15247   3633017.99642  24220239.8584   24220239.4604
     -2590.5454
  -5560044.98848  -4325833.32844  23247287.9834   23247284.6874
      -104.2604
  -8447583.39849  -6624818.43746  21730345.0384   21730343.5934
       801.2524
  10040122.81349   7817944.89545  22154919.8044   22154918.0974
     -3222.6954
  -2036631.87547  -1577267.60243  24081574.8274   24081573.7104
      -460.8574
  -5834172.55948  -4535168.27044  23628240.1714   23628239.3274
      2084.9304
  -1200384.69949   -934995.05546  21477106.9994   21477105.2534
      -441.5774
 04  9  7 22 31 30.0030000  0  7G 3G19G 8G13G10G28G27
   4700592.35547   3663396.05942  24227658.5384   24227658.7064
     -2599.0144
  -5558343.21148  -4324507.26244  23247611.4764   23247608.7454
      -113.4524
  -8459542.73449  -6634137.40246  21728069.1164   21728067.9444
       797.2894
  10088567.04348   7855693.63345  22164138.2654   22164136.7804
     -3229.6154
  -2029573.42647  -1571767.54742  24082917.4914   24082916.5344
      -470.5634
  -5865382.46148  -4559487.64144  23622301.0544   23622300.1044
      2080.6604
  -1193706.33249   -929791.12946  21478378.1244   21478375.8974
      -445.2244
 04  9  7 22 31 45.0030000  0  7G 3G19G 8G13G10G28G27
   4739704.05947   3693872.70342  24235101.3124   24235101.6444
     -2607.4474
  -5556503.50448  -4323073.70344  23247961.6714   23247958.6014
      -122.6474
  -8471442.35548  -6643409.82046  21725804.5934   21725803.3664
       793.3084
  10137114.77048   7893523.01245  22173376.6324   22173375.1444
     -3236.5154
  -2022369.42647  -1566154.03542  24084289.0304   24084287.6244
      -480.2674
  -5896528.42648  -4583757.16843  23616373.6944   23616373.3154
      2076.3984
  -1186973.28149   -924544.59446  21479659.1714   21479657.4644
      -448.8704
 04  9  7 22 32  0.0030000  0  7G 3G19G 8G13G10G28G27
   4778941.60947   3724447.39842  24242568.8824   24242568.5424
     -2615.8374
  -5554526.34448  -4321533.04744  23248338.0694   23248334.4874
      -131.8114
  -8483282.93049  -6652636.23446  21723551.4604   21723550.1904
       789.3724
  10185765.34448   7931432.53145  22182634.5154   22182633.1364
     -3243.3724
  -2015020.50447  -1560427.59842  24085687.8194   24085686.0304
      -489.9284
  -5927610.78148  -4607977.13344  23610459.3744   23610458.4054
      2072.1574
  -1180185.96949   -919255.77347  21480950.7884   21480949.2764
      -452.4874
 04  9  7 22 32 15.0030000  0  7G 3G19G 8G13G10G28G27
   4818306.50847   3755121.34842  24250059.5464   24250059.3974
     -2624.3274
  -5552409.94148  -4319883.88344  23248740.9914   23248737.7964
      -141.0934
  -8495062.70348  -6661815.27746  21721309.9054   21721308.3544
       785.3184
  10234520.16848   7969423.28545  22191912.1244   22191910.7494
     -3250.3224
  -2007525.01247  -1554586.97343  24087113.5624   24087112.4994
      -499.6994
  -5958627.70348  -4632146.12143  23604556.8744   23604555.9564
      2067.7954
  -1173342.71149   -913923.36346  21482252.8354   21482251.4794
      -456.2174
 04  9  7 22 32 30.0030000  0  7G 3G19G 8G13G10G28G27
   4857798.97747   3785894.68842  24257574.6944   24257574.5464
     -2632.8314
  -5550153.68447  -4318125.74644  23249169.6794   23249167.1514
      -150.4174
  -8506781.12548  -6670946.50046  21719079.9294   21719078.6124
       781.2284
  10283379.55148   8007495.51645  22201209.9764   22201208.2374
     -3257.2924
  -1999882.48847  -1548631.75042  24088568.1874   24088567.2964
      -509.5024
  -5989578.52048  -4656263.59843  23598667.0774   23598666.5934
      2063.3884
  -1166442.91049   -908546.89146  21483565.6164   21483564.1084
      -459.9874
 04  9  7 22 32 45.0030000  0  7G 3G19G 8G13G10G28G27
   4897420.11347   3816768.29742  24265114.5304   24265113.7964
     -2641.4094
  -5547755.93048  -4316257.35544  23249626.5624   23249623.2654
      -159.8504
  -8518436.71548  -6680028.77746  21716861.8124   21716860.5774
       777.0394
  10332344.70348   8045650.15245  22210527.6874   22210526.1284
     -3264.3434
  -1992091.52748  -1542560.85942  24090050.9684   24090049.5304
      -519.3974
  -6020461.73048  -4680328.38743  23592789.8824   23592789.0224
      2058.8814
  -1159485.23449   -903125.31646  21484889.9914   21484888.2294
      -463.8454
 04  9  7 22 33  0.0030000  0  7G 3G19G 8G13G10G28G27
   4937169.91847   3847742.16442  24272678.5384   24272678.1324
     -2649.9874
  -5545216.57047  -4314278.62144  23250109.3044   23250106.6874
      -169.2914
  -8530029.44549  -6689062.07046  21714656.1874   21714654.3004
       772.8494
  10381415.64148   8083887.21945  22219865.6244   22219863.5814
     -3271.3964
  -1984151.97348  -1536374.19542  24091561.7334   24091560.3514
      -529.3044
  -6051277.07048  -4704340.29344  23586926.2414   23586924.8944
      2054.3564
  -1152469.34049   -897658.38746  21486225.1244   21486223.4444
      -467.7264
 04  9  7 22 33 15.0030000  0  7G 3G19G 8G13G10G28G27
   4977044.48447   3878813.25842  24280266.3354   24280265.6444
     -2658.3044
  -5542539.11348  -4312192.27744  23250619.6474   23250615.8824
      -178.4974
  -8541562.48849  -6698048.84846  21712461.3354   21712459.9014
       768.8704
  10430588.43048   8122203.66845  22229222.8904   22229221.5264
     -3278.1864
  -1976067.50448  -1530074.61743  24093100.2104   24093098.9994
      -538.9654
  -6082028.09048  -4728302.07044  23581074.1554   23581073.1084
      2050.0684
  -1145398.89849   -892148.94946  21487570.4444   21487568.6244
      -471.3634
 04  9  7 22 33 30.0030000  0  7G 3G19G 8G13G10G28G27
   5017045.59447   3909982.94142  24287877.9604   24287877.5774
     -2666.7414
  -5539721.32048  -4309996.57844  23251155.5074   23251152.5194
      -187.8534
  -8553033.88749  -6706987.59046  21710278.6084   21710277.0584
       764.7604
  10479865.03948   8160601.00045  22238600.1874   22238598.6244
     -3285.1074
  -1967836.07847  -1523660.52043  24094666.1164   24094665.1014
      -548.7624
  -6112712.55948  -4752212.02343  23575234.9524   23575234.3124
      2045.6314
  -1138271.74249   -886595.32046  21488926.5464   21488924.9254
      -475.1444
 04  9  7 22 33 45.0030000  0  7G 3G19G 8G13G10G28G27
   5057174.48447   3941252.20742  24295514.5694   24295513.5854
     -2675.2594
  -5536761.68748  -4307690.35944  23251718.7184   23251715.6904
      -197.3094
  -8564442.23449  -6715877.20346  21708107.3744   21708106.5114
       760.5574
  10529246.61748   8199080.12945  22247996.9684   22247995.5464
     -3292.1054
  -1959456.40247  -1517130.91443  24096260.9604   24096259.7334
      -558.6454
  -6143329.09048  -4776069.00443  23569408.7804   23569408.3474
      2041.1024
  -1131086.48849   -880996.41046  21490293.8974   21490292.2264
      -479.0174
 04  9  7 22 34  0.0030000  0  7G 3G19G 8G13G10G28G27
   5097429.82447   3972619.98042  24303174.8434   24303173.8864
     -2683.6894
  -5533661.19948  -4305274.37944  23252308.4374   23252305.8704
      -206.6994
  -8575788.50049  -6724718.43746  21705948.2964   21705947.1874
       756.4184
  10578731.87149   8237640.04345  22257413.7264   22257412.2534
     -3299.0174
  -1950929.61747  -1510486.66842  24097883.6634   24097882.4954
      -568.4524
  -6173878.52748  -4799873.72343  23563596.1874   23563594.5504
      2036.6294
  -1123844.12549   -875353.01246  21491671.9444   21491670.2724
      -482.8244
 04  9  7 22 34 15.0030000  0  7G 3G19G 8G13G10G28G27
   5137809.33247   4004084.53942  24310858.8664   24310858.1014
     -2691.9674
  -5530421.62548  -4302750.01644  23252924.8664   23252921.4134
      -215.9724
  -8587074.75049  -6733512.91046  21703800.4604   21703799.7574
       752.4174
  10628318.80549   8276279.19145  22266849.9374   22266848.4684
     -3305.7964
  -1942257.62948  -1503729.29342  24099533.7654   24099532.5694
      -578.1334
  -6204362.69148  -4823627.57843  23557794.7724   23557793.8624
      2032.2784
  -1116546.55149   -869666.59446  21493060.9914   21493059.2494
      -486.5054
 04  9  7 22 34 30.0030000  0  7G 3G19G 8G13G10G28G27
   5178313.31347   4035646.06342  24318566.4294   24318565.7414
     -2700.2654
  -5527042.44548  -4300116.87544  23253568.5544   23253564.5894
      -225.2794
  -8598300.16049  -6742259.98446  21701664.4524   21701663.3044
       748.3614
  10678007.53549   8314997.66445  22276305.5154   22276303.8544
     -3312.5824
  -1933440.02747  -1496858.43742  24101211.6164   24101210.3544
      -587.8404
  -6234780.85548  -4847329.98844  23552006.4604   23552005.8704
      2027.8784
  -1109193.07049   -863936.60547  21494460.1944   21494458.3154
      -490.2324
 04  9  7 22 34 45.0030000  0  7G 3G19G 8G13G10G28G27
   5218941.70348   4067304.55142  24326298.1084   24326297.0114
     -2708.5594
  -5523523.25048  -4297374.63344  23254237.9134   23254234.4914
      -234.6134
  -8609464.47349  -6750959.43746  21699540.1164   21699538.8314
       744.2884
  10727798.22348   8353795.57445  22285780.6164   22285778.7804
     -3319.3794
  -1924476.64147  -1489873.98042  24102917.0384   24102916.6514
      -597.5594
  -6265132.77748  -4870980.81243  23546230.3124   23546229.4834
      2023.4614
  -1101783.65249   -858163.03146  21495870.1014   21495868.0504
      -493.9614
 04  9  7 22 35  0.0030000  0  7G 3G19G 8G13G10G28G27
   5259693.83647   4099059.44142  24334053.2184   24334052.3314
     -2716.8094
  -5519864.43448  -4294523.60544  23254933.6714   23254930.2654
      -243.9214
  -8620568.30949  -6759611.77046  21697427.0304   21697425.8354
       740.2564
  10777690.09848   8392672.34845  22295274.2334   22295272.5694
     -3326.1254
  -1915367.97347  -1482776.30542  24104650.5074   24104650.0264
      -607.2454
  -6295418.72348  -4894580.19944  23540467.1014   23540466.2224
      2019.0634
  -1094318.49249   -852346.02746  21497290.7104   21497288.8704
      -497.6774
 04  9  7 22 35 15.0030000  0  7G 3G19G 8G13G10G28G27
   5300569.82447   4130910.85942  24341830.7264   24341830.2144
     -2725.0664
  -5516065.49648  -4291563.36744  23255656.7574   23255653.7804
      -253.2624
  -8631610.90249  -6768216.38746  21695325.5774   21695324.4914
       736.1734
  10827683.42248   8431628.16445  22304787.3974   22304786.1084
     -3332.8884
  -1906113.69147  -1475565.18442  24106411.4444   24106410.7884
      -616.9524
  -6325638.32448  -4918127.89544  23534716.7574   23534715.5584
      2014.6404
  -1086797.33649   -846485.38346  21498722.1244   21498720.3544
      -501.4104
 04  9  7 22 35 30.0030000  0  7G 3G19G 8G13G10G28G27
   5341568.04747   4162857.50042  24349632.6634   24349632.4644
     -2733.2154
  -5512127.68048  -4288494.91444  23256406.1554   23256403.1834
      -262.5214
  -8642593.66049  -6776774.37146  21693235.6474   21693234.2924
       732.1844
  10877776.35249   8470661.60245  22314320.2264   22314318.7654
     -3339.5294
  -1896715.26247  -1468241.73042  24108199.6714   24108199.4134
      -626.5624
  -6355792.78148  -4941624.83643  23528978.0774   23528977.1904
      2010.2974
  -1079221.35249   -840582.02046  21500164.0694   21500161.5974
      -505.0664
 04  9  7 22 35 45.0030000  0  7G 3G19G 8G13G10G28G27
   5382688.96947   4194899.77742  24357457.2964   24357457.5114
     -2741.3954
  -5508050.26248  -4285317.69144  23257181.9134   23257179.1164
      -271.8284
  -8653515.87549  -6785285.17646  21691157.4294   21691155.3824
       728.1484
  10927969.64149   8509773.24245  22323871.5544   22323870.0304
     -3346.2194
  -1887171.93447  -1460805.37942  24110015.8194   24110015.5384
      -636.2224
  -6385881.27748  -4965070.38344  23523252.7724   23523251.6474
      2005.9004
  -1071589.98449   -834635.50046  21501615.9834   21501613.8314
      -508.7584
 04  9  7 22 36  0.0030000  0  7G 3G19G 8G13G10G28G27
   5423933.47747   4227038.34842  24365306.4764   24365306.1084
     -2749.6344
  -5503832.10548  -4282030.81244  23257984.7414   23257981.9724
      -281.2104
  -8664376.38349  -6793747.90646  21689090.7264   21689089.0154
       724.0344
  10978264.12549   8548963.73845  22333442.3974   22333440.7064
     -3352.9664
  -1877482.75047  -1453255.37542  24111859.8124   24111859.2494
      -645.9464
  -6415902.60248  -4988463.57844  23517539.7184   23517538.9214
      2001.4224
  -1063901.94549   -828644.81646  21503078.8664   21503076.8004
      -512.5364
 04  9  7 22 36 15.0030000  0  7G 3G19G 8G13G10G28G27
   5465300.43047   4259272.32442  24373178.2964   24373177.4794
     -2757.7974
  -5499473.96548  -4278634.85544  23258814.0304   23258810.8704
      -290.5434
  -8675176.01249  -6802163.20346  21687035.4834   21687034.1634
       719.9754
  11028658.77349   8588232.27745  22343032.3044   22343030.7764
     -3359.6434
  -1867648.63748  -1445592.43742  24113731.1404   24113730.9564
      -655.6084
  -6445857.62148  -5011805.12144  23511839.6634   23511838.6204
      1997.0014
  -1056158.07449   -822610.62946  21504552.7574   21504550.5894
      -516.2584
 04  9  7 22 36 30.0030000  0  7G 3G19G 8G13G10G28G27
   5506791.00047   4291602.62943  24381074.1474   24381073.1044
     -2766.0384
  -5494974.15247  -4275128.47744  23259669.9834   23259666.8864
      -299.9874
  -8685913.16449  -6810529.80546  21684992.4294   21684991.0694
       715.8104
  11079154.86749   8627579.87545  22352641.3584   22352639.9764
     -3366.4064
  -1857668.10247  -1437815.39142  24115630.5854   24115629.8864
      -665.3694
  -6475744.54348  -5035093.59844  23506152.0074   23506150.7574
      1992.4614
  -1048356.82049   -816531.73447  21506037.3434   21506035.2224
      -520.0844
 04  9  7 22 36 45.0030000  0  7G 3G19G 8G13G10G28G27
   5548403.34447   4324027.82043  24388992.1874   24388991.5734
     -2774.1564
  -5490334.13347  -4271512.86344  23260553.0464   23260549.6474
      -309.3354
  -8696589.37549  -6818848.92246  21682960.7184   21682959.2184
       711.7474
  11129750.53949   8667005.05945  22362269.4374   22362267.9134
     -3373.0454
  -1847542.89148  -1429925.61742  24117557.6714   24117556.4134
      -675.0144
  -6505564.89848  -5058330.19943  23500477.4214   23500475.8864
      1988.0244
  -1040499.76249   -810409.34846  21507532.3354   21507530.2494
      -523.8044
 04  9  7 22 37  0.0030000  0  7G 3G19G 8G13G10G28G27
   5590135.50447   4356546.38342  24396933.9294   24396933.0114
     -2782.1444
  -5485555.54747  -4267789.27344  23261462.5074   23261459.2264
      -318.5724
  -8707206.06249  -6827121.66046  21680940.4914   21680939.1754
       707.7794
  11180443.96949   8706506.41045  22371916.1404   22371914.9174
     -3379.5624
  -1837274.64847  -1421924.39142  24119511.1554   24119509.8474
      -684.5494
  -6535320.30148  -5081516.19144  23494815.2574   23494814.7294
      1983.6934
  -1032588.46549   -804244.69946  21509037.7184   21509035.4374
      -527.4204
 04  9  7 22 37 15.0030000  0  7G 3G19G 8G13G10G28G27
   5631992.30947   4389162.06642  24404898.7104   24404897.6204
     -2790.4544
  -5480633.28147  -4263953.73844  23262399.7654   23262395.7844
      -328.1514
  -8717758.25049  -6835344.14546  21678932.3194   21678930.9794
       703.4794
  11231239.87549   8746087.61345  22381581.9294   22381580.2534
     -3386.3944
  -1826858.42647  -1413807.85242  24121493.8664   24121492.5034
      -694.4154
  -6565005.56248  -5104647.52344  23489166.1944   23489164.9444
      1979.0174
  -1024617.81249   -798033.79746  21510554.3044   21510552.8744
      -531.3774
 04  9  7 22 37 30.0030000  0  7G 3G19G 8G13G10G28G27
   5673971.48447   4421873.11342  24412887.1404   24412885.9794
     -2798.6124
  -5475569.17648  -4260007.68044  23263363.1324   23263359.5114
      -337.6074
  -8728247.78949  -6843517.80546  21676936.5544   21676934.9014
       699.3034
  11282136.13349   8785747.02045  22391267.6244   22391266.1324
     -3393.0844
  -1816296.15648  -1405577.52042  24123502.8194   24123501.9404
      -704.1514
  -6594622.55548  -5127725.65644  23483530.6794   23483529.2494
      1974.4664
  -1016589.83249   -791778.23046  21512082.1164   21512080.3044
      -535.1994
 04  9  7 22 37 45.0030000  0  7G 3G19G 8G13G10G28G27
   5716070.84047   4454677.79742  24420898.2724   24420897.1284
     -2806.6244
  -5470365.26247  -4255952.66844  23264352.7264   23264350.7534
      -346.9284
  -8738676.83249  -6851644.32446  21674951.5934   21674950.2534
       695.2704
  11333130.55149   8825482.90245  22400971.2264   22400969.7654
     -3399.6284
  -1805589.99647  -1397235.06242  24125540.6714   24125539.3434
      -713.7444
  -6624173.13348  -5150752.05543  23477907.0934   23477905.9094
      1970.0394
  -1008506.26249   -785479.34446  21513620.5154   21513618.7184
      -538.9054
 04  9  7 22 38  0.0030000  0  7G 3G19G 8G13G10G28G27
   5758292.70347   4487577.94142  24428932.0854   24428932.3314
     -2814.7914
  -5465018.71948  -4251786.50844  23265370.0694   23265367.5074
      -356.4364
  -8749042.61349  -6859721.55146  21672979.1084   21672977.5114
       691.0524
  11384225.55149   8865297.18445  22410694.3824   22410692.9954
     -3406.3334
  -1794737.41048  -1388778.50442  24127605.8584   24127604.4764
      -723.5064
  -6653654.56248  -5173724.56243  23472297.0074   23472295.5504
      1965.4294
  -1000364.64149   -779135.21946  21515169.4374   21515167.8314
      -542.7754
 04  9  7 22 38 15.0030000  0  7G 3G19G 8G13G10G28G27
   5800634.37947   4520571.44942  24436990.1164   24436990.3704
     -2822.7784
  -5459531.93047  -4247511.07044  23266415.1014   23266411.3154
      -365.7864
  -8759347.47349  -6867751.30546  21671017.9684   21671016.5424
       686.9914
  11435418.46949   8905187.73445  22420435.8904   22420434.7224
     -3412.8614
  -1783740.89147  -1380209.77342  24129698.2104   24129697.0424
      -733.1014
  -6683069.18448  -5196645.00843  23466699.9994   23466698.2294
      1960.9754
   -992167.31649   -772747.69146  21516729.3434   21516727.6594
      -546.4884
 04  9  7 22 38 30.0030000  0  7G 3G19G 8G13G10G28G27
   5843096.35947   4553658.68442  24445070.4054   24445070.3154
     -2830.7994
  -5453903.98047  -4243125.65244  23267485.6404   23267482.2224
      -375.1974
  -8769590.43449  -6875732.82446  21669069.0774   21669067.6124
       682.8644
  11486709.88748   8945155.06345  22430196.4134   22430194.7334
     -3419.4284
  -1772599.64148  -1371528.29342  24131818.2494   24131817.4684
      -742.7504
  -6712415.96548  -5219512.59444  23461115.0774   23461113.7574
      1956.4524
   -983913.26249   -766315.96546  21518300.2024   21518298.3274
      -550.2704
 04  9  7 22 38 45.0030000  0  7G 3G19G 8G13G10G28G27
   5885679.71147   4586840.51242  24453173.0544   24453173.1244
     -2838.8904
  -5448133.44147  -4238629.11344  23268583.9294   23268580.6204
      -384.7034
  -8779769.85549  -6883664.83246  21667131.7334   21667130.1244
       678.6284
  11538100.96149   8985200.02345  22439975.9914   22439974.5624
     -3426.0724
  -1761312.43748  -1362733.09042  24133966.8124   24133965.5694
      -752.4804
  -6741693.56248  -5242326.26644  23455543.9054   23455542.3084
      1951.8404
   -975601.20349   -759839.03146  21519882.1244   21519880.1044
      -554.1374
 04  9  7 22 39  0.0030000  0  7G 3G19G 8G13G10G28G27
   5928385.93447   4620118.09842  24461300.2414   24461299.6444
     -2847.0824
  -5442218.44947  -4234020.01244  23269709.4054   23269706.0814
      -394.3334
  -8789884.17249  -6891546.10946  21665207.4214   21665205.4994
       674.2884
  11589593.23449   9025323.85545  22449774.4684   22449773.5624
     -3432.8184
  -1749877.59048  -1353822.83242  24136142.3584   24136141.6404
      -762.3234
  -6770900.11348  -5265084.57044  23449985.4134   23449984.2224
      1947.1034
   -967229.29349   -753315.46147  21521474.8904   21521473.2334
      -558.1274
 04  9  7 22 39 15.0030000  0  7G 3G19G 8G13G10G28G27
   5971211.59847   4653488.73442  24469449.6944   24469449.4294
     -2855.0444
  -5436162.34847  -4229300.93744  23270861.4914   23270858.7494
      -403.7404
  -8799936.85249  -6899379.35946  21663294.5304   21663292.7064
       670.1794
  11641183.25449   9065523.84045  22459591.8664   22459590.8124
     -3439.3354
  -1738298.53947  -1344800.19142  24138345.7104   24138345.0194
      -771.9374
  -6800038.80948  -5287790.02044  23444440.5934   23444439.5384
      1942.5804
   -958800.88749   -746747.86746  21523078.7334   21523077.2184
      -561.8944
 04  9  7 22 39 30.0030000  0  7G 3G19G 8G13G10G28G27
   6014160.92247   4686955.72742  24477622.6944   24477622.9134
     -2863.2884
  -5429960.42648  -4224468.26644  23272041.8904   23272038.6634
      -413.4614
  -8809922.99649  -6907160.77046  21661394.0384   21661391.9564
       665.7434
  11692875.23448   9105803.27345  22469428.9834   22469427.4994
     -3446.1324
  -1726570.81248  -1335661.72342  24140577.7964   24140576.9994
      -781.8484
  -6829104.98848  -5310438.94544  23438909.7264   23438908.1474
      1937.7454
   -950311.25449   -740132.57046  21524694.6944   21524692.6404
      -565.9764
 04  9  7 22 39 45.0030000  0  7G 3G19G 8G13G10G28G27
   6057230.87147   4720516.71542  24485818.3124   24485818.6164
     -2871.3304
  -5423615.34848  -4219524.03944  23273249.3904   23273246.2654
      -423.0054
  -8819845.32849  -6914892.45346  21659505.9444   21659504.2494
       661.4894
  11744666.23849   9146159.88745  22479284.2494   22479282.5584
     -3452.7344
  -1714697.23848  -1326409.57842  24142837.2964   24142836.1794
      -791.5724
  -6858101.21948  -5333033.38344  23433391.8744   23433389.7654
      1933.0824
   -941763.25049   -733471.78946  21526321.1244   21526319.2614
      -569.8674
 04  9  7 22 40  0.0030000  0  7G 3G19G 8G13G10G28G27
   6100419.78547   4754170.41842  24494037.5304   24494037.7724
     -2879.2614
  -5417128.43448  -4214469.28944  23274483.9994   23274480.4444
      -432.4614
  -8829705.03149  -6922575.33647  21657629.8354   21657628.1674
       657.3144
  11796554.68848   9186592.41445  22489158.1324   22489156.8084
     -3459.2304
  -1702679.12947  -1317044.82042  24145123.4444   24145123.5114
      -801.2074
  -6887028.77348  -5355574.30144  23427886.6404   23427886.0384
      1928.5044
   -933158.06649   -726766.44546  21527958.7414   21527956.8474
      -573.6794
 04  9  7 22 40 15.0030000  0  7G 3G19G 8G13G10G28G27
   6143729.21547   4787918.00042  24502279.0854   24502279.0734
     -2887.2954
  -5410497.74248  -4209302.50044  23275745.7654   23275742.4014
      -442.0464
  -8839500.21549  -6930207.94147  21655765.6474   21655763.9404
       653.0124
  11848542.29748   9227102.21145  22499051.1874   22499050.1124
     -3465.8414
  -1690514.71547  -1307566.06242  24147439.1714   24147437.8474
      -810.9614
  -6915885.73848  -5378060.20744  23422395.9914   23422394.6244
      1923.7984
   -924493.62549   -720014.93046  21529607.4214   21529605.5894
      -577.6294
 04  9  7 22 40 30.0030000  0  7G 3G19G 8G13G10G28G27
   6187158.58647   4821759.06642  24510543.7724   24510543.4644
     -2895.2914
  -5403723.59448  -4204023.93444  23277034.3194   23277031.5624
      -451.6104
  -8849231.35249  -6937790.62946  21653913.7024   21653912.3354
       648.7424
  11900628.30549   9267688.69145  22508962.5624   22508961.2964
     -3472.4014
  -1678204.50447  -1297973.68742  24149781.0304   24149780.1834
      -820.6814
  -6944672.40648  -5400491.33644  23416917.9524   23416916.1874
      1919.1114
   -915770.48049   -713217.67647  21531267.3124   21531265.4014
      -581.5434
 04  9  7 22 40 45.0030000  0  7G 3G19G 8G13G10G28G27
   6230706.99247   4855692.88742  24518829.9524   24518830.4914
     -2903.2274
  -5396806.60548  -4198634.05544  23278350.3904   23278347.6244
      -461.1334
  -8858898.92649  -6945323.80947  21652074.1554   21652072.7064
       644.5054
  11952811.94949   9308351.23845  22518892.7414   22518891.3744
     -3478.9104
  -1665749.19147  -1288268.26242  24152151.2884   24152150.4404
      -830.3544
  -6973389.19548  -5422868.02043  23411453.1794   23411451.7454
      1914.4534
   -906989.07449   -706375.02347  21532938.3664   21532936.9794
      -585.4274
 04  9  7 22 41  0.0030000  0  7G 3G19G 8G13G10G28G27
   6274374.75047   4889719.70342  24527140.4134   24527140.1444
     -2911.1844
  -5389745.97348  -4193132.25044  23279694.5304   23279690.8194
      -470.7094
  -8868502.17649  -6952806.85246  21650246.7724   21650244.9684
       640.2174
  12005093.53149   9349090.10545  22528841.8904   22528840.1044
     -3485.4394
  -1653148.31247  -1278449.40242  24154548.8744   24154548.2144
      -840.0594
  -7002035.46548  -5445189.73844  23406001.9764   23406000.7024
      1909.7514
   -898148.80149   -699486.49246  21534620.5624   21534619.0934
      -589.3524
 04  9  7 22 41 15.0030000  0  7G 3G19G 8G13G10G28G27
   6318161.74647   4923839.41442  24535472.1794   24535472.7374
     -2919.1334
  -5382541.50448  -4187518.37544  23281065.2804   23281061.6834
      -480.2984
  -8878040.94549  -6960239.64146  21648431.6404   21648430.1084
       635.9184
  12057473.08249   9389905.32045  22538809.3124   22538808.0384
     -3491.9704
  -1640401.77747  -1268517.03942  24156974.9294   24156973.9214
      -849.7694
  -7030610.97348  -5467456.34044  23400563.9054   23400563.1044
      1905.0344
   -889249.49649   -692551.96947  21536314.0224   21536312.8584
      -593.2874
 04  9  7 22 41 30.0030000  0  7G 3G19G 8G13G10G28G27
   6362067.43047   4958051.61742  24543827.2414   24543827.5654
     -2927.0464
  -5375193.34448  -4181792.53144  23282463.6324   23282460.0774
      -489.8774
  -8887515.31649  -6967622.26646  21646628.4374   21646627.0384
       631.6254
  12109950.23849   9430796.58244  22548795.5854   22548793.8194
     -3498.4774
  -1627509.82047  -1258471.35542  24159427.8194   24159427.5264
      -859.4644
  -7059115.72748  -5489667.80144  23395139.7494   23395138.6674
      1900.3174
   -880291.27049   -685571.53547  21538018.8584   21538017.3004
      -597.2154
 04  9  7 22 41 45.0030000  0  7G 3G19G 8G13G10G28G27
   6406090.95347   4992355.65242  24552205.4134   24552205.1984
     -2934.9024
  -5367702.21548  -4175955.27044  23283888.8824   23283885.5774
      -499.4094
  -8896926.04749  -6974955.30146  21644837.5934   21644836.5154
       627.3824
  12162524.00848   9471763.13345  22558799.5464   22558798.1364
     -3504.9184
  -1614473.31247  -1248313.03942  24161908.6794   24161908.0074
      -869.1014
  -7087550.37548  -5511824.63344  23389728.6554   23389727.3474
      1895.6434
   -871274.77049   -678545.68746  21539734.9604   21539732.9254
      -601.1004
 04  9  7 22 42  0.0030000  0  7G 3G19G 8G13G10G28G27
   6450232.65647   5026751.78542  24560605.3974   24560604.4444
     -2942.7804
  -5360067.19948  -4170005.89544  23285341.4134   23285338.9914
      -509.0014
  -8906272.21549  -6982238.02746  21643059.1014   21643057.5194
       623.0784
  12215195.05549   9512805.47745  22568823.0544   22568821.2964
     -3511.4034
  -1601291.48047  -1238041.50442  24164417.6014   24164416.2724
      -878.7894
  -7115913.99648  -5533926.11344  23384331.3044   23384330.1674
      1890.9084
   -862199.14549   -671473.77346  21541461.7654   21541459.6754
      -605.0424
 04  9  7 22 42 15.0030000  0  7G 3G19G 8G13G10G28G27
   6494492.32047   5061239.82442  24569027.4054   24569026.6594
     -2950.6444
  -5352288.28948  -4163944.39545  23286822.6014   23286819.5154
      -518.5944
  -8915553.88749  -6989470.49246  21641293.0224   21641291.3234
       618.7784
  12267963.01649   9553923.33645  22578864.1874   22578863.2024
     -3517.8644
  -1587964.52347  -1227656.86342  24166953.0304   24166952.6634
      -888.4644
  -7144206.58648  -5555972.25844  23378947.0694   23378946.0384
      1886.1734
   -853064.34449   -664355.74246  21543199.8434   21543197.7764
      -608.9874
 04  9  7 22 42 30.0030000  0  7G 3G19G 8G13G10G28G27
   6538872.24647   5095821.56342  24577472.8434   24577471.8944
     -2958.6624
  -5344362.89148  -4157768.75844  23288330.8194   23288327.1514
      -528.3604
  -8924768.32449  -6996650.56646  21639539.3354   21639537.7064
       614.2964
  12320830.13349   9595118.46544  22588924.6474   22588923.2844
     -3524.4744
  -1574490.02347  -1217157.26642  24169517.3514   24169516.3274
      -898.3004
  -7172425.48048  -5577960.97344  23373577.4524   23373576.2224
      1881.2604
   -843867.79749   -657189.60946  21544949.7024   21544948.2144
      -613.1034
 04  9  7 22 42 45.0030000  0  7G 3G19G 8G13G10G28G27
   6583367.69547   5130493.33242  24585939.9054   24585938.9134
     -2966.3634
  -5336295.39848  -4151482.38744  23289866.0224   23289862.4334
      -537.8334
  -8933919.94949  -7003781.69546  21637797.9374   21637796.2184
       610.1084
  12373791.66449   9636387.16444  22599002.7414   22599001.3824
     -3530.7694
  -1560872.43747  -1206546.18042  24172109.3974   24172107.7294
      -907.8394
  -7200575.12548  -5599895.73044  23368220.7654   23368219.6554
      1876.6434
   -834613.95749   -649978.82847  21546710.6944   21546709.0504
      -616.9234
 04  9  7 22 43  0.0030000  0  7G 3G19G 8G13G10G28G27
   6627981.40247   5165257.25442  24594429.5544   24594428.8624
     -2974.2474
  -5328082.78948  -4145082.93444  23291428.3744   23291425.0114
      -547.5074
  -8943005.52049  -7010861.35546  21636069.2884   21636067.4054
       605.7054
  12426850.54748   9677731.72744  22609099.7884   22609098.1984
     -3537.2594
  -1547108.84847  -1195821.31242  24174728.1634   24174727.1794
      -917.5734
  -7228652.23448  -5621773.95744  23362878.0224   23362876.4524
      1871.8074
   -825299.63349   -642720.91046  21548483.3824   21548481.5974
      -620.9554
 04  9  7 22 43 15.0030000  0  7G 3G19G 8G13G10G28G27
   6672711.59047   5200111.94542  24602941.0464   24602940.7184
     -2982.0124
  -5319726.40248  -4138571.45344  23293018.2264   23293015.2884
      -557.0924
  -8952026.50449  -7017890.69546  21634352.4054   21634350.5894
       601.3994
  12480005.03149   9719150.78544  22619214.7494   22619213.4994
     -3543.6324
  -1533200.95747  -1184984.00442  24177374.8194   24177373.3824
      -927.1934
  -7256658.21948  -5643596.77344  23357548.5224   23357547.3274
      1867.0664
   -815926.35949   -635417.06246  21550266.8824   21550264.7654
      -624.8854
 04  9  7 22 43 30.0030000  0  7G 3G19G 8G13G10G28G27
   6717561.70347   5235060.07042  24611475.5934   24611475.2694
     -2990.0084
  -5311222.40247  -4131944.95344  23294636.6714   23294633.8234
      -566.9334
  -8960978.82049  -7024866.52746  21632649.0074   21632647.1874
       596.8214
  12533258.78148   9760647.18445  22629348.8824   22629347.4524
     -3550.2504
  -1519144.92647  -1174031.25442  24180048.9294   24180048.5464
      -937.0694
  -7284589.23048  -5665361.15244  23352233.9764   23352231.8124
      1862.0674
   -806490.18748   -628064.20346  21552062.6714   21552060.6244
      -629.0784
 04  9  7 22 43 45.0030000  0  7G 3G19G 8G13G10G28G27
   6762528.62947   5270099.24242  24620032.9604   24620032.2884
     -2997.7954
  -5302573.52047  -4125205.56244  23296282.6324   23296279.8474
      -576.5924
  -8969865.69149  -7031791.35246  21630957.7574   21630956.1944
       592.4584
  12586608.71949   9802218.54745  22639500.8194   22639500.0114
     -3556.6624
  -1504943.86747  -1162965.50442  24182751.9134   24182750.8544
      -946.7374
  -7312447.89848  -5687069.17644  23346932.1324   23346930.7534
      1857.2454
   -796993.94149   -620664.53146  21553869.7494   21553867.9094
      -633.0834
 04  9  7 22 44  0.0030000  0  7G 3G19G 8G13G10G28G27
   6807613.36347   5305230.18842  24628612.3664   24628611.6474
     -3005.6494
  -5293778.50848  -4118352.30145  23297955.9914   23297952.8904
      -586.3344
  -8978685.50849  -7038663.93046  21629279.3664   21629278.0264
       587.9884
  12640055.77048   9843865.58645  22649671.3744   22649670.0774
     -3563.1374
  -1490596.38747  -1151785.67643  24185482.5854   24185481.5424
      -956.4994
  -7340233.02348  -5708719.88344  23341644.5464   23341643.7104
      1852.3424
   -787436.24649   -613216.97746  21555688.6404   21555686.4834
      -637.1804
 04  9  7 22 44 15.0030000  0  7G 3G19G 8G13G10G28G27
   6852812.62147   5340450.37542  24637213.4374   24637212.7724
     -3013.2844
  -5284840.45346  -4111387.57844  23299656.6474   23299653.4374
      -595.8704
  -8987441.21149  -7045486.55546  21627613.2964   21627611.8704
       583.7144
  12693596.64848   9885585.72744  22659859.9834   22659858.5154
     -3569.3924
  -1476105.76647  -1140494.29742  24188239.5934   24188238.7064
      -966.0414
  -7367947.47348  -5730315.52044  23336370.8664   23336369.3394
      1847.6304
   -777820.13748   -605723.90246  21557518.5694   21557516.8784
      -641.0744
 04  9  7 22 44 30.0030000  0  7G 3G19G 8G13G10G28G27
   6898127.23447   5375760.44542  24645836.4294   24645835.9684
     -3020.9744
  -5275758.00847  -4104310.32844  23301385.1324   23301382.2764
      -605.4964
  -8996131.71549  -7052258.36346  21625959.5154   21625957.9254
       579.3674
  12747232.37548   9927379.78544  22670066.2414   22670065.2184
     -3575.7154
  -1461470.93047  -1129090.52342  24191024.5694   24191023.7104
      -975.6564
  -7395589.98848  -5751855.10944  23331110.6164   23331108.8664
      1842.8344
   -768144.42249   -598184.39146  21559359.6474   21559357.8584
      -645.0484
 04  9  7 22 44 45.0030000  0  7G 3G19G 8G13G10G28G27
   6943556.82447   5411160.09442  24654481.6164   24654480.9914
     -3028.6394
  -5266531.25448  -4097120.65244  23303141.0694   23303138.0034
      -615.1174
  -9004756.91449  -7058979.29746  21624318.1244   21624316.4294
       575.0134
  12800962.64848   9969247.50845  22680291.0384   22680289.5694
     -3582.0184
  -1446692.04747  -1117574.53142  24193837.3354   24193836.2534
      -985.2594
  -7423160.50848  -5773338.59844  23325863.8584   23325862.4604
      1838.0354
   -758409.09449   -590598.41846  21561212.2884   21561210.6514
      -649.0224
 04  9  7 22 45  0.0030000  0  7G 3G19G 8G13G10G28G27
   6989100.45747   5446648.63342  24663148.2804   24663148.1204
     -3036.2424
  -5257161.00848  -4089819.15244  23304924.3974   23304920.6444
      -624.6834
  -9013317.65249  -7065649.99646  21622689.2184   21622687.2294
       570.7164
  12854786.39848  10011188.07445  22690533.3274   22690531.9874
     -3588.2504
  -1431770.04747  -1105947.00442  24196676.2414   24196675.7844
      -994.8004
  -7450659.81648  -5794766.59044  23320631.5224   23320629.3544
      1833.2874
   -748614.89149   -582966.58246  21563076.1084   21563074.4254
      -652.9474
 04  9  7 22 45 15.0030000  0  7G 3G19G 8G13G10G28G27
   7034757.04347   5482225.18442  24671836.5224   24671835.6874
     -3043.7724
  -5247647.68748  -4082406.17244  23306734.4834   23306731.1044
      -634.2214
  -9021814.43449  -7072270.85547  21621072.1084   21621070.6514
       566.4524
  12908702.78148  10053200.81344  22700793.3514   22700792.1944
     -3594.4264
  -1416705.60947  -1094208.48442  24199543.5154   24199542.2224
     -1004.2964
  -7478088.27049  -5816139.37544  23315411.5224   23315409.9444
      1828.5644
   -738762.28549   -575289.21946  21564950.9834   21564949.6124
      -656.8404
 04  9  7 22 45 30.0030000  0  7G 3G19G 8G13G10G28G27
   7080527.30947   5517890.30942  24680546.2024   24680545.5974
     -3051.3514
  -5237990.43748  -4074881.03544  23308571.9834   23308569.0384
      -643.8174
  -9030246.25449  -7078841.09847  21619467.4994   21619465.9294
       562.1214
  12962712.44548  10095286.24644  22711071.2184   22711069.8974
     -3600.6444
  -1401498.10547  -1082358.49642  24202436.6874   24202435.9724
     -1013.8344
  -7505445.05948  -5837456.31244  23310205.6084   23310204.4524
      1823.7864
   -728850.43449   -567565.70347  21566837.0624   21566835.3824
      -660.7904
 04  9  7 22 45 45.0030000  0  7G 3G19G 8G13G10G28G27
   7126408.57447   5553641.93842  24689276.7024   24689276.6554
     -3058.7514
  -5228191.73848  -4067245.67244  23310437.0464   23310433.7144
      -653.2474
  -9038615.44149  -7085362.53947  21617875.1944   21617873.6164
       557.9464
  13016812.78148  10137442.32044  22721366.0224   22721364.2104
     -3606.6894
  -1386149.94547  -1070398.89542  24205357.1014   24205356.6594
     -1023.2114
  -7532732.48448  -5858719.21544  23305012.9524   23305011.7454
      1819.1624
   -718881.70349   -559797.85947  21568734.1244   21568732.2294
      -664.5824
 04  9  7 22 46  0.0030000  0  7G 3G19G 8G13G10G28G27
   7172405.13347   5589483.39542  24698030.2184   24698029.4484
     -3066.4374
  -5218246.83648  -4059496.37944  23312329.3274   23312326.2334
      -662.9934
  -9046917.33249  -7091831.53947  21616295.4604   21616293.9764
       553.4594
  13071008.17248  10179672.48044  22731678.8194   22731678.0114
     -3613.0264
  -1370656.55547  -1058326.14142  24208305.5694   24208305.3944
     -1032.8934
  -7559945.67248  -5879924.25844  23299834.3904   23299833.0344
      1814.2134
   -708851.25849   -551981.93446  21570642.6014   21570640.8584
      -668.6964
 04  9  7 22 46 15.0030000  0  7G 3G19G 8G13G10G28G27
   7218515.53547   5625413.55942  24706803.9374   24706804.4404
     -3074.0274
  -5208156.81248  -4051634.01644  23314249.2334   23314246.3744
      -672.6684
  -9055152.85949  -7098248.83647  21614728.5224   21614726.8514
       549.0354
  13125297.19148  10221975.59044  22742009.5854   22742008.3474
     -3619.2684
  -1355019.39147  -1046141.32842  24211281.2804   24211281.2534
     -1042.4784
  -7587085.66048  -5901072.26244  23294669.9684   23294668.0264
      1809.3334
   -698760.39149   -544118.91846  21572562.8124   21572561.1904
      -672.7244
 04  9  7 22 46 30.0030000  0  7G 3G19G 8G13G10G28G27
   7264738.85947   5661431.72342  24715599.9444   24715600.5694
     -3081.5554
  -5197922.36748  -4043659.12544  23316197.1324   23316193.6044
      -682.2964
  -9063322.73049  -7104614.96147  21613173.5694   21613171.9564
       544.6584
  13179678.86348  10264350.89144  22752358.3824   22752356.8194
     -3625.4454
  -1339239.21547  -1033845.09042  24214284.3514   24214283.9334
     -1052.0124
  -7614153.27048  -5922163.85944  23289519.0544   23289517.8004
      1804.5074
   -688609.58249   -536209.19546  21574494.5384   21574492.8744
      -676.7214
 04  9  7 22 46 45.0030000  0  7G 3G19G 8G13G10G28G27
   7311073.22747   5697536.40242  24724417.5694   24724417.5774
     -3088.9584
  -5187544.99248  -4035572.86744  23318171.6474   23318168.2104
      -691.8254
  -9071428.38749  -7110931.05147  21611630.9604   21611629.3274
       540.3774
  13234151.49648  10306797.07844  22762723.9834   22762722.6244
     -3631.5094
  -1323317.62947  -1021438.67243  24217314.4684   24217313.6324
     -1061.4394
  -7641149.82848  -5943200.10944  23284381.8124   23284380.1554
      1799.7714
   -678400.40649   -528253.99246  21576437.5624   21576435.5154
      -680.6124
 04  9  7 22 47  0.0030000  0  7G 3G19G 8G13G10G28G27
   7357519.50047   5733728.28942  24733255.6084   24733255.6014
     -3096.4184
  -5177023.40248  -4027374.21144  23320173.4054   23320170.2924
      -701.4394
  -9079468.65649  -7117196.19146  21610101.0074   21610099.4374
       536.0184
  13288716.08648  10349314.92244  22773107.0624   22773106.1444
     -3637.6394
  -1307253.52047  -1008921.19942  24220371.0384   24220370.1244
     -1070.9414
  -7668074.02748  -5964179.97344  23279258.2264   23279256.6754
      1794.9474
   -668131.55149   -520252.28546  21578391.2494   21578389.5304
      -684.5904
 04  9  7 22 47 15.0030000  0  7G 3G19G 8G13G10G28G27
   7404079.27347   5770008.61742  24742115.3434   24742116.0074
     -3103.9854
  -5166355.67248  -4019061.68444  23322203.7884   23322200.4794
      -711.1824
  -9087441.32449  -7123408.64846  21608583.8824   21608582.5074
       531.5114
  13343374.22748  10391905.65644  22783508.5224   22783507.2574
     -3643.8764
  -1291045.13747   -996291.30143  24223455.4444   24223454.7064
     -1080.5594
  -7694923.80949  -5985101.84444  23274149.2104   23274147.3354
      1789.9854
   -657800.92249   -512202.44946  21580357.0154   21580355.4794
      -688.7094
 04  9  7 22 47 30.0030000  0  7G 3G19G 8G13G10G28G27
   7450749.55947   5806375.07442  24750996.9604   24750997.1044
     -3111.3524
  -5155544.52348  -4010637.40644  23324261.0544   23324258.0114
      -720.7434
  -9095349.19149  -7129570.60946  21607078.9604   21607077.5074
       527.1914
  13398122.94948  10434566.97744  22793926.5624   22793925.5384
     -3649.9154
  -1274695.35947   -983551.22742  24226566.7494   24226565.8434
     -1089.9854
  -7721701.84448  -6005967.81244  23269052.9994   23269051.6904
      1785.2024
   -647411.35949   -504106.69146  21582334.5544   21582332.6714
      -692.6374
 04  9  7 22 47 45.0030000  0  7G 3G19G 8G13G10G28G27
   7497532.80146   5842829.52342  24759899.3904   24759899.4444
     -3118.8834
  -5144587.21148  -4002099.22344  23326346.4834   23326343.3004
      -730.4874
  -9103189.53949  -7135679.96547  21605586.9294   21605585.5654
       522.6904
  13452964.68848  10477300.77744  22804362.6164   22804361.9524
     -3656.1164
  -1258201.58647   -970698.93042  24229705.4054   24229704.4524
     -1099.5854
  -7748405.40248  -6026775.75044  23263971.8194   23263969.9954
      1780.2374
   -636960.04749   -495962.81246  21584323.2024   21584321.0544
      -696.7544
 04  9  7 22 48  0.0030000  0  7G 3G19G 8G13G10G28G27
   7544432.66847   5879374.85242  24768824.6404   24768824.6794
     -3126.6584
  -5133479.81647  -3993444.09844  23328460.2024   23328456.5624
      -740.4934
  -9110958.14549  -7141733.42246  21604108.5384   21604106.9644
       517.9074
  13507903.27348  10520110.04744  22814817.3194   22814816.4014
     -3662.5724
  -1241559.98047   -957731.44942  24232871.8664   24232871.4404
     -1109.4404
  -7775030.37148  -6047522.44144  23258904.8904   23258903.3544
      1774.9984
   -626442.94548   -487767.66446  21586324.4604   21586322.8314
      -701.1404
 04  9  7 22 48 15.0030000  0  7G 3G19G 8G13G10G28G27
   7591444.84447   5916007.70742  24777770.7024   24777770.5114
     -3134.1454
  -5122226.23847  -3984675.06644  23330601.2884   23330597.6324
      -750.2394
  -9118658.98849  -7147734.07446  21602643.2574   21602641.7064
       513.3904
  13562934.39548  10562991.41444  22825289.6324   22825288.5114
     -3668.7414
  -1224774.62147   -944651.96142  24236066.6084   24236065.7144
     -1119.0244
  -7801580.64548  -6068210.93044  23253852.8124   23253851.1904
      1770.0184
   -615863.98448   -479524.32046  21588337.3664   21588335.5894
      -705.2644
 04  9  7 22 48 30.0030000  0  7G 3G19G 8G13G10G28G27
   7638567.41047   5952726.57842  24786737.3974   24786736.8394
     -3141.5044
  -5110828.25048  -3975793.51644  23332769.9684   23332766.6284
      -759.8664
  -9126293.82449  -7153683.29746  21601190.5854   21601189.0154
       508.9894
  13618056.07448  10605943.34844  22835778.7654   22835777.6204
     -3674.7794
  -1207847.47347   -931461.98442  24239287.3434   24239287.0074
     -1128.4774
  -7828057.99249  -6088842.59844  23248814.2264   23248812.5934
      1765.1574
   -605224.86348   -471234.09846  21590362.2884   21590360.1754
      -709.2754
 04  9  7 22 48 45.0030000  0  7G 3G19G 8G13G10G28G27
   7685803.44947   5989533.87142  24795726.0154   24795725.8234
     -3149.0694
  -5099282.23847  -3966796.61744  23334967.4684   23334964.3624
      -769.7344
  -9133858.87949  -7159578.14146  21599750.8584   21599749.5854
       504.3374
  13673271.71548  10648968.49244  22846286.4834   22846285.1014
     -3681.0434
  -1190775.12947   -918158.85942  24242536.0934   24242535.7574
     -1138.1564
  -7854458.65248  -6109414.51244  23243789.9294   23243788.5344
      1760.0444
   -594521.92248   -462894.14846  21592398.7964   21592396.9724
      -713.5294
 04  9  7 22 49  0.0030000  0  7G 3G19G 8G13G10G28G27
   7733152.06647   6026428.89142  24804736.3824   24804736.0304
     -3156.5744
  -5087588.81648  -3957684.85944  23337192.6164   23337189.7374
      -779.5614
  -9141355.04349  -7165419.30147  21598324.4994   21598323.3004
       499.7444
  13728580.39548  10692066.14844  22856810.8744   22856809.8474
     -3687.2454
  -1173558.27747   -904743.14143  24245812.3584   24245812.2264
     -1147.7904
  -7880783.09048  -6129927.02344  23238780.5774   23238779.2064
      1754.9634
   -583755.77349   -454504.94146  21594447.7494   21594446.1204
      -717.7434
 04  9  7 22 49 15.0030000  0  7G 3G19G 8G13G10G28G27
   7780614.81647   6063412.83242  24813768.5304   24813767.7494
     -3164.1834
  -5075746.10948  -3948456.76244  23339446.0854   23339442.9174
      -789.5144
  -9148779.95349  -7171204.93747  21596911.2574   21596910.3474
       494.9944
  13783983.63348  10735237.47344  22867353.9444   22867352.9604
     -3693.5494
  -1156195.14547   -891213.44542  24249116.1634   24249115.9724
     -1157.5424
  -7907029.44148  -6150378.69544  23233786.1404   23233784.6984
      1749.7574
   -572924.50449   -446065.00046  21596508.8664   21596506.9834
      -722.0854
 04  9  7 22 49 30.0030000  0  7G 3G19G 8G13G10G28G27
   7828188.12147   6100482.91442  24822821.1084   24822820.8664
     -3171.5544
  -5063757.39148  -3939114.89144  23341727.5384   23341724.2494
      -799.2484
  -9156137.07049  -7176937.75046  21595511.4214   21595510.2574
       490.4744
  13839478.03148  10778479.82444  22877914.4374   22877913.2184
     -3699.6274
  -1138689.20347   -877572.45343  24252447.5464   24252447.4524
     -1167.0634
  -7933200.90249  -6170772.00044  23228805.9134   23228804.6284
      1744.7644
   -562031.19949   -437576.71146  21598581.5224   21598579.8514
      -726.2204
 04  9  7 22 49 45.0030000  0  7G 3G19G 8G13G10G28G27
   7875874.16447   6137640.85242  24831895.8514   24831895.6084
     -3179.0704
  -5051620.32448  -3929657.42244  23344037.3514   23344033.7574
      -809.1384
  -9163423.95749  -7182615.83646  21594124.6164   21594123.4294
       485.7924
  13895065.66048  10821794.84044  22888492.1244   22888491.4374
     -3705.8424
  -1121038.29347   -863818.52043  24255806.9764   24255805.8704
     -1176.7274
  -7959294.97748  -6191105.00444  23223840.4684   23223838.8824
      1739.6054
   -551073.69549   -429038.39846  21600666.6874   21600665.0544
      -730.5004
 04  9  7 22 50  0.0030000  0  7G 3G19G 8G13G10G28G27
   7923670.15247   6174884.47342  24840990.2804   24840990.8514
     -3186.3994
  -5039337.17248  -3920086.12144  23346374.9374   23346370.8784
      -818.8774
  -9170642.70349  -7188240.82447  21592750.9914   21592749.9014
       481.2504
  13950743.91048  10865180.45744  22899087.7264   22899086.6674
     -3711.8834
  -1103244.87548   -849953.52043  24259193.0934   24259191.8004
     -1186.2284
  -7985313.90648  -6211379.45344  23218888.9994   23218887.9094
      1734.5954
   -540054.14849   -420451.73846  21602764.0074   21602761.8474
      -734.6364
 04  9  7 22 50 15.0030000  0  7G 3G19G 8G13G10G28G27
   7971575.83646   6212213.56342  24850106.8974   24850106.6554
     -3193.7124
  -5026907.81648  -3910400.90644  23348739.7334   23348736.6244
      -828.6244
  -9177793.24649  -7193812.66846  21591390.0544   21591388.5624
       476.7034
  14006512.60548  10908636.56344  22909699.9994   22909698.8084
     -3717.9134
  -1085308.93447   -835977.47743  24262605.6634   24262604.9874
     -1195.7294
  -8011257.58648  -6231595.28144  23213952.4914   23213950.4564
      1729.5794
   -528972.36749   -411816.59046  21604872.7574   21604870.6904
      -738.7854
 04  9  7 22 50 30.0030000  0  7G 3G19G 8G13G10G28G27
   8019590.79346   6249627.79742  24859243.8974   24859244.2374
     -3200.9974
  -5014332.55548  -3900601.99645  23351132.7804   23351129.9764
      -838.3514
  -9184875.81649  -7199331.55146  21590042.6794   21590040.7184
       472.1714
  14062371.27748  10952162.77344  22920329.3824   22920328.1874
     -3723.9114
  -1067230.94547   -821890.75043  24266046.1244   24266045.5154
     -1205.1994
  -8037126.28948  -6251752.67644  23209029.7104   23209027.8704
      1724.5804
   -517828.48849   -403133.05146  21606993.2264   21606990.9374
      -742.9254
 04  9  7 22 50 45.0030000  0  7G 3G19G 8G13G10G28G27
   8067714.36347   6287126.66842  24868401.6084   24868401.6634
     -3208.2384
  -5001611.78148  -3890689.70344  23353554.1714   23353550.4764
      -848.0524
  -9191890.59849  -7204797.60946  21588707.8124   21588706.1364
       467.6524
  14118319.28548  10995758.59444  22930976.0774   22930974.5694
     -3729.8674
  -1049011.37148   -807693.69143  24269513.4374   24269512.5424
     -1214.6384
  -8062920.28948  -6271851.86744  23204121.4524   23204119.2924
      1719.6004
   -506623.00049   -394401.50047  21609125.5464   21609123.7494
      -747.0334
 04  9  7 22 51  0.0030000  0  7G 3G19G 8G13G10G28G27
   8115946.00447   6324709.75042  24877579.4834   24877580.0584
     -3215.4434
  -4988745.61348  -3880664.10945  23356001.9994   23355999.2574
      -857.7454
  -9198837.82849  -7210211.03146  21587385.7334   21587384.2374
       463.1494
  14174356.24248  11039423.72344  22941639.4764   22941638.1754
     -3735.7974
  -1030650.56247   -793386.58642  24273006.8194   24273006.6044
     -1224.0544
  -8088639.51648  -6291892.78144  23199227.0384   23199225.1084
      1714.6154
   -495355.88749   -385621.93046  21611269.5544   21611267.5034
      -751.1414
 04  9  7 22 51 15.0030000  0  7G 3G19G 8G13G10G28G27
   8164284.63347   6362376.20342  24886778.6634   24886778.1364
     -3222.5754
  -4975734.88348  -3870525.86344  23358477.7334   23358475.1124
      -867.3824
  -9205718.12149  -7215572.28947  21586076.3584   21586074.4484
       458.6864
  14230481.14148  11083157.39144  22952320.0694   22952318.3624
     -3741.6604
  -1012149.39847   -778970.11342  24276528.0074   24276526.7724
     -1233.4114
  -8114284.64149  -6311875.96144  23194346.8664   23194344.8434
      1709.6754
   -484027.81249   -376794.85946  21613425.3274   21613423.5264
      -755.2054
 04  9  7 22 51 30.0030000  0  7G 3G19G 8G13G10G28G27
   8212730.09047   6400125.91042  24895997.2264   24895996.9294
     -3229.6974
  -4962579.37548  -3860274.80144  23360981.0774   23360977.6634
      -877.0344
  -9212530.98449  -7220881.00847  21584779.7654   21584778.4214
       454.1914
  14286693.85948  11126959.48844  22963016.5224   22963015.2414
     -3747.5154
   -993507.93747   -764444.30942  24280074.8974   24280073.8904
     -1242.7644
  -8139855.45348  -6331801.23844  23189480.8904   23189479.4334
      1704.7214
   -472638.69549   -367920.22346  21615592.2804   21615590.6904
      -759.2744
 04  9  7 22 51 45.0030000  0  7G 3G19G 8G13G10G28G27
   8261282.43046   6437958.86342  24905236.8824   24905236.1284
     -3236.8234
  -4949278.71148  -3849910.65244  23363512.2804   23363508.1634
      -886.7114
  -9219276.23049  -7226137.03547  21583496.3664   21583494.7844
       449.6834
  14342994.52049  11170830.11744  22973730.6404   22973729.1444
     -3753.3774
   -974725.97747   -749809.02743  24283649.1404   24283648.7224
     -1252.1314
  -8165351.44148  -6351668.21544  23184629.2804   23184627.6284
      1699.7334
   -461188.06649   -358997.64546  21617771.6794   21617769.9094
      -763.3754
 04  9  7 22 52  0.0030000  0  7G 3G19G 8G13G10G28G27
   8309942.22747   6475875.59442  24914496.3434   24914495.7924
     -3243.9864
  -4935832.07448  -3839432.74244  23366071.2184   23366067.7804
      -896.4424
  -9225952.94549  -7231339.66847  21582225.9524   21582224.3514
       445.1144
  14399383.82848  11214769.80144  22984461.0854   22984460.0074
     -3759.2874
   -955802.72347   -735063.65243  24287250.5224   24287249.4294
     -1261.5504
  -8190771.85548  -6371476.29744  23179791.6474   23179790.1874
      1694.6944
   -449674.94149   -350026.37946  21619962.3904   21619960.7884
      -767.5424
 04  9  7 22 52 15.0030000  0  7G 3G19G 8G13G10G28G27
   8358706.50846   6513873.72342  24923775.6794   24923775.7184
     -3250.9524
  -4922242.14148  -3828843.18044  23368657.5934   23368654.0694
      -905.9964
  -9232563.93049  -7236491.08247  21580967.8354   21580966.4334
       440.7324
  14455858.60949  11258776.09844  22995207.9214   22995206.9254
     -3764.9854
   -936741.05947   -720210.42243  24290877.3974   24290876.4294
     -1270.7784
  -8216119.20748  -6391227.44944  23174968.1014   23174966.4834
      1689.8234
   -438101.93749   -341008.45746  21622164.6634   21622163.1044
      -771.5344
 04  9  7 22 52 30.0030000  0  7G 3G19G 8G13G10G28G27
   8407575.19946   6551953.21942  24933075.0694   24933075.1904
     -3257.9134
  -4908508.62948  -3818141.72344  23371270.6164   23371267.3864
      -915.5674
  -9239108.63749  -7241590.84847  21579722.3584   21579720.8044
       436.3144
  14512419.03548  11302849.12944  23005971.0774   23005969.2534
     -3770.6954
   -917540.82447   -705249.20343  24294531.4374   24294530.7294
     -1280.0164
  -8241393.18448  -6410921.43044  23170158.5384   23170156.7724
      1684.9324
   -426468.86749   -331943.72346  21624378.4834   21624376.8474
      -775.5384
 04  9  7 22 52 45.0030000  0  7G 3G19G 8G13G10G28G27
   8456547.57446   6590113.48442  24942393.6794   24942393.9764
     -3264.8254
  -4894631.94148  -3807328.71144  23373911.1404   23373908.4764
      -925.1124
  -9245587.12949  -7246639.02047  21578489.6634   21578488.0774
       431.8994
  14569064.37548  11346988.32844  23016749.7964   23016749.3314
     -3776.3564
   -898202.64847   -690180.51242  24298210.7334   24298210.6634
     -1289.2124
  -8266594.08648  -6430558.46544  23165362.9374   23165361.1984
      1680.0604
   -414775.93749   -322832.35546  21626603.2334   21626601.3514
      -779.5294
 04  9  7 22 53  0.0030000  0  7G 3G19G 8G13G10G28G27
   8505624.23846   6628355.02742  24951733.4914   24951733.6594
     -3271.7784
  -4880611.18448  -3796403.43044  23376578.9604   23376575.9094
      -934.7174
  -9251998.50849  -7251634.89546  21577269.6244   21577267.8624
       427.4254
  14625795.32849  11391194.24644  23027546.1634   23027544.8824
     -3782.0644
   -878725.68747   -675003.66442  24301917.9054   24301917.2764
     -1298.4644
  -8291720.87148  -6450137.74644  23160581.8664   23160579.9334
      1675.1194
   -403022.15249   -313673.56646  21628839.8664   21628838.1554
      -783.5864
 04  9  7 22 53 15.0030000  0  7G 3G19G 8G13G10G28G27
   8554806.91847   6666679.17242  24961092.8044   24961093.2574
     -3278.8454
  -4866444.37548  -3785364.35244  23379274.7724   23379271.6244
      -944.4544
  -9258340.93749  -7256577.03547  21576062.5694   21576060.6514
       422.8294
  14682613.50448  11435468.12544  23038357.6634   23038356.7414
     -3787.8784
   -859108.22747   -659717.32442  24305650.8124   24305650.3044
     -1307.8314
  -8316771.55548  -6469657.73044  23155814.7884   23155812.8864
      1670.0464
   -391205.51649   -304465.79746  21631088.5774   21631086.6444
      -787.7764
 04  9  7 22 53 30.0030000  0  7G 3G19G 8G13G10G28G27
   8604094.81646   6705085.30142  24970471.7804   24970472.3624
     -3285.8604
  -4852131.89548  -3774211.77744  23381998.2884   23381995.4404
      -954.1654
  -9264614.73449  -7261465.71147  21574868.7884   21574867.1794
       418.2534
  14739518.33248  11479809.53944  23049186.4374   23049185.4254
     -3793.6554
   -839350.70747   -644321.87542  24309410.2804   24309409.7844
     -1317.1684
  -8341746.42649  -6489118.64544  23151061.6084   23151060.0974
      1664.9914
   -379326.39849   -295209.33646  21633349.4834   21633347.2104
      -791.9414
 04  9  7 22 53 45.0030000  0  7G 3G19G 8G13G10G28G27
   8653484.86346   6743571.02742  24979870.5774   24979870.7454
     -3292.6704
  -4837676.64548  -3762947.94544  23384749.5304   23384746.1444
      -963.6834
  -9270822.47349  -7266302.90247  21573687.4994   21573685.7294
       413.8494
  14796506.86749  11524216.15644  23060030.9914   23060030.2024
     -3799.2364
   -819456.32047   -628819.76642  24313196.1944   24313195.1404
     -1326.2924
  -8366648.22348  -6508522.60544  23146323.5464   23146321.9174
      1660.1204
   -367387.53149   -285906.32846  21635620.8194   21635619.0074
      -795.9244
 04  9  7 22 54  0.0030000  0  7G 3G19G 8G13G10G28G27
   8702979.49646   6782138.29342  24989289.1714   24989288.9094
     -3299.6424
  -4823075.79748  -3751570.64844  23387527.2414   23387524.5034
      -973.3904
  -9276961.33249  -7271086.43047  21572519.3194   21572517.6514
       409.2574
  14853581.63748  11568689.97744  23070892.1084   23070891.0894
     -3804.9854
   -799422.31247   -613208.88342  24317009.0774   24317007.3124
     -1335.6014
  -8391473.96948  -6527867.31244  23141598.5154   23141597.7104
      1655.0504
   -355386.06649   -276554.53946  21637905.0934   21637903.0034
      -800.0984
 04  9  7 22 54 15.0030000  0  7G 3G19G 8G13G10G28G27
   8752578.43447   6820786.80142  24998727.2494   24998727.0464
     -3306.5964
  -4808329.39548  -3740079.93744  23390333.9134   23390330.8274
      -983.0934
  -9283031.27749  -7275816.25447  21571364.2024   21571362.3514
       404.6634
  14910742.15648  11613230.61344  23081769.1324   23081768.6014
     -3810.7014
   -779248.95747   -597489.38342  24320847.5384   24320846.4914
     -1344.8904
  -8416223.68448  -6547152.77744  23136889.2334   23136887.9294
      1649.9814
   -343321.86349   -267153.86346  21640200.9444   21640199.0464
      -804.2804
 04  9  7 22 54 30.0030000  0  7G 3G19G 8G13G10G28G27
   8802282.55947   6859517.27742  25008185.6634   25008185.5114
     -3313.6084
  -4793436.22748  -3728474.86344  23393167.9214   23393164.7224
      -992.8784
  -9289031.01249  -7280491.36346  21570222.7024   21570220.9604
       399.9824
  14967989.45748  11657838.88344  23092663.0774   23092662.0854
     -3816.4874
   -758935.13347   -581660.46142  24324712.4134   24324712.1404
     -1354.2554
  -8440896.20748  -6566378.08244  23132194.8194   23132193.2414
      1644.8354
   -331193.77349   -257703.40646  21642508.6794   21642507.0544
      -808.5394
 04  9  7 22 54 45.0030000  0  7G 3G19G 8G13G10G28G27
   8852092.15246   6898329.94142  25017664.0624   25017664.1204
     -3320.6404
  -4778395.68448  -3716754.96144  23396029.9994   23396026.4254
     -1002.7034
  -9294959.59049  -7285111.03947  21569094.4604   21569092.6164
       395.2394
  15025324.07048  11702515.17244  23103573.3584   23103572.3044
     -3822.3084
   -738480.30547   -565721.64543  24328605.3194   24328604.5584
     -1363.6554
  -8465490.59448  -6585542.50844  23127514.2184   23127512.5344
      1639.6264
   -319001.00049   -248202.53946  21644828.5544   21644826.6754
      -812.8524
 04  9  7 22 55  0.0030000  0  7G 3G19G 8G13G10G28G27
   8902005.64846   6937223.54342  25027162.3744   25027162.3124
     -3327.5664
  -4763209.10248  -3704921.25844  23398919.8744   23398916.3234
     -1012.4394
  -9300818.46549  -7289676.37947  21567979.4764   21567977.7184
       390.5924
  15082744.32048  11747258.19544  23114499.8974   23114498.9794
     -3828.0174
   -717886.03947   -549674.16042  24332524.3044   24332523.8004
     -1372.9514
  -8490008.23848  -6604647.12944  23122848.6474   23122846.9214
      1634.5104
   -306744.85549   -238652.29746  21647161.2024   21647159.1124
      -817.0764
 04  9  7 22 55 15.0030000  0  7G 3G19G 8G13G10G28G27
   8952021.69146   6976197.07442  25036680.1084   25036680.0304
     -3334.4034
  -4747877.49248  -3692974.54344  23401837.0854   23401833.6244
     -1022.1074
  -9306608.50049  -7294188.10247  21566877.5694   21566875.8904
       386.0024
  15140248.99248  11792067.00044  23125443.1014   23125441.9564
     -3833.6454
   -697153.49647   -533518.95343  24336470.5934   24336469.4954
     -1382.1704
  -8514449.98048  -6623692.61344  23118197.2804   23118195.7924
      1629.4494
   -294426.27749   -229053.41046  21649505.3744   21649503.6474
      -821.2394
 04  9  7 22 55 30.0030000  0  7G 3G19G 8G13G10G28G27
   9002139.02346   7015249.53942  25046217.1084   25046216.9564
     -3341.1554
  -4732401.87548  -3680915.61344  23404782.3744   23404778.9644
     -1031.7084
  -9312330.80549  -7298647.03547  21565788.7104   21565787.0424
       381.4874
  15197836.74248  11836940.55944  23136401.2964   23136400.1944
     -3839.1834
   -676283.96147   -517256.98843  24340441.3434   24340441.0384
     -1391.3024
  -8538816.79348  -6642679.71544  23113560.4444   23113559.2654
      1624.4544
   -282046.18449   -219406.58646  21651861.0464   21651859.3394
      -825.3404
 04  9  7 22 55 45.0030000  0  7G 3G19G 8G13G10G28G27
   9052360.77746   7054383.36342  25055773.2574   25055773.1244
     -3348.1174
  -4716778.84048  -3668741.81644  23407755.5154   23407751.7614
     -1041.5364
  -9317981.64849  -7303050.28547  21564713.3124   21564711.7374
       376.7234
  15255510.80948  11881881.35244  23147376.9764   23147375.9094
     -3844.9384
   -655274.00847   -500885.59842  24344438.9834   24344438.6794
     -1400.6644
  -8563105.09848  -6661605.63344  23108938.7724   23108936.7804
      1619.2204
   -269601.08249   -209709.10246  21654229.5074   21654227.4644
      -829.6734
 04  9  7 22 56  0.0030000  0  7G 3G19G 8G13G10G28G27
   9102685.47346   7093597.39142  25065349.9914   25065349.5504
     -3354.9804
  -4701009.37548  -3656453.91844  23410756.0384   23410752.6244
     -1051.2984
  -9323562.05549  -7307398.64547  21563651.3354   21563649.9094
       372.0274
  15313269.90249  11926888.41444  23158368.1474   23158367.0504
     -3850.6064
   -634124.87947   -484405.77043  24348463.6944   24348462.8624
     -1409.9424
  -8587315.87949  -6680471.14844  23104331.3124   23104329.8584
      1614.0524
   -257091.84449   -199961.64546  21656609.9524   21656607.7614
      -833.9494
 04  9  7 22 56 15.0030000  0  7G 3G19G 8G13G10G28G27
   9153115.40646   7132893.41842  25074946.7414   25074946.7454
     -3361.9964
  -4685091.09048  -3644050.05944  23413785.1324   23413781.5854
     -1061.2194
  -9329069.44149  -7311690.10947  21562603.3974   21562601.7574
       367.1594
  15371116.19148  11971963.41044  23169375.7654   23169374.8004
     -3856.4194
   -612834.35547   -467815.75043  24352514.9604   24352514.0384
     -1419.3684
  -8611446.63748  -6699274.30544  23099739.2334   23099737.8824
      1608.7174
   -244516.03149   -190162.30546  21659002.6244   21659000.8234
      -838.3874
 04  9  7 22 56 30.0030000  0  7G 3G19G 8G13G10G28G27
   9203648.68046   7172269.96542  25084563.3584   25084562.7804
     -3368.8854
  -4669025.39148  -3631531.33644  23416842.1474   23416838.1794
     -1071.0474
  -9334505.25449  -7315925.80147  21561568.9134   21561567.3904
       362.3884
  15429047.99248  12017105.05144  23180399.8824   23180399.0074
     -3862.1204
   -591404.02047   -451116.78543  24356593.1244   24356592.8194
     -1428.6894
  -8635498.70348  -6718016.14844  23095162.2724   23095161.1634
      1603.4714
   -231875.04749   -180312.19146  21661408.4054   21661406.3584
      -842.7324
 04  9  7 22 56 45.0040000  0  7G 3G19G 8G13G10G28G27
   9254287.79346   7211729.02342  25094199.6764   25094199.2664
     -3375.9414
  -4652811.88748  -3618897.42244  23419927.8164   23419924.2034
     -1080.9004
  -9339870.16449  -7320106.25047  21560548.2384   21560546.7304
       357.6614
  15487068.34848  12062315.69944  23191440.2934   23191439.9064
     -3868.0244
   -569833.01247   -434308.22743  24360697.5434   24360697.3914
     -1438.0674
  -8659474.16848  -6736698.29744  23090599.7694   23090598.3204
      1598.3644
   -219168.58649   -170411.05146  21663826.4264   21663824.3244
      -847.0974
 04  9  7 22 57  0.0040000  0  7G 3G19G 8G13G10G28G27
   9305025.03546   7251264.51242  25103854.8634   25103854.3124
     -3382.4834
  -4636453.46148  -3606150.59444  23423040.5194   23423037.6844
     -1090.5624
  -9345164.14549  -7324231.41847  21559540.7304   21559539.1764
       352.9324
  15545168.51648  12107588.53144  23202496.7694   23202496.2854
     -3873.3454
   -548125.21147   -417393.07442  24364829.0124   24364828.2274
     -1447.1874
  -8683370.48448  -6755318.78144  23086052.7384   23086050.8834
      1593.0884
   -206398.80549   -160460.56646  21666256.2694   21666254.4844
      -851.3194
 04  9  7 22 57 15.0040000  0  7G 3G19G 8G13G10G28G27
   9355864.76646   7290879.87942  25113528.8244   25113528.8984
     -3389.3154
  -4619947.75848  -3593289.01244  23426181.7854   23426178.2504
     -1100.3804
  -9350386.00849  -7328300.39847  21558547.3404   21558545.6024
       348.1244
  15603353.49248  12152927.43844  23213568.5984   23213568.2894
     -3878.9984
   -526278.07847   -400369.34842  24368986.4804   24368985.7694
     -1456.4764
  -8707187.82048  -6773877.70744  23081520.1374   23081518.6804
      1587.8224
   -193563.46949   -150459.00846  21668698.9884   21668697.0824
      -855.6894
 04  9  7 22 57 30.0040000  0  7G 3G19G 8G13G10G28G27
   9406805.77746   7330574.16042  25123222.2774   25123222.9344
     -3396.0674
  -4603295.74248  -3580313.40244  23429350.0824   23429347.1844
     -1110.1344
  -9355536.78949  -7332313.99247  21557566.8944   21557565.1684
       343.3854
  15661621.96148  12198331.40644  23224657.4264   23224657.0194
     -3884.5654
   -504292.72747   -383237.89843  24373170.0514   24373169.4304
     -1465.6904
  -8730927.14548  -6792375.85944  23077002.7544   23077001.3244
      1582.6224
   -180663.66849   -140407.21946  21671153.6054   21671151.9024
      -859.9874
 04  9  7 22 57 45.0040000  0  7G 3G19G 8G13G10G28G27
   9457848.43046   7370347.64842  25132935.3484   25132936.3634
     -3402.8434
  -4586496.77748  -3567223.30144  23432547.2074   23432544.3834
     -1119.9314
  -9360615.86349  -7336271.71547  21556600.1134   21556598.3054
       338.6054
  15719974.49648  12243800.87544  23235761.1444   23235760.8674
     -3890.1694
   -482168.57447   -365998.32442  24377379.8944   24377379.5164
     -1474.9434
  -8754587.68748  -6810812.62144  23072500.0434   23072499.1644
      1577.3704
   -167698.51249   -130304.50446  21673620.6684   21673619.0624
      -864.3444
 04  9  7 22 58  0.0040000  0  7G 3G19G 8G13G10G28G27
   9508990.55946   7410198.62142  25142667.8634   25142667.8944
     -3409.4754
  -4569552.66448  -3554020.07444  23435771.0124   23435768.7774
     -1129.6084
  -9365624.71949  -7340174.71147  21555647.1604   21555645.2584
       333.9244
  15778408.99248  12289334.23044  23246880.9104   23246880.1414
     -3895.6334
   -459907.60547   -348652.12542  24381616.7384   24381615.6644
     -1484.0654
  -8778170.92648  -6829189.12944  23068012.4964   23068010.7624
      1572.2164
   -154669.66849   -120152.15646  21676100.1914   21676098.2974
      -868.5904
 04  9  7 22 58 15.0040000  0  7G 3G19G 8G13G10G28G27
   9560233.71946   7450128.36742  25152418.7854   25152418.4264
     -3416.2114
  -4552461.60948  -3540702.38344  23439023.6684   23439021.1174
     -1139.4044
  -9370561.49249  -7344021.53947  21554707.4884   21554705.9574
       329.1184
  15836926.90248  12334932.57844  23258017.0044   23258015.7584
     -3901.1944
   -437508.35547   -331198.16443  24385878.8014   24385877.5474
     -1493.2834
  -8801675.19148  -6847504.11744  23063539.8164   23063538.3914
      1566.9514
   -141575.25849   -109948.72746  21678591.6604   21678589.8484
      -872.9614
 04  9  7 22 58 30.0040000  0  7G 3G19G 8G13G10G28G27
   9611577.57046   7490136.53542  25162188.7854   25162189.1954
     -3422.9234
  -4535223.72748  -3527270.26644  23442304.2854   23442300.7304
     -1149.1924
  -9375426.10949  -7347812.15247  21553781.9104   21553780.1844
       324.3084
  15895528.09048  12380595.81644  23269168.1374   23269167.7344
     -3906.7464
   -414970.96547   -313636.56642  24390167.1444   24390166.6564
     -1502.4934
  -8825100.45348  -6865757.53944  23059082.1214   23059080.1724
      1561.6844
   -128415.35249    -99694.25046  21681096.1684   21681094.3204
      -877.3274
 04  9  7 22 58 45.0040000  0  7G 3G19G 8G13G10G28G27
   9663019.87946   7530221.45342  25171978.6994   25171978.4414
     -3429.4874
  -4517840.92248  -3513725.22744  23445612.0594   23445608.5274
     -1158.8544
  -9380220.42649  -7351547.97346  21552869.4654   21552867.9344
       319.6214
  15954210.35548  12426322.23444  23280334.8634   23280334.4454
     -3912.1514
   -392297.43747   -295968.89542  24394481.7774   24394481.0234
     -1511.5684
  -8848448.46548  -6883950.77044  23054639.1604   23054637.1914
      1556.5344
   -115191.70749    -89390.11746  21683612.6844   21683611.1684
      -881.5764
 04  9  7 22 59  0.0040000  0  7G 3G19G 8G13G10G28G27
   9714561.09846   7570383.40242  25181786.3874   25181786.3674
     -3436.0814
  -4500312.48048  -3500066.69144  23448947.4024   23448944.0744
     -1168.5634
  -9384943.66049  -7355228.40647  21551970.5824   21551969.3094
       314.8824
  16012974.09848  12472112.12544  23291517.2544   23291516.5194
     -3917.5834
   -369487.31647   -278194.78542  24398821.9104   24398821.8094
     -1520.6754
  -8871718.46548  -6902083.21544  23050211.2854   23050209.3594
      1551.3334
   -101903.59049    -79035.74647  21686141.2234   21686139.4024
      -885.8744
 04  9  7 22 59 15.0040000  0  6G19G 8G13G10G28G27
  -4482635.42248  -3486292.34844  23452311.3014   23452308.1724
     -1178.4714
  -9389592.64149  -7358850.99646  21551086.1054   21551084.4774
       309.9324
  16071822.05948  12517967.64844  23302715.8944   23302714.8714
     -3923.1974
   -346537.76647   -260312.03542  24403189.9264   24403188.5474
     -1529.9704
  -8894907.31249  -6920152.42245  23045798.2624   23045797.1334
      1545.9234
    -88547.87549    -68628.69546  21688682.9024   21688681.0474
      -890.3814
